[[{"header":{"parameterUnit":"m.s-1","parameterCategory":1,"la1":30.6,"la2":29.2853,"lo1":-89.7004,"lo2":-87.6739,"dy":0.0162,"dx":0.0183,"nx":112,"ny":82,"refTime":"2023-04-03T06:00:00:Z","depth":0,"parameterNumber":2,"parameterNumberName":"U-component_of_WINDS"},"data":[0.0,0.0,0.0,0.0,0.0,0.0,0.0,0.0,0.0,0.0,0.0,0.0,0.0,0.0,0.0,0.0,0.0,0.0,0.0,0.0,0.0,0.0,0.0,0.0,0.0,0.0,0.0,0.0,0.0,0.0,0.0,0.0,0.0,0.0,0.0,0.0,0.0,0.0,0.0,0.0,0.0,0.0,0.0,0.0,0.0,0.0,0.0,0.0,0.0,0.0,0.0,0.0,0.0,0.0,0.0,0.0,0.0,0.0,0.0,0.0,0.0,0.0,0.0,0.0,0.0,0.0,0.0,0.0,0.0,0.0,0.0,0.0,0.0,0.0,0.0,0.0,0.0,0.0,0.0,0.0,0.0,0.0,0.0,0.0,0.0,0.0,0.0,0.0,0.0,0.0,-5.0904,-5.2755,-5.7218,-6.0551,-6.1696,-6.1603,-5.9127,-5.3549,0.0,0.0,0.0,0.0,0.0,0.0,0.0,0.0,0.0,0.0,0.0,0.0,0.0,0.0,0.0,0.0,0.0,0.0,0.0,0.0,0.0,0.0,0.0,0.0,0.0,0.0,0.0,0.0,0.0,0.0,0.0,0.0,0.0,0.0,0.0,0.0,0.0,0.0,0.0,0.0,0.0,0.0,0.0,0.0,0.0,0.0,0.0,0.0,0.0,0.0,0.0,0.0,0.0,0.0,0.0,0.0,0.0,0.0,0.0,0.0,0.0,0.0,0.0,0.0,0.0,0.0,0.0,0.0,0.0,0.0,0.0,0.0,0.0,0.0,0.0,0.0,0.0,0.0,0.0,0.0,0.0,0.0,0.0,0.0,0.0,0.0,0.0,0.0,0.0,0.0,0.0,0.0,0.0,0.0,0.0,0.0,0.0,0.0,0.0,0.0,0.0,0.0,0.0,0.0,-5.2316,-5.6715,-5.8912,-6.017,-6.038,-5.9472,-5.7242,-5.3433,0.0,0.0,0.0,0.0,0.0,0.0,0.0,0.0,0.0,0.0,0.0,0.0,0.0,0.0,0.0,0.0,0.0,0.0,0.0,0.0,0.0,0.0,0.0,0.0,0.0,0.0,0.0,0.0,0.0,0.0,0.0,0.0,0.0,0.0,0.0,0.0,0.0,0.0,0.0,0.0,0.0,0.0,0.0,0.0,0.0,0.0,0.0,0.0,0.0,0.0,0.0,0.0,0.0,0.0,0.0,0.0,0.0,0.0,0.0,0.0,0.0,0.0,0.0,0.0,0.0,0.0,0.0,0.0,0.0,0.0,0.0,0.0,0.0,0.0,0.0,0.0,0.0,0.0,0.0,0.0,0.0,0.0,0.0,0.0,0.0,0.0,0.0,0.0,0.0,0.0,0.0,0.0,0.0,0.0,0.0,0.0,0.0,0.0,0.0,0.0,0.0,0.0,0.0,-4.9711,-5.2378,-5.6648,-5.8046,-5.8799,-5.9046,-5.7513,-5.5298,-5.2338,-5.189,0.0,0.0,0.0,0.0,0.0,0.0,0.0,0.0,0.0,0.0,0.0,0.0,0.0,0.0,0.0,0.0,0.0,0.0,0.0,0.0,0.0,0.0,0.0,0.0,0.0,0.0,0.0,0.0,0.0,0.0,0.0,0.0,0.0,0.0,0.0,0.0,0.0,0.0,0.0,0.0,0.0,0.0,0.0,0.0,0.0,0.0,0.0,0.0,0.0,0.0,0.0,0.0,0.0,0.0,0.0,0.0,0.0,0.0,0.0,0.0,0.0,0.0,0.0,0.0,0.0,0.0,0.0,0.0,0.0,0.0,0.0,0.0,0.0,0.0,0.0,0.0,0.0,0.0,0.0,0.0,0.0,0.0,0.0,0.0,0.0,0.0,0.0,0.0,0.0,0.0,0.0,0.0,0.0,0.0,0.0,0.0,0.0,0.0,0.0,0.0,0.0,0.0,-5.0839,-5.2381,-5.576,-5.6774,-5.736,-5.7707,-5.5868,-5.3731,-5.1459,-4.9833,0.0,0.0,0.0,0.0,0.0,0.0,0.0,0.0,0.0,0.0,0.0,0.0,0.0,0.0,0.0,0.0,0.0,0.0,0.0,0.0,0.0,0.0,0.0,0.0,0.0,0.0,0.0,0.0,0.0,0.0,0.0,0.0,0.0,0.0,0.0,0.0,0.0,0.0,0.0,0.0,0.0,0.0,0.0,0.0,0.0,0.0,0.0,0.0,0.0,0.0,0.0,0.0,0.0,0.0,0.0,0.0,0.0,0.0,0.0,0.0,0.0,0.0,0.0,0.0,0.0,0.0,0.0,0.0,0.0,0.0,0.0,0.0,0.0,0.0,0.0,0.0,0.0,0.0,0.0,0.0,0.0,0.0,0.0,0.0,0.0,0.0,0.0,0.0,0.0,0.0,0.0,0.0,0.0,0.0,0.0,0.0,0.0,0.0,0.0,0.0,0.0,0.0,-5.0949,-5.2879,-5.5383,-5.6108,-5.6387,-5.6425,-5.4602,-5.2812,-5.1396,-4.9041,0.0,0.0,0.0,0.0,0.0,0.0,0.0,0.0,0.0,0.0,0.0,0.0,0.0,0.0,0.0,0.0,0.0,0.0,0.0,0.0,0.0,0.0,0.0,0.0,0.0,0.0,0.0,0.0,0.0,0.0,0.0,0.0,0.0,0.0,0.0,0.0,0.0,0.0,0.0,0.0,0.0,0.0,0.0,0.0,0.0,0.0,0.0,0.0,0.0,0.0,0.0,0.0,0.0,0.0,0.0,0.0,0.0,0.0,0.0,0.0,0.0,0.0,0.0,0.0,0.0,0.0,0.0,0.0,0.0,0.0,0.0,0.0,0.0,0.0,0.0,0.0,0.0,0.0,0.0,0.0,0.0,0.0,0.0,0.0,0.0,0.0,0.0,0.0,0.0,0.0,0.0,0.0,0.0,0.0,0.0,0.0,0.0,0.0,0.0,0.0,0.0,0.0,-5.0215,-5.216,0.0,-5.5017,-5.4921,-5.4404,-5.2492,-5.0665,-4.9138,0.0,0.0,0.0,0.0,0.0,0.0,0.0,0.0,0.0,0.0,0.0,0.0,0.0,0.0,0.0,0.0,0.0,0.0,0.0,0.0,0.0,0.0,0.0,0.0,0.0,0.0,0.0,0.0,0.0,0.0,0.0,0.0,0.0,0.0,0.0,0.0,0.0,0.0,0.0,0.0,0.0,0.0,0.0,0.0,0.0,0.0,0.0,0.0,0.0,0.0,0.0,0.0,0.0,0.0,0.0,0.0,0.0,0.0,0.0,0.0,0.0,0.0,0.0,0.0,0.0,0.0,0.0,0.0,0.0,0.0,0.0,0.0,0.0,0.0,0.0,0.0,0.0,0.0,0.0,0.0,0.0,0.0,0.0,0.0,0.0,0.0,0.0,0.0,0.0,0.0,0.0,0.0,0.0,0.0,0.0,0.0,0.0,0.0,0.0,0.0,0.0,0.0,-4.8012,-4.9554,-5.1242,0.0,-5.3628,-5.3298,-5.2527,-5.0415,-4.8727,-4.7748,0.0,0.0,0.0,0.0,0.0,0.0,0.0,0.0,0.0,0.0,0.0,0.0,0.0,0.0,0.0,0.0,0.0,0.0,0.0,0.0,0.0,0.0,0.0,0.0,0.0,0.0,0.0,0.0,0.0,0.0,0.0,0.0,0.0,0.0,0.0,0.0,0.0,0.0,0.0,0.0,0.0,0.0,0.0,0.0,0.0,0.0,0.0,0.0,0.0,0.0,0.0,0.0,0.0,0.0,0.0,0.0,0.0,0.0,0.0,0.0,0.0,0.0,0.0,0.0,0.0,0.0,0.0,0.0,0.0,0.0,0.0,0.0,0.0,0.0,0.0,0.0,0.0,0.0,0.0,0.0,0.0,0.0,0.0,0.0,0.0,0.0,0.0,0.0,0.0,0.0,0.0,0.0,0.0,0.0,0.0,0.0,0.0,0.0,0.0,0.0,0.0,0.0,-4.7976,-4.904,-5.0198,-5.1793,-5.1977,-5.1646,-5.0839,-4.8507,-4.7279,0.0,0.0,0.0,0.0,0.0,0.0,0.0,0.0,0.0,0.0,0.0,0.0,0.0,0.0,0.0,0.0,0.0,0.0,0.0,0.0,0.0,0.0,0.0,0.0,0.0,0.0,0.0,0.0,0.0,0.0,0.0,0.0,0.0,0.0,0.0,0.0,0.0,0.0,0.0,0.0,0.0,0.0,0.0,0.0,0.0,0.0,0.0,0.0,0.0,0.0,0.0,0.0,0.0,0.0,0.0,0.0,0.0,0.0,0.0,0.0,0.0,0.0,0.0,0.0,0.0,0.0,0.0,0.0,0.0,0.0,0.0,0.0,0.0,0.0,0.0,0.0,0.0,0.0,0.0,0.0,0.0,0.0,0.0,0.0,0.0,0.0,0.0,0.0,0.0,0.0,0.0,0.0,0.0,0.0,0.0,0.0,0.0,0.0,0.0,0.0,0.0,0.0,0.0,-4.7223,-4.8159,-4.9334,-5.0986,-5.1169,-5.0582,-4.915,-4.7846,-4.6654,-4.5657,0.0,0.0,0.0,0.0,0.0,0.0,0.0,0.0,0.0,0.0,0.0,0.0,0.0,0.0,0.0,0.0,0.0,0.0,0.0,0.0,0.0,0.0,0.0,0.0,0.0,0.0,0.0,0.0,0.0,0.0,0.0,0.0,0.0,0.0,0.0,0.0,0.0,0.0,0.0,0.0,0.0,0.0,0.0,0.0,0.0,0.0,0.0,0.0,0.0,0.0,0.0,0.0,0.0,0.0,0.0,0.0,0.0,0.0,0.0,0.0,0.0,0.0,0.0,0.0,0.0,0.0,0.0,0.0,0.0,0.0,0.0,0.0,0.0,0.0,0.0,0.0,0.0,0.0,0.0,0.0,0.0,0.0,0.0,0.0,0.0,0.0,0.0,0.0,0.0,0.0,0.0,0.0,0.0,0.0,0.0,0.0,0.0,0.0,0.0,0.0,0.0,0.0,-4.6856,-4.7516,-4.8453,-5.0141,-5.0325,-4.9627,-4.7957,-4.7076,-4.592,-4.4305,0.0,0.0,0.0,0.0,0.0,0.0,0.0,0.0,0.0,0.0,0.0,0.0,0.0,0.0,0.0,0.0,0.0,0.0,0.0,0.0,0.0,0.0,0.0,0.0,0.0,0.0,0.0,0.0,0.0,0.0,0.0,0.0,0.0,0.0,0.0,0.0,0.0,0.0,0.0,0.0,0.0,0.0,0.0,0.0,0.0,0.0,0.0,0.0,0.0,0.0,0.0,0.0,0.0,0.0,0.0,0.0,0.0,0.0,0.0,0.0,0.0,0.0,0.0,0.0,0.0,0.0,0.0,0.0,0.0,0.0,0.0,0.0,0.0,0.0,0.0,0.0,0.0,0.0,0.0,0.0,0.0,0.0,0.0,0.0,0.0,0.0,0.0,0.0,0.0,0.0,0.0,0.0,0.0,0.0,0.0,0.0,0.0,0.0,0.0,0.0,0.0,0.0,-4.6672,-4.7003,-4.7645,-4.9317,-4.9427,-4.871,-4.7113,-4.625,-4.5112,-4.3625,0.0,0.0,0.0,0.0,0.0,0.0,0.0,0.0,0.0,0.0,0.0,0.0,0.0,0.0,0.0,0.0,0.0,0.0,0.0,0.0,0.0,0.0,0.0,0.0,0.0,0.0,0.0,0.0,0.0,0.0,0.0,0.0,0.0,0.0,0.0,0.0,0.0,0.0,0.0,0.0,0.0,0.0,0.0,0.0,0.0,0.0,0.0,0.0,0.0,0.0,0.0,0.0,0.0,0.0,0.0,0.0,0.0,0.0,0.0,0.0,-5.3408,-5.3004,0.0,0.0,0.0,0.0,0.0,0.0,0.0,0.0,0.0,0.0,0.0,0.0,0.0,0.0,0.0,0.0,0.0,0.0,0.0,0.0,0.0,0.0,0.0,0.0,0.0,0.0,0.0,0.0,0.0,0.0,0.0,0.0,0.0,0.0,0.0,0.0,0.0,0.0,0.0,0.0,-4.592,-4.6177,-4.6764,-4.8416,-4.8012,-4.7223,-4.625,-4.5443,-4.4525,-4.3551,-4.3515,0.0,0.0,0.0,0.0,0.0,0.0,0.0,0.0,0.0,0.0,0.0,0.0,0.0,0.0,0.0,0.0,0.0,0.0,0.0,0.0,0.0,0.0,0.0,0.0,0.0,0.0,0.0,0.0,0.0,0.0,0.0,0.0,0.0,0.0,0.0,0.0,0.0,0.0,0.0,0.0,0.0,0.0,0.0,0.0,0.0,0.0,0.0,0.0,0.0,0.0,0.0,0.0,0.0,0.0,0.0,0.0,0.0,0.0,0.0,-5.3775,-5.3335,0.0,0.0,0.0,0.0,0.0,0.0,0.0,0.0,0.0,0.0,0.0,0.0,0.0,0.0,0.0,0.0,0.0,0.0,0.0,0.0,0.0,0.0,0.0,0.0,0.0,0.0,0.0,0.0,0.0,0.0,0.0,0.0,0.0,0.0,0.0,0.0,0.0,0.0,0.0,0.0,-4.57,-4.5553,-4.5957,-4.7553,-4.7003,-4.6214,-4.5406,-4.4966,-4.4195,-4.2983,-4.3277,0.0,0.0,0.0,0.0,0.0,0.0,0.0,0.0,0.0,0.0,0.0,0.0,0.0,0.0,0.0,0.0,0.0,0.0,0.0,0.0,0.0,0.0,0.0,0.0,0.0,0.0,0.0,0.0,0.0,0.0,0.0,0.0,0.0,0.0,0.0,0.0,0.0,0.0,0.0,0.0,0.0,0.0,0.0,0.0,0.0,0.0,0.0,0.0,0.0,0.0,0.0,0.0,0.0,-5.4546,-5.4876,-5.539,-5.5559,-5.5244,-5.462,-5.462,-5.4069,-5.324,-5.4069,0.0,0.0,0.0,0.0,0.0,0.0,0.0,0.0,0.0,0.0,0.0,0.0,0.0,0.0,0.0,0.0,0.0,0.0,0.0,0.0,0.0,0.0,-4.7829,-4.8893,-4.8122,-4.6892,-4.6067,0.0,0.0,0.0,0.0,0.0,0.0,0.0,0.0,0.0,0.0,0.0,-4.57,-4.5333,-4.5461,-4.6929,-4.6397,-4.5553,-4.4782,-4.4544,-4.3938,-4.258,-4.313,-4.3204,0.0,0.0,0.0,0.0,0.0,0.0,0.0,0.0,0.0,0.0,0.0,0.0,0.0,0.0,0.0,0.0,0.0,0.0,0.0,0.0,0.0,0.0,0.0,0.0,0.0,0.0,0.0,0.0,0.0,0.0,0.0,0.0,-5.6822,-5.6822,0.0,0.0,0.0,0.0,0.0,0.0,0.0,0.0,0.0,0.0,0.0,0.0,0.0,-5.4583,-5.528,-5.528,-5.4987,-5.4399,-5.5097,-5.5133,-5.4583,-5.528,-5.5559,-5.5427,-5.5427,0.0,-5.324,-5.4069,0.0,0.0,0.0,0.0,0.0,0.0,0.0,0.0,0.0,0.0,0.0,0.0,0.0,0.0,0.0,0.0,0.0,0.0,0.0,0.0,0.0,0.0,-4.8967,-4.77,-4.7259,-4.6892,-4.6067,-4.5883,-4.57,-4.5002,-4.4195,-4.3644,0.0,0.0,0.0,0.0,0.0,0.0,-4.57,-4.581,-4.6104,-4.7003,-4.6397,-4.5553,-4.4782,-4.4048,-4.3588,-4.3368,-4.3441,-4.3441,-4.3368,-4.3314,0.0,0.0,0.0,0.0,0.0,0.0,0.0,0.0,0.0,0.0,0.0,0.0,0.0,0.0,0.0,0.0,0.0,0.0,0.0,0.0,0.0,0.0,0.0,0.0,0.0,0.0,0.0,0.0,0.0,-5.6969,-5.7299,-5.6859,-5.7519,-5.7997,0.0,0.0,0.0,0.0,0.0,0.0,0.0,0.0,0.0,-5.506,-5.506,-5.5244,-5.5596,-5.5596,-5.5647,-5.5757,-5.6124,-5.6345,-5.6418,-5.6785,-5.6932,-5.6932,-5.6932,-5.6308,-5.517,-5.462,-5.3922,-5.3203,0.0,0.0,0.0,0.0,-5.2821,-5.3041,-5.1756,-5.1316,-5.1279,-5.0912,0.0,0.0,0.0,0.0,0.0,0.0,0.0,-4.8783,-4.8416,-4.86,-4.8673,-4.7976,-4.7773,-4.7553,-4.6746,-4.6214,-4.581,-4.5443,-4.5076,-4.4709,-4.4268,-4.3791,0.0,0.0,0.0,-4.4085,-4.57,-4.5516,-4.5553,-4.6361,-4.57,-4.4892,-4.4085,-4.3681,-4.3515,-4.3515,-4.3515,-4.3515,-4.3515,-4.3515,-4.3515,0.0,0.0,0.0,0.0,0.0,0.0,0.0,0.0,0.0,0.0,0.0,0.0,0.0,0.0,0.0,0.0,0.0,0.0,0.0,0.0,0.0,0.0,0.0,0.0,0.0,0.0,0.0,0.0,-5.7483,-5.7703,-5.6895,-5.7703,-5.8143,0.0,0.0,0.0,0.0,0.0,0.0,-5.5023,-5.4803,-5.506,-5.5868,-5.5904,-5.6014,-5.6198,-5.6198,-5.6492,-5.7116,-5.7116,-5.7409,-5.7997,-5.7997,-5.7997,-5.7997,-5.7776,-5.7336,-5.6712,-5.528,-5.4216,-5.3482,-5.3277,-5.3203,-5.3151,-5.2527,-5.2711,-5.3004,-5.161,-5.1096,-5.1096,-5.1096,-5.0105,-4.8967,-4.9187,0.0,0.0,0.0,0.0,-4.8416,-4.882,-4.8636,-4.8379,-4.86,-4.8453,-4.8159,-4.7553,-4.6948,-4.6324,-4.57,-4.5443,-4.5112,-4.4488,0.0,0.0,0.0,0.0,-4.4378,-4.5993,-4.5516,-4.5259,-4.5847,-4.5186,-4.4378,-4.3588,-4.3515,-4.3515,-4.3515,-4.3515,-4.3515,-4.3515,-4.3515,-4.3515,-4.3515,0.0,0.0,0.0,0.0,0.0,0.0,0.0,0.0,0.0,0.0,0.0,0.0,0.0,0.0,0.0,0.0,0.0,0.0,0.0,0.0,0.0,0.0,0.0,0.0,0.0,0.0,0.0,0.0,0.0,-5.6895,-5.8157,0.0,0.0,0.0,0.0,-5.6822,-5.6712,-5.6675,-5.6675,-5.5941,-5.5904,-5.6712,-5.6748,-5.7116,-5.785,-5.7886,-5.7886,-5.7923,-5.7923,-5.796,-5.7997,-5.7997,-5.7997,-5.796,-5.7189,-5.6859,-5.6748,-5.5868,-5.506,-5.4252,-5.3518,-5.3203,-5.3203,-5.313,-5.3167,-5.3078,-5.2234,-5.194,-5.194,-5.194,-5.1353,-5.0398,-4.882,-4.8343,0.0,0.0,-4.893,-4.8673,-5.0251,-4.9481,-4.8526,-4.9353,-4.8893,-4.8306,-4.8269,-4.8233,-4.7498,-4.5223,-4.4121,-4.3625,-4.3588,0.0,-4.3754,-4.4525,-4.4635,-4.5205,-4.6819,-4.6361,-4.5847,-4.5883,-4.5186,-4.4378,-4.3588,-4.3515,-4.3515,-4.3515,-4.3515,-4.3515,-4.3515,-4.3515,-4.3515,-4.3515,-4.3515,0.0,0.0,0.0,0.0,0.0,0.0,0.0,0.0,0.0,0.0,0.0,0.0,0.0,0.0,0.0,0.0,0.0,0.0,0.0,0.0,0.0,0.0,0.0,0.0,0.0,0.0,0.0,0.0,-5.8327,-5.9318,0.0,-5.9171,-5.8914,-5.8657,-5.8377,-5.785,-5.7813,-5.8304,-5.7593,-5.774,-5.9061,-5.8107,-5.796,-5.8767,-5.8253,-5.7997,-5.7997,-5.7997,-5.7997,-5.7997,-5.7997,-5.7997,-5.796,-5.7703,-5.7556,-5.7519,-5.6712,-5.5574,-5.4363,-5.4069,-5.3665,-5.3151,-5.2637,-5.2747,-5.3078,-5.227,-5.1977,-5.183,-5.0785,-5.0271,-4.9921,-4.9317,-4.9481,-4.9958,-5.0288,-5.0141,-5.0068,-5.0655,-4.9958,-4.9206,-4.9537,-4.893,-4.8306,-4.8306,-4.7902,-4.7259,-4.6415,-4.6012,-4.5663,-4.5112,-4.5039,-4.5149,-4.5443,-4.548,-4.5883,-4.6966,-4.6397,-4.5883,-4.5883,-4.5186,-4.4378,-4.3588,-4.3515,-4.3515,-4.3515,-4.3515,-4.3515,-4.3515,-4.3515,-4.3515,-4.3515,-4.3515,-4.3515,0.0,0.0,0.0,0.0,0.0,0.0,0.0,0.0,0.0,0.0,0.0,0.0,0.0,0.0,0.0,0.0,0.0,0.0,0.0,0.0,0.0,0.0,0.0,0.0,0.0,0.0,-5.9391,-5.9942,-6.097,-6.1447,-6.086,-6.0566,-6.0285,-6.0052,-5.9501,-5.9465,-5.9979,-5.9245,-5.9318,-6.0382,-5.9355,-5.9061,-5.9588,-5.8804,-5.84,-5.84,-5.8143,-5.7997,-5.7997,-5.7997,-5.7997,-5.7997,-5.7997,-5.7997,-5.796,-5.7409,-5.6418,-5.517,-5.462,-5.4069,-5.3518,-5.2711,-5.2747,-5.3093,-5.2601,-5.2417,-5.216,-5.0859,-5.0418,-5.0381,-5.0088,-5.0362,-5.0875,-5.1132,-5.1022,-5.0949,-5.1463,-5.0618,-4.9684,-4.9941,-4.9114,-4.8306,-4.8306,-4.7883,-4.748,-4.748,-4.7076,-4.6544,-4.5993,-4.5883,-4.5993,-4.625,-4.6324,-4.6617,-4.7406,-4.6801,-4.6214,-4.592,-4.5186,-4.4378,-4.3588,-4.3515,-4.3515,-4.3515,-4.3515,-4.3515,-4.3515,-4.3515,-4.3515,-4.3515,-4.3515,-4.3515,-4.3515,0.0,0.0,0.0,0.0,0.0,0.0,0.0,0.0,0.0,0.0,0.0,0.0,0.0,0.0,0.0,0.0,0.0,0.0,0.0,0.0,0.0,0.0,0.0,-5.796,-6.0126,-6.163,-6.1667,-6.3135,-6.3503,-6.1851,-6.2438,-6.2548,-6.1777,-6.1704,-6.1704,-6.1667,-6.0896,-6.0493,-6.0493,-6.0419,-6.0419,-6.0456,-5.9625,-5.9221,-5.9184,-5.84,-5.8033,-5.7997,-5.7997,-5.7997,-5.7997,-5.7997,-5.7997,-5.7997,-5.7997,-5.7556,-5.6675,-5.5097,-5.4436,-5.4326,-5.3518,-5.3203,-5.3203,-5.3203,-5.3167,-5.3041,-5.2234,-5.1977,-5.183,-5.1059,-5.0875,-5.1059,-5.183,-5.1463,-5.1242,-5.2821,-5.1426,-4.9831,-5.0618,-4.9517,-4.8306,-4.8306,-4.8306,-4.8306,-4.8306,-4.7058,-4.5957,-4.5957,-4.5957,-4.625,-4.7003,-4.7149,0.0,-4.8196,-4.759,-4.6782,-4.603,-4.5223,-4.4415,-4.3625,-4.3551,-4.3551,-4.3515,-4.3515,-4.3515,-4.3515,-4.3515,-4.3515,-4.3515,-4.3515,-4.3515,-4.3515,0.0,0.0,0.0,0.0,0.0,0.0,0.0,0.0,0.0,0.0,0.0,0.0,0.0,0.0,0.0,0.0,0.0,0.0,0.0,0.0,0.0,0.0,-5.8817,-5.9648,-6.1337,-6.2695,-6.3319,-6.4347,-6.4787,-6.4347,-6.4494,-6.453,-6.431,-6.4273,-6.4016,-6.3429,-6.2622,-6.2144,-6.2144,-6.1006,-6.0676,-6.1263,-6.0456,-5.9795,-5.9184,-5.8964,-5.8584,-5.7997,-5.7997,-5.7997,-5.7997,-5.7997,-5.7997,-5.7997,-5.7997,-5.7886,-5.7556,-5.6528,-5.5427,-5.4363,-5.4142,-5.3702,-5.3203,-5.3203,-5.2821,-5.227,-5.205,-5.1977,-5.194,-5.172,-5.2087,-5.2601,-5.2821,-5.2711,-5.2637,-5.3093,-5.183,-5.0545,-5.0765,-4.9517,-4.8306,-4.8306,-4.8306,-4.8306,-4.8306,-4.7939,-4.7645,-4.7645,-4.7645,-4.7719,-4.792,-4.7957,0.0,-4.8269,-4.759,-4.7003,-4.6782,-4.6067,-4.5259,-4.4452,-4.4378,-4.4121,-4.3551,-4.3515,-4.3515,-4.3515,-4.3515,-4.3515,-4.3515,-4.3515,-4.3515,0.0,0.0,0.0,0.0,0.0,0.0,0.0,0.0,0.0,0.0,0.0,0.0,0.0,0.0,0.0,0.0,0.0,0.0,0.0,0.0,0.0,0.0,-6.0493,-6.2144,-6.3282,-6.398,-6.453,-6.5044,-6.6109,-6.6806,-6.6806,-6.6806,-6.6806,-6.6806,-6.6512,-6.5815,-6.464,-6.3796,-6.3172,-6.278,-6.1887,-6.163,-6.2108,-6.13,-6.0676,-6.0199,-5.9869,-5.9281,-5.851,-5.851,-5.8327,-5.7997,-5.7997,-5.7997,-5.7997,-5.7997,-5.7997,-5.7923,0.0,0.0,0.0,0.0,-5.3885,-5.3203,-5.3203,-5.2894,-5.2491,-5.2491,-5.2491,-5.2491,-5.2491,-5.2821,-5.3203,-5.3203,-5.3203,-5.3203,-5.3203,-5.2013,-5.0802,-5.0802,-4.9517,-4.8306,-4.8306,-4.8306,-4.8306,-4.8306,-4.8306,0.0,-4.8306,-4.8306,-4.8306,-4.8306,-4.8306,-4.8306,-4.8306,-4.7902,-4.7333,-4.6672,-4.6177,-4.5443,-4.4305,-4.4195,0.0,0.0,0.0,-4.3515,-4.3515,-4.3515,0.0,0.0,0.0,-4.3515,-4.3515,-4.3515,0.0,0.0,-4.3515,-4.3515,0.0,0.0,0.0,0.0,0.0,0.0,0.0,0.0,0.0,0.0,0.0,0.0,0.0,0.0,0.0,0.0,-6.4016,-6.6145,-6.7724,-6.743,-6.7026,-6.6916,-6.8164,-6.9045,-6.9045,-6.9045,-6.9009,-6.8898,-6.8238,-6.71,-6.5411,0.0,0.0,0.0,0.0,-6.278,-6.278,-6.2108,-6.1704,-6.1594,-6.0896,-6.0126,-5.9331,-5.9331,-5.8914,-5.8143,-5.8143,-5.807,-5.7997,-5.7997,-5.7997,-5.7923,-5.7116,-5.6748,-5.6492,-5.495,-5.3885,-5.3203,-5.3203,0.0,0.0,-5.3203,-5.3203,-5.3203,-5.3203,-5.3203,-5.3203,-5.3203,-5.3203,-5.3203,-5.3203,-5.2087,-5.0949,-5.0949,-4.9664,-4.8453,-4.8453,-4.8379,-4.8306,-4.8306,-4.8306,-4.8306,-4.8306,-4.8306,-4.8306,-4.8306,-4.8306,-4.8269,-4.8196,-4.8159,-4.7572,-4.6067,0.0,0.0,-4.3772,-4.3644,-4.3625,-4.3515,-4.3515,-4.3515,-4.3515,-4.3515,-4.3515,-4.3515,-4.3515,-4.3515,-4.3515,-4.3515,-4.3515,-4.3515,-4.3515,-4.3515,0.0,0.0,0.0,0.0,0.0,0.0,0.0,0.0,0.0,0.0,0.0,0.0,0.0,0.0,0.0,-6.4163,-6.6072,-6.7797,-6.9412,-7.0073,-7.0146,-6.9486,-6.9669,-6.9853,-6.9853,-6.9853,-6.9596,-6.8972,-6.8752,-6.7687,-6.5411,-6.5154,-6.4383,-6.2853,-6.278,-6.278,-6.278,-6.2658,-6.2254,-6.1594,-6.1447,0.0,-6.0162,-6.0162,-5.9722,-5.8964,-5.8964,-5.8621,-5.7997,-5.7997,-5.7997,-5.7923,-5.7116,-5.6418,-5.5721,-5.473,-5.3885,-5.3203,-5.3203,-5.3203,-5.3203,-5.3203,-5.3203,-5.3203,-5.3203,-5.3203,0.0,-5.3203,-5.3203,-5.3203,-5.3203,-5.2491,-5.1756,-5.1756,-5.0528,-4.9353,-4.9353,-4.8783,-4.8306,-4.8306,-4.8306,-4.8306,-4.8306,-4.8306,-4.8306,-4.8306,-4.8306,-4.8086,-4.7406,-4.7333,-4.6966,-4.5993,-4.5883,-4.5516,-4.4562,-4.4488,-4.4195,-4.3551,-4.3515,-4.3515,-4.3515,-4.3515,-4.3515,-4.3515,-4.3515,-4.3515,-4.3515,-4.3515,-4.3515,-4.3515,-4.3515,-4.3515,0.0,0.0,0.0,0.0,0.0,0.0,0.0,0.0,0.0,0.0,0.0,-5.8841,0.0,0.0,-6.453,-6.7797,-6.9302,-7.0513,-7.1725,-7.2239,-7.1908,-7.0293,-7.0477,-7.0697,-7.0697,-7.0697,-7.0367,-6.9559,-6.9486,-6.8458,-6.6035,-6.5888,-6.5154,-6.3503,-6.3466,-6.3246,-6.278,-6.278,-6.2622,-6.2218,-6.2218,-6.1777,-6.1006,-6.0566,-5.9979,-5.9184,-5.8767,-5.8364,-5.7997,-5.7997,-5.7997,-5.796,-5.7556,-5.6895,-5.6161,-5.5757,-5.484,-5.3812,-5.3812,-5.3555,-5.3203,-5.3203,-5.3203,-5.3203,-5.3203,-5.3203,-5.3203,-5.3203,-5.3203,-5.3203,-5.3203,-5.2601,-5.1977,-5.1977,-5.0785,-4.961,-4.961,-4.893,-4.8306,-4.8306,-4.8306,-4.8306,-4.8306,-4.8306,-4.8306,-4.8306,-4.8306,-4.8159,-4.7736,-4.7333,-4.6782,-4.5993,-4.5553,-4.4966,-4.4158,-4.4085,-4.3938,-4.3551,-4.3515,-4.3515,-4.3515,-4.3515,-4.3515,-4.3515,-4.3515,-4.3515,-4.3515,-4.3515,-4.3515,-4.3515,-4.3515,-4.3515,0.0,0.0,0.0,0.0,0.0,0.0,0.0,0.0,-5.7336,-5.7483,-5.8914,-6.0786,-6.2915,-6.4897,-6.7393,-7.0991,-7.2349,-7.3193,-7.3854,-7.3927,-7.3193,-7.1248,-7.1321,-7.1615,-7.1762,-7.1651,-7.1138,-7.0183,-7.011,-6.9045,-6.6623,-6.6512,-6.5742,-6.4127,-6.409,-6.3686,-6.278,-6.2989,-6.3062,-6.3062,-6.3062,-6.2732,-6.2071,-6.1227,-6.0346,-5.9368,-5.8437,-5.7997,-5.7997,-5.7997,-5.7997,-5.7997,-5.7997,-5.7593,-5.7005,-5.6859,-5.5794,-5.4399,-5.4399,-5.3885,-5.3203,-5.3203,-5.3203,-5.3203,-5.3203,-5.3203,-5.3203,-5.3203,-5.3203,-5.3203,-5.3203,-5.2711,-5.2234,-5.2234,-5.1096,-5.0014,-4.9867,-4.915,-4.8489,-4.8343,-4.8306,-4.8306,-4.8306,-4.8306,-4.8306,-4.8306,-4.8306,-4.8233,-4.8086,-4.748,-4.6709,-4.5773,-4.5112,-4.4378,-4.3588,-4.3515,-4.3515,-4.3515,-4.3662,-4.3718,-4.3718,-4.3864,-4.3864,-4.3718,-4.3864,-4.3791,-4.3515,-4.3644,-4.3662,-4.3515,-4.3515,-4.3515,-5.84,-5.7556,-5.7189,-5.774,-5.6785,-5.6271,0.0,0.0,-5.9111,-5.9869,-6.1887,-6.3833,-6.4861,-6.7504,-7.0183,-7.2055,-7.3634,-7.4661,-7.4771,-7.4771,-7.4698,-7.4404,-7.3193,-7.2642,-7.334,-7.2789,-7.1725,-7.022,-7.011,-6.9045,-6.6623,-6.6512,-6.5742,-6.4127,-6.409,-6.3686,-6.278,-6.3576,-6.3943,-6.3943,-6.3943,-6.3906,-6.3796,-6.2952,-6.1704,-6.0199,-5.8657,-5.7997,-5.7997,-5.7997,-5.7997,-5.7997,-5.7997,-5.796,-5.7776,-5.7079,-5.5794,-5.4399,-5.4399,-5.3885,-5.3203,-5.3203,-5.3203,-5.3203,-5.3203,-5.3203,-5.3203,-5.3203,-5.3203,-5.3203,-5.3203,-5.3151,-5.3078,-5.3078,-5.238,-5.1536,-5.0839,-5.0031,-4.9243,-4.8453,-4.8306,-4.8306,-4.8306,-4.8306,-4.8306,-4.8306,-4.8306,-4.8049,-4.7333,-4.7149,-4.6526,-4.4984,-4.4728,-4.4378,-4.3588,-4.3515,-4.3515,-4.3515,-4.4158,-4.4562,-4.4562,-4.5259,-4.5296,-4.4599,-4.5259,-4.4929,-4.3515,-4.4232,-4.4195,-4.3515,-4.3515,-4.3515,-5.8877,-5.8107,-5.7483,0.0,-5.7152,-5.7262,-5.829,-5.9245,-6.0419,-6.2181,-6.4494,-6.6733,-6.8495,-7.066,-7.2716,0.0,-7.5175,-7.5616,-7.5616,-7.5212,-7.4735,-7.4258,-7.3193,-7.2826,-7.3597,-7.2973,-7.2018,-7.0881,-7.0367,-6.9449,-6.7981,-6.7026,-6.5962,-6.4824,-6.4347,-6.3906,-6.3576,-6.3906,-6.409,-6.409,-6.409,-6.3833,-6.3319,-6.2475,-6.1227,-5.9648,-5.851,-5.7997,-5.7997,-5.7997,-5.7997,-5.7997,-5.7997,-5.7997,-5.796,-5.7629,-5.6785,-5.5794,-5.5794,-5.528,-5.4509,-5.4069,-5.3922,-5.3812,-5.3314,-5.3203,-5.3203,-5.3203,-5.3203,-5.3203,-5.3203,-5.3203,-5.3203,-5.3203,-5.2601,-5.1756,-5.0986,-5.0178,-4.9353,-4.8489,-4.8306,-4.8306,-4.8306,-4.8306,-4.8306,-4.8306,-4.8306,-4.8196,-4.7846,-4.7369,-4.6672,-4.5516,-4.5406,-4.5259,-4.4929,-4.4892,-4.4892,-4.4892,-4.5223,-4.5406,-4.5406,-4.5736,-4.5736,-4.5406,-4.5736,-4.5333,-4.4195,-4.5002,-4.4966,-4.4195,-4.4672,-4.4892,-5.8877,0.0,0.0,-5.7556,-5.807,-5.8767,-5.9208,-6.075,-6.2658,-6.4677,-6.7173,-6.9559,-7.1321,-7.2936,-7.4478,-7.5873,-7.6093,-7.6093,-7.6093,-7.5432,-7.4625,-7.378,-7.2606,-7.2165,-7.2973,-7.2716,-7.2165,-7.1329,-7.077,-7.0,-6.8972,-6.7797,-6.6696,-6.5668,-6.5081,-6.453,-6.409,-6.431,-6.431,-6.409,-6.409,-6.3759,-6.3135,-6.1851,-6.0639,-5.9478,-5.8437,-5.7997,-5.7997,-5.7997,-5.7997,-5.7997,-5.7997,-5.7997,-5.7997,-5.7997,-5.7483,-5.6822,-5.6822,-5.6271,-5.5464,-5.4656,-5.4399,-5.4252,-5.3445,-5.3203,-5.3203,-5.3203,-5.3203,-5.3203,-5.3203,-5.3203,-5.3203,-5.3203,-5.2601,-5.183,-5.1242,-5.0325,-4.9427,-4.8783,-4.8453,-4.8306,-4.8306,-4.8306,-4.8306,-4.8306,-4.8306,-4.8306,-4.8306,-4.759,-4.6892,-4.6287,-4.603,-4.5883,-4.5883,-4.5883,-4.5883,-4.5883,-4.6104,-4.625,-4.625,-4.6434,-4.6471,-4.625,-4.6434,-4.6067,-4.5039,-4.5847,-4.581,-4.5039,-4.5626,-4.5883,0.0,0.0,-5.818,-5.8927,-5.9722,-6.075,-6.2328,-6.4567,-6.6549,-6.7393,-7.011,-7.2386,-7.2459,-7.378,-7.5139,-7.5983,-7.6093,-7.6093,-7.6093,-7.5432,-7.4625,-7.378,-7.1615,-7.0477,0.0,-7.2055,-7.2165,-7.1329,-7.1256,-7.0559,-6.8972,-6.8862,-6.8091,-6.6512,-6.6439,-6.5668,-6.4127,-6.4861,-6.4861,-6.409,-6.409,-6.409,-6.398,-6.1557,-6.0419,-6.0272,-5.8694,-5.7997,-5.7997,-5.7997,-5.7997,-5.7997,-5.7997,-5.7997,-5.7997,-5.7997,-5.7483,-5.6822,-5.6822,-5.6271,-5.5464,-5.4656,-5.4399,-5.4252,-5.3445,-5.3203,-5.3203,-5.3203,-5.3203,-5.3203,-5.3203,-5.3203,-5.3203,-5.3203,-5.2601,-5.1977,-5.1977,-5.0712,-4.961,-4.9574,-4.8893,-4.8306,-4.8306,-4.8306,-4.8306,-4.8306,-4.8306,-4.8306,-4.8306,-4.759,-4.7076,-4.7076,-4.6361,-4.5883,-4.5883,-4.5883,-4.5883,-4.5883,-4.6636,-4.7076,-4.7076,-4.7829,-4.7846,-4.7076,-4.781,-4.7462,-4.5883,-4.6672,-4.6636,-4.5847,-4.5883,-4.5883,0.0,0.0,-6.0566,-6.141,-6.2218,-6.3282,-6.4897,-6.6292,-6.7834,-6.9706,-7.011,-7.0257,-7.0807,-7.1798,-7.2577,-7.2899,-7.4698,-7.5909,-7.5395,-7.5065,-7.4001,-7.1615,-7.1064,0.0,0.0,0.0,0.0,-7.0477,-7.0,-6.9486,-6.8935,-6.7907,-6.7063,-6.6512,-6.5999,-6.5705,-6.5705,-6.5448,-6.5154,-6.4897,-6.3759,-6.2952,-6.2401,-6.1006,-6.0126,-5.9515,-5.8474,-5.7997,-5.7997,-5.7997,-5.7997,-5.7997,-5.7997,-5.7997,-5.7997,-5.7997,-5.7813,-5.7593,-5.7593,-5.7409,-5.7042,-5.6235,-5.6014,-5.5831,-5.5023,-5.4436,-5.3995,-5.3995,-5.3628,-5.3203,-5.3203,-5.3203,-5.3203,-5.3203,-5.3004,-5.2637,-5.2123,-5.1573,-5.1042,-5.0508,-5.0178,-4.9958,-4.9958,-4.9958,-4.9774,-4.9224,-4.8673,-4.8306,-4.8306,-4.8086,-4.7883,-4.7883,-4.7645,-4.7498,-4.7498,-4.7498,-4.7498,-4.7498,-4.7755,-4.7883,-4.7883,-4.8159,-4.8196,-4.7883,-4.8159,-4.7792,-4.6709,-4.748,-4.748,-4.6709,-4.7241,-4.7498,0.0,-6.163,-6.2622,-6.3135,-6.4347,-6.5668,-6.6696,-6.7981,-6.9265,-7.0257,-6.9853,-6.9302,-6.9229,-6.9449,-6.9706,-6.9963,-7.1505,-7.2789,-7.3156,-7.2679,-7.1762,-7.0293,-7.0036,-6.9412,0.0,0.0,0.0,-7.0,-6.9633,-6.9192,-6.8935,-6.7907,-6.7247,-6.6953,-6.6439,-6.6145,-6.6072,-6.5558,-6.5007,-6.4383,-6.3025,-6.2108,-6.1557,-6.0456,-5.9685,-5.9148,-5.8364,-5.7997,-5.7997,-5.7997,-5.7997,-5.7997,-5.7997,-5.7997,-5.7997,-5.7997,-5.7997,-5.7997,-5.7997,-5.7997,-5.7886,-5.7079,-5.6822,-5.6638,-5.5831,-5.5023,-5.4399,-5.4399,-5.3812,-5.3203,-5.3203,-5.3203,-5.3203,-5.3203,-5.3004,-5.2711,-5.2491,-5.1977,-5.1499,-5.1279,-5.0986,-5.0802,-5.0802,-5.0802,-5.0545,-4.9721,-4.9114,-4.8636,-4.8343,-4.8306,-4.8306,-4.8306,-4.8306,-4.8306,-4.8306,-4.8306,-4.8306,-4.8306,-4.8306,-4.8306,-4.8306,-4.8306,-4.8306,-4.8306,-4.8306,-4.803,-4.7516,-4.803,-4.8049,-4.7553,-4.8086,-4.8306,-6.1447,-6.3099,-6.4347,-6.4383,-6.6109,-6.7797,-6.7797,-6.9559,-7.0706,-6.9155,-6.9302,-6.9229,0.0,0.0,-6.6586,-6.7357,-6.7063,-6.7577,-6.9889,-6.8935,-6.8531,0.0,0.0,0.0,0.0,0.0,0.0,-6.9926,0.0,-6.9669,-6.8935,-6.8898,-6.8568,-6.7797,-6.7724,-6.6953,-6.5375,-6.5301,-6.442,-6.278,-6.2034,-6.163,-6.1557,-5.9979,-5.9221,-5.9148,-5.8364,-5.7997,-5.7997,-5.7997,-5.7997,-5.7997,-5.7997,-5.7997,-5.7997,-5.7997,-5.7997,-5.7997,-5.7997,-5.7997,-5.7886,-5.7116,-5.6859,-5.6712,-5.5941,-5.517,-5.4509,-5.4473,-5.3885,-5.324,-5.3203,-5.3203,-5.3203,-5.3203,-5.2637,-5.227,-5.3041,-5.2013,-5.1169,-5.1903,-5.1463,-5.0912,-5.0912,-5.0875,-5.0582,-4.9831,-4.9684,-4.9353,-4.8526,-4.8343,-4.8343,-4.8379,-4.8343,-4.8306,-4.8306,-4.8306,-4.8306,-4.8306,-4.8343,-4.8379,-4.8379,-4.8416,-4.8453,-4.8453,-4.8379,-4.8379,-4.8379,-4.8343,-4.8306,-4.8306,-4.8306,-4.8306,-6.5521,-6.688,-6.7834,-6.8421,-6.9009,-6.9486,-6.9486,-6.9486,-6.9229,-6.8201,-6.6219,-6.4163,0.0,0.0,0.0,-6.4861,-6.7871,0.0,-7.1725,-7.2055,0.0,-7.0257,0.0,-6.9926,-6.8715,-6.8421,0.0,0.0,-6.8972,-6.8458,-6.8898,-6.8898,-6.8825,-6.8605,-6.8017,-6.721,-6.6219,-6.5007,-6.387,-6.278,-6.2585,-6.2181,-6.1557,-6.0566,-5.9795,-5.9148,-5.8364,-5.7997,-5.7997,-5.7997,-5.7997,-5.7997,-5.7997,-5.7997,-5.7997,-5.7997,-5.7997,-5.7997,-5.7997,-5.7997,-5.796,-5.7776,-5.7703,-5.7666,-5.7446,-5.6822,-5.6051,-5.5464,-5.4693,-5.3959,-5.3371,-5.3203,-5.3203,-5.3203,-5.3041,-5.2968,-5.3188,-5.2873,-5.2674,-5.2858,-5.2747,-5.2601,-5.2601,-5.2087,-5.161,-5.1446,-5.0875,-5.0398,-5.0178,-4.9077,-4.8526,-4.9114,-4.8673,-4.8306,-4.8306,-4.8306,-4.8306,-4.8306,-4.8893,-4.9224,-4.9187,-4.9811,-5.0178,-5.0178,-4.9554,-4.928,-4.928,-4.8636,-4.8306,-4.8306,-4.8306,-4.8306,-6.8605,-6.9889,-7.0513,-7.0587,-7.0624,-7.0367,-6.9265,-6.8678,-6.7834,-6.5925,-6.3796,0.0,-5.9722,0.0,0.0,0.0,0.0,0.0,-7.0183,-7.077,-7.0954,0.0,-7.1027,0.0,-6.9559,-6.9449,-6.9596,0.0,-6.8935,-6.8421,-6.8898,-6.8898,-6.8752,-6.8385,-6.7944,-6.7136,-6.5999,-6.4347,-6.3282,-6.278,-6.2438,-6.1851,-6.1043,-6.0236,-5.9428,-5.8657,-5.8217,-5.7997,-5.7997,-5.7997,-5.7997,-5.7997,-5.7997,-5.7997,-5.7997,-5.7997,-5.7997,-5.7997,-5.7997,-5.7997,-5.7997,-5.7997,-5.7997,-5.7997,-5.7997,-5.7446,-5.6712,-5.6235,-5.528,-5.4289,-5.3849,-5.3482,-5.3203,-5.3203,-5.3203,-5.3203,-5.3203,-5.3203,-5.3203,-5.3203,-5.3203,-5.3115,-5.2747,-5.2601,-5.2417,-5.205,-5.161,-5.1463,-5.183,-5.0435,-4.9444,-4.9517,-4.915,-4.871,-4.8343,-4.8306,-4.8306,-4.8306,-4.8746,-4.9187,-4.9517,-4.9994,-5.0435,-5.0802,-5.0362,-4.9958,-4.961,-4.9444,-4.9224,-4.8893,-4.9224,-4.9224,-7.1174,-7.2312,-7.2642,-7.1982,-7.1651,-7.0844,-6.8421,-6.7504,-6.6329,-6.3135,0.0,-6.0456,-5.8253,-5.9171,-6.0162,-5.9881,0.0,-6.5191,-6.7944,-6.8238,-6.8972,-7.1211,-7.1468,-7.1211,-7.0477,-7.033,-7.0293,-7.0403,-6.9669,-6.9192,-6.9082,-6.8972,-6.8531,-6.7724,-6.7577,-6.6806,-6.5301,-6.3759,-6.289,-6.278,-6.2108,-6.1337,-6.0529,-5.9735,-5.8914,-5.8143,-5.8033,-5.7997,-5.7997,-5.7997,-5.7997,-5.7997,-5.7997,-5.7997,-5.7997,-5.7997,-5.7997,-5.7997,-5.7997,-5.7997,-5.7997,-5.7997,-5.7997,-5.7997,-5.7997,-5.7519,-5.6932,-5.6822,-5.5794,-5.4693,-5.4583,-5.3959,-5.3371,-5.3371,-5.3277,-5.3203,-5.3203,-5.3203,-5.3203,-5.3203,-5.3203,-5.3004,-5.227,-5.2747,-5.2968,-5.227,-5.216,-5.2417,-5.3115,-5.1793,-5.0582,-4.9978,-4.9831,-4.9444,-4.871,-4.8636,-4.8636,-4.8636,-4.8746,-4.9114,-4.9904,-5.0014,-5.0398,-5.1096,-5.1022,-5.0618,-4.9941,-5.0508,-5.0435,-4.9794,-5.0472,-5.0435,-7.3817,-7.4404,-7.4478,-7.4331,-7.3303,-7.1651,-6.9229,-6.6623,0.0,0.0,-5.9648,-5.829,-5.7226,-5.8327,-6.0272,-6.2842,0.0,0.0,0.0,0.0,-7.1101,0.0,0.0,0.0,-7.2092,-7.1505,0.0,0.0,-7.1358,-7.0587,-6.9926,-6.9265,-6.8531,-6.7724,-6.7026,-6.6256,-6.5301,-6.4347,-6.3503,-6.278,-6.2658,-6.2181,-6.1374,-6.0566,-5.9758,-5.8927,-5.829,0.0,-5.7997,-5.7997,-5.7997,-5.7997,-5.7997,-5.7997,-5.7997,-5.7997,-5.7997,-5.7997,-5.7997,-5.7997,-5.7997,-5.7997,-5.7997,-5.7997,-5.7997,-5.7886,-5.7666,-5.7005,-5.6602,-5.6235,-5.5537,-5.4803,-5.4179,-5.4179,-5.3702,-5.3203,-5.3203,-5.3203,-5.3203,-5.3203,-5.3203,-5.3188,-5.3041,-5.3115,-5.313,-5.3004,-5.3004,-5.3041,-5.3167,-5.1793,-5.0986,-5.1536,-5.0986,-5.0545,-5.0398,-5.0362,-5.0362,-5.0362,-5.0986,-5.1426,-5.1593,-5.2234,-5.2637,-5.2784,-5.2123,-5.172,-5.1593,-5.1059,-5.0729,-5.0582,-5.0729,-5.0729,-7.5836,-7.6136,-7.6026,-7.5652,-7.3707,-7.1138,-6.8311,0.0,0.0,0.0,-5.8547,-5.774,-5.6969,0.0,0.0,0.0,0.0,0.0,0.0,0.0,0.0,0.0,0.0,0.0,0.0,-7.2165,-7.2092,-7.2459,-7.1762,-7.0954,-7.0146,-6.8935,-6.8091,-6.7687,-6.6916,-6.6109,-6.5301,-6.4494,-6.3649,-6.278,-6.278,-6.2181,-6.097,-6.0566,-5.9722,-5.8547,-5.818,-5.7997,-5.7997,-5.7997,-5.7997,-5.7997,-5.7997,-5.7997,-5.7997,-5.7997,-5.7997,-5.7997,-5.7997,-5.7997,-5.7997,-5.7997,-5.7997,-5.7997,-5.7997,-5.7997,-5.7923,-5.7519,-5.7116,-5.6712,-5.6308,-5.5611,-5.5023,-5.5023,-5.4399,-5.3812,-5.3812,-5.3518,-5.3203,-5.3203,-5.3203,-5.3203,-5.3203,-5.3203,-5.3203,-5.3203,-5.3203,-5.3203,-5.3203,-5.2527,-5.205,-5.1977,-5.1646,-5.1242,-5.0839,-5.0802,-5.0802,-5.0802,-5.1169,-5.1573,-5.1977,-5.238,-5.2784,-5.3167,-5.2821,-5.2417,-5.1977,-5.205,-5.183,-5.1426,-5.1867,-5.183,-7.7127,-7.7273,-7.7127,-7.6533,-7.3817,-7.0513,-6.7467,-6.3943,0.0,0.0,-5.785,-5.7593,-5.7152,0.0,-5.9869,0.0,0.0,0.0,0.0,0.0,0.0,0.0,0.0,0.0,0.0,-7.2496,0.0,-7.2496,-7.1762,-7.0881,-6.9889,-6.8641,-6.7871,-6.7714,-6.71,-6.6292,-6.5301,-6.4677,-6.3833,-6.278,-6.278,-6.2071,-6.0676,-6.0676,-5.9795,-5.8253,-5.8253,-5.8143,-5.7997,-5.7997,-5.7997,-5.7997,-5.7997,-5.7997,-5.7997,-5.7997,-5.7997,-5.7997,-5.7997,-5.7997,-5.7997,-5.7997,-5.7997,-5.7997,-5.7997,-5.7997,-5.7997,-5.7997,-5.7556,-5.7079,-5.7079,-5.6455,-5.5794,-5.5647,-5.5097,-5.4656,-5.4656,-5.4179,-5.3702,-5.3702,-5.3702,-5.3665,-5.3482,-5.3482,-5.3387,-5.3203,-5.3203,-5.3203,-5.3203,-5.3203,-5.2968,-5.2307,-5.227,-5.2013,-5.1389,-5.1316,-5.1316,-5.1316,-5.1316,-5.161,-5.2234,-5.227,-5.2564,-5.3188,-5.3203,-5.2894,-5.227,-5.2894,-5.2894,-5.227,-5.2931,-5.2858,-7.7273,-7.7273,-7.7273,-7.72,-7.4191,-7.066,-6.8164,0.0,0.0,-5.8364,-5.7409,-5.7116,-5.7776,-5.807,-5.8914,0.0,0.0,-6.2291,0.0,0.0,0.0,0.0,0.0,0.0,0.0,-7.2496,-7.2496,-7.2496,-7.1762,-7.066,-6.9082,-6.8862,-6.8458,-6.7724,-6.7614,-6.6843,-6.5301,-6.5228,-6.4383,-6.278,-6.278,-6.2365,-6.1484,-6.1484,-6.0603,-5.9074,-5.9074,-5.8694,0.0,-5.7997,-5.7997,-5.7997,-5.7997,-5.7997,-5.7997,-5.7997,-5.7997,-5.7997,-5.7997,-5.7997,-5.7997,-5.7997,-5.7997,-5.7997,-5.7997,-5.7997,-5.7997,-5.7997,-5.796,-5.7886,-5.7886,-5.7299,-5.6528,-5.5757,-5.5559,-5.5486,-5.5486,-5.5449,-5.5354,-5.5354,-5.5354,-5.5133,-5.4436,-5.4289,-5.4032,-5.3314,-5.3203,-5.3203,-5.3203,-5.3203,-5.3167,-5.3093,-5.3115,-5.3078,-5.2983,-5.2983,-5.2983,-5.2983,-5.2983,-5.2983,-5.3115,-5.3115,-5.3093,-5.3203,-5.3203,-5.3188,-5.3115,-5.3188,-5.3188,-5.3115,-5.3167,-5.3188,-7.676,-7.7273,-7.7273,-7.7273,-7.3531,-6.9486,-6.8017,0.0,-5.9355,-5.8217,-5.774,-5.7629,-5.7923,-5.7593,-5.774,-5.9208,0.0,0.0,0.0,0.0,0.0,0.0,0.0,0.0,0.0,0.0,-7.2496,-7.2496,-7.2202,-7.1541,-7.0403,-6.9449,-6.8752,-6.8421,-6.7944,-6.7136,-6.6035,-6.5558,-6.4714,-6.3576,-6.3062,-6.2401,-6.1594,-6.1594,-6.0713,-5.9184,-5.9184,-5.8767,0.0,-5.7997,-5.7997,-5.7997,-5.7997,-5.7997,-5.7997,-5.7997,-5.7997,-5.7997,-5.7997,-5.7997,-5.7997,-5.7997,-5.7997,-5.7997,-5.7997,-5.7997,-5.7997,-5.7997,-5.7997,-5.7997,-5.7997,-5.7776,-5.7446,-5.7116,-5.6675,-5.6308,-5.6308,-5.5941,-5.5596,-5.5596,-5.5596,-5.55,-5.517,-5.5097,-5.4987,-5.4693,-5.4216,-5.3922,-5.3922,-5.3518,-5.3203,-5.3203,-5.3203,-5.3203,-5.3203,-5.3203,-5.3203,-5.3203,-5.3203,-5.3203,-5.3203,-5.3203,-5.3203,-5.3203,-5.3203,-5.3203,-5.3203,-5.3203,-5.3203,-5.3203,-5.3203,-5.3203,-7.5542,-7.676,-7.7273,-7.7273,-7.3266,-6.8972,0.0,0.0,-5.9281,-5.8217,-5.7997,-5.7997,-5.7997,-5.7556,-5.7336,0.0,0.0,-5.7446,-6.0786,0.0,0.0,0.0,0.0,-6.8788,0.0,-7.2092,-7.2496,-7.2496,-7.2496,-7.2275,-7.1688,-7.0367,-6.9412,-6.8935,-6.8128,-6.7283,-6.6512,-6.5925,-6.5118,-6.409,-6.3466,-6.2768,-6.1961,-6.1961,-6.1227,-5.9905,-5.9905,-5.9465,0.0,-5.8437,-5.8364,-5.8327,-5.8107,-5.7997,-5.7997,-5.7997,-5.7997,-5.7997,-5.7997,-5.7997,-5.7997,-5.7997,-5.7997,-5.7997,-5.7997,-5.7997,-5.7997,-5.7997,-5.7997,-5.7997,-5.7997,-5.7997,-5.7997,-5.7997,-5.7556,-5.7152,-5.7152,-5.6712,-5.6308,-5.6308,-5.6308,-5.6235,-5.5978,-5.5941,-5.5868,-5.5633,-5.5097,-5.4656,-5.4436,-5.3922,-5.3482,-5.3203,-5.3203,-5.3203,-5.3203,-5.3203,-5.3203,-5.3203,-5.3203,-5.3203,-5.3203,-5.3203,-5.3203,-5.3203,-5.3203,-5.3203,-5.3203,-5.3203,-5.3203,-5.3203,-5.3203,-5.3203,-7.3487,-7.5469,-7.7273,-7.7273,-7.367,-6.9669,0.0,0.0,-5.9942,-5.8327,-5.7997,-5.7997,-5.7997,-5.7997,-5.7997,-5.7997,-5.7997,0.0,-6.0199,0.0,0.0,0.0,0.0,-6.6292,-6.8715,-7.1101,-7.2496,-7.2496,-7.2496,0.0,-7.2496,-7.1725,-7.055,-6.8972,-6.8128,-6.7283,-6.6512,-6.6476,-6.5668,-6.409,-6.409,-6.3613,-6.2805,-6.2805,-6.2365,-6.1557,-6.1557,-6.1117,0.0,-5.9538,-5.9184,-5.9111,-5.8327,-5.7997,-5.7997,-5.7997,-5.7997,-5.7997,-5.7997,-5.7997,-5.7997,-5.7997,-5.7997,-5.7997,-5.7997,-5.7997,-5.7997,-5.7997,-5.7997,-5.7997,-5.7997,-5.7997,-5.7997,-5.7997,-5.7997,-5.7997,-5.7997,-5.796,-5.796,-5.796,-5.796,-5.7703,-5.6932,-5.6785,-5.6528,-5.5721,-5.5574,-5.528,-5.4509,-5.4399,-5.4069,-5.3277,-5.3203,-5.3203,-5.3203,-5.3203,-5.3203,-5.3203,-5.3203,-5.3203,-5.3203,-5.3203,-5.3203,-5.3203,-5.3203,-5.3203,-5.3203,-5.3203,-5.3203,-5.3203,-5.3203,-5.3203,-6.9082,-7.055,-7.1431,-7.0881,-6.7907,-6.4971,-6.4457,0.0,-5.8621,-5.8107,-5.7997,-5.7997,-5.7997,-5.7556,-5.7373,-5.7923,-5.7556,0.0,0.0,0.0,0.0,0.0,-6.8054,-7.0513,0.0,0.0,-7.2496,-7.2496,-7.2496,-7.2496,-7.2496,-7.1762,-7.1101,-7.0587,-6.9229,-6.8385,-6.8164,-6.7063,-6.6219,-6.5742,-6.464,-6.3943,-6.3686,-6.3062,-6.2365,-6.1594,-6.1594,-6.1153,-6.0346,-5.9515,-5.9184,-5.9111,-5.8327,-5.7997,-5.7997,-5.7997,-5.7997,-5.7997,-5.7997,-5.7997,-5.7997,-5.7997,-5.7997,-5.7997,-5.7997,-5.7997,-5.7997,-5.7997,-5.7997,-5.7997,-5.7997,-5.7997,-5.7997,-5.7997,-5.7997,-5.7997,-5.7997,-5.7997,-5.7997,-5.7997,-5.7997,-5.7923,-5.7666,-5.7629,-5.7519,-5.7262,-5.6785,-5.6345,-5.6088,-5.5574,-5.5097,-5.4876,-5.484,-5.4399,-5.3277,-5.3203,-5.3203,-5.3203,-5.3203,-5.3203,-5.3203,-5.3203,-5.3203,-5.3203,-5.3203,-5.3203,-5.3203,-5.3203,-5.3203,-5.3203,-5.3203,-5.3203,0.0,-6.7614,-6.8385,-6.8201,-6.5705,0.0,0.0,0.0,-5.8364,-5.807,-5.7997,-5.7997,-5.7997,-5.7593,-5.7409,-5.7923,-5.7593,0.0,0.0,0.0,0.0,-6.4494,0.0,0.0,0.0,-7.2532,-7.3156,-7.2569,-7.2789,-7.2826,-7.2532,-7.2018,-7.1762,-7.1762,-6.9926,-6.8898,-6.8898,-6.7614,-6.6806,-6.6476,-6.5191,-6.4383,-6.4053,-6.3209,-6.2548,-6.2034,-6.2034,-6.1594,0.0,-6.0309,-5.9758,-5.9148,-5.8657,-5.8253,-5.7997,-5.7997,-5.7997,-5.7997,-5.7997,-5.7997,-5.7997,-5.7997,-5.7997,-5.7997,-5.7997,-5.7997,-5.7997,-5.7997,-5.7997,-5.7997,-5.7997,-5.7997,-5.7997,-5.7997,-5.7997,-5.7997,-5.7997,-5.7997,-5.7997,-5.7997,-5.7997,-5.7997,-5.7997,-5.7997,-5.7997,-5.7997,-5.7556,-5.7152,-5.6859,-5.6345,-5.5941,-5.5633,-5.5596,-5.517,-5.4179,-5.3849,-5.3518,-5.3203,-5.3203,-5.3203,-5.3203,-5.3203,-5.3203,-5.3203,-5.3203,-5.3203,-5.3203,-5.3203,-5.3203,-5.3203,-5.3203,-5.3203,0.0,0.0,0.0,0.0,0.0,0.0,0.0,0.0,0.0,-5.8143,-5.7997,-5.7997,-5.7997,-5.7997,-5.796,-5.7923,-5.796,0.0,0.0,-6.0015,0.0,0.0,-6.7871,0.0,-6.9155,-7.2496,-7.4147,-7.2679,-7.323,-7.3303,-7.2532,-7.2496,-7.2496,-7.2496,-7.022,-6.9009,-6.9009,-6.8128,-6.732,-6.6549,-6.5705,-6.4897,-6.4127,-6.3209,-6.278,0.0,-6.278,-6.2401,-6.1667,-6.1557,-6.0639,-5.9258,-5.9148,-5.8657,-5.7997,-5.7997,-5.7997,-5.7997,-5.7997,-5.7997,-5.7997,-5.7997,-5.7997,-5.7997,-5.7997,-5.7997,-5.7997,-5.7997,-5.7997,-5.7997,-5.7997,-5.7997,-5.7997,-5.7997,-5.7997,-5.7997,-5.7997,-5.7997,-5.7997,-5.7997,-5.7997,-5.7997,-5.7997,-5.7997,-5.7997,-5.7997,-5.7997,-5.774,-5.6969,-5.6895,-5.6602,-5.5831,-5.578,-5.5757,-5.5684,-5.495,-5.4179,-5.3445,-5.335,-5.335,-5.335,-5.3314,-5.3277,-5.3277,-5.3277,-5.3277,-5.3277,-5.3277,-5.324,-5.3203,-5.3203,-5.3203,-6.0236,0.0,-6.1117,-6.0676,-5.9979,-5.9391,0.0,0.0,0.0,0.0,0.0,0.0,0.0,0.0,-5.7813,-5.7189,0.0,0.0,-5.7446,0.0,0.0,-6.7467,-7.0257,-7.1615,-7.0807,-7.2165,-7.3156,-7.3377,-7.301,-7.2716,-7.2496,-7.2496,-7.2496,-7.2496,-7.077,-6.9816,-6.9816,-6.8385,-6.7614,-6.7393,-6.5999,-6.5191,-6.4971,-6.3503,-6.278,-6.278,-6.278,-6.267,-6.2438,-6.119,-6.0456,-6.0015,-5.8767,-5.818,-5.7997,-5.7997,-5.7997,-5.7997,-5.7997,-5.7997,-5.7997,-5.7997,-5.7997,-5.7997,-5.7997,-5.7997,-5.7997,-5.7997,-5.7997,-5.7997,-5.7997,-5.7997,-5.7997,-5.7997,-5.7997,-5.7997,-5.7997,-5.7997,-5.7997,-5.7997,-5.7997,-5.7997,-5.7997,-5.7997,-5.7997,-5.7997,-5.7997,-5.7923,-5.774,-5.7703,-5.7666,-5.7446,-5.7446,-5.7189,-5.6565,-5.5794,-5.5244,-5.506,-5.5023,-5.5023,-5.5023,-5.4436,-5.4106,-5.4106,-5.4106,-5.4106,-5.4106,-5.4106,-5.3812,-5.3203,-5.3203,-5.3203,-5.8547,-5.8657,-5.8621,-5.8584,-5.8253,-5.7997,-5.7997,0.0,0.0,0.0,0.0,0.0,0.0,0.0,0.0,0.0,-5.7189,0.0,0.0,0.0,-6.5191,-6.8017,-7.0146,-7.1651,0.0,-7.312,-7.3634,-7.3707,-7.3303,-7.2899,-7.2532,-7.2496,-7.2496,-7.2496,-7.1321,-7.0477,-7.011,-6.8495,-6.7687,-6.7677,-6.6072,-6.5301,-6.5264,-6.3551,-6.278,-6.278,-6.278,-6.2585,-6.2218,-6.1704,-6.086,-5.9795,-5.9318,-5.8877,-5.8547,-5.8547,-5.8547,-5.8547,-5.8547,-5.8327,-5.7997,-5.7997,-5.7997,-5.7997,-5.7997,-5.7997,-5.7997,-5.7997,-5.7997,-5.7997,-5.7997,-5.7997,-5.7997,-5.7997,-5.7997,-5.7997,-5.7997,-5.7997,-5.7997,-5.7997,-5.7997,-5.7997,-5.7997,-5.7997,-5.7997,-5.7997,-5.7997,-5.7997,-5.7997,-5.7997,-5.7997,-5.7997,-5.7997,-5.7813,-5.7409,-5.6932,-5.6381,-5.5669,-5.5596,-5.5596,-5.5596,-5.517,-5.495,-5.495,-5.495,-5.4766,-5.4399,-5.4766,-5.4546,-5.3775,-5.4142,-5.4289,-5.8033,-5.8107,-5.8327,-5.8854,-5.851,-5.7997,-5.7997,0.0,0.0,0.0,0.0,0.0,0.0,-5.6895,0.0,0.0,0.0,0.0,-6.0786,-6.2548,-6.464,-6.754,-6.9412,0.0,-7.3156,-7.4074,-7.4294,-7.3744,-7.3597,-7.323,-7.2532,-7.2496,-7.2496,-7.2496,-7.1615,-7.0807,-7.011,-6.8605,-6.7797,-6.7677,-6.6072,-6.5301,-6.5264,-6.3551,-6.278,-6.278,-6.278,0.0,-6.1814,-6.2401,-6.1386,-5.9588,-6.0052,-5.9795,-5.9184,-5.9184,-5.9111,-5.9001,-5.9001,-5.8584,-5.7997,-5.7997,-5.7997,-5.7997,-5.7997,-5.7997,-5.7997,-5.7997,-5.7997,-5.7997,-5.7997,-5.7997,-5.7997,-5.7997,-5.7997,-5.8033,-5.8143,-5.8107,-5.807,-5.8327,-5.818,-5.8033,-5.8143,-5.807,-5.7997,-5.7997,-5.7997,-5.7997,-5.7997,-5.7997,-5.7997,-5.7997,-5.7997,-5.7997,-5.7997,-5.7997,-5.7409,-5.6051,-5.5978,-5.5904,-5.5794,-5.5757,-5.5757,-5.5757,-5.5757,-5.539,-5.4583,-5.5244,-5.5097,-5.4252,-5.5023,-5.5427,-5.818,-5.851,-5.8854,-5.8327,-5.8107,-5.7997,-5.7997,0.0,0.0,0.0,0.0,0.0,0.0,-5.7373,-5.7373,0.0,0.0,-6.0175,0.0,0.0,-6.7393,-6.8568,0.0,-7.2018,-7.1725,-7.2422,-7.3083,-7.367,-7.3083,-7.2642,-7.2496,-7.2496,-7.2496,-7.2496,-7.1064,-7.022,-7.011,-6.9192,-6.8385,-6.7677,-6.6072,-6.5301,-6.5264,-6.3551,-6.278,-6.278,0.0,-6.2732,-6.2585,-6.1998,-6.1557,-6.1117,-5.9869,-5.9294,-5.9184,-5.9184,-5.8767,-5.818,-5.818,-5.8107,-5.7997,-5.7997,-5.7997,-5.7997,-5.7997,-5.7997,-5.7997,-5.7997,-5.7997,-5.7997,-5.7997,-5.7997,-5.7997,-5.7997,-5.7997,-5.818,-5.8877,-5.8474,-5.84,-5.9758,-5.8914,-5.8217,-5.8914,-5.8437,-5.7997,-5.7997,-5.7997,-5.7997,-5.7997,-5.7997,-5.7997,-5.7997,-5.7997,-5.7997,-5.7997,-5.7997,-5.7886,-5.7629,-5.7629,-5.7336,-5.6638,-5.6638,-5.6638,-5.6638,-5.6638,-5.6235,-5.5427,-5.5559,-5.484,-5.3387,-5.4216,-5.4583,-5.8107,-5.8253,-5.8474,-5.8107,-5.8327,-5.8547,0.0,0.0,0.0,0.0,0.0,0.0,0.0,0.0,-5.7556,-5.8107,0.0,-6.13,-6.3613,-6.4604,-6.5852,0.0,0.0,-7.0624,-7.2422,-7.2532,-7.2826,-7.3634,-7.2936,-7.2496,-7.2496,-7.2092,-7.1872,-7.1872,-7.0697,-6.9889,-6.9449,-6.9082,-6.8495,-6.7687,-6.6512,-6.5742,-6.5264,-6.4053,-6.3246,-6.278,0.0,-6.278,-6.2743,-6.2401,-6.1998,-6.152,-6.0786,-6.0236,-5.9795,-5.9368,-5.8964,-5.8584,-5.8143,-5.829,-5.8584,-5.8143,-5.829,-5.8584,-5.8143,-5.7997,-5.7997,-5.7997,-5.7997,-5.7997,-5.7997,-5.7997,-5.7997,-5.7997,-5.7997,-5.8107,-5.8474,-5.8253,-5.8217,-5.8951,-5.851,-5.8107,-5.851,-5.8253,-5.7997,-5.7997,-5.7997,-5.7997,-5.7997,-5.7997,-5.7997,-5.7997,-5.7997,-5.7997,-5.7997,-5.7997,-5.7997,-5.7997,-5.7997,-5.7813,-5.7446,-5.7446,-5.7446,-5.7446,-5.7446,-5.7042,-5.6235,-5.6675,-5.6308,-5.517,-5.5978,-5.6345,-5.8033,-5.8143,-5.8253,-5.8033,0.0,0.0,0.0,0.0,0.0,0.0,0.0,0.0,0.0,-5.7079,0.0,-6.0309,-6.152,-6.2511,-6.3539,-6.3991,-6.5228,-6.7944,-6.8421,-6.9816,-7.3083,-7.2863,-7.2753,-7.3377,-7.2863,-7.2496,-7.2496,-7.1762,-7.1293,-7.1293,-7.033,-6.9522,-6.8898,-6.8715,-6.8311,-6.7687,-6.6696,-6.5888,-6.5264,-6.4273,-6.3429,-6.278,-6.278,-6.278,-6.278,-6.278,-6.2438,-6.1851,-6.1667,-6.1227,-6.0566,-5.9795,-5.9588,-5.9648,-5.8841,-5.8988,-5.9368,-5.8767,-5.8841,-5.9074,-5.8474,-5.8143,-5.8033,-5.8217,-5.829,-5.829,-5.829,-5.8437,-5.8547,-5.8547,-5.8547,-5.8621,-5.8804,-5.8694,-5.8657,-5.9061,-5.8657,-5.8327,-5.8547,-5.8253,-5.7997,-5.7997,-5.7997,-5.7997,-5.7997,-5.7997,-5.7997,-5.7997,-5.7997,-5.7997,-5.7997,-5.7997,-5.7997,-5.7997,-5.7997,-5.7997,-5.7997,-5.7997,-5.7997,-5.7997,-5.7997,-5.7593,-5.6822,-5.7409,-5.7299,-5.6528,-5.7336,-5.7703,-5.8217,-5.8547,-5.8927,-5.818,-5.8033,0.0,-5.7997,-5.8584,0.0,-5.9111,0.0,0.0,0.0,-5.7923,-5.8694,-6.1117,-6.2879,-6.4457,-6.5999,0.0,-6.8825,-6.9816,-7.0587,-7.1468,-7.2496,-7.2532,-7.2532,-7.2569,-7.2532,-7.2496,-7.2496,-7.1762,-7.1293,-7.1293,-6.9816,-6.8972,-6.8898,-6.8164,-6.7787,-6.7677,-6.6145,-6.5375,-6.5264,-6.3624,-6.2853,-6.278,-6.278,-6.278,-6.278,-6.278,-6.2743,-6.2658,-6.1887,-6.1557,-6.141,-6.0603,-6.0786,-6.13,-6.0529,-6.0272,-6.0309,-6.0236,-5.9758,-5.9184,-5.9111,-5.8584,-5.8143,-5.8891,-5.9111,-5.9111,-5.9111,-5.9685,-6.0236,-6.0236,-6.0236,-6.0419,-6.119,-6.075,-6.0676,-6.2181,-6.0652,-5.9331,-6.0089,-5.8988,-5.7997,-5.7997,-5.7997,-5.7997,-5.7997,-5.7997,-5.7997,-5.7997,-5.7997,-5.7997,-5.7997,-5.7997,-5.7997,-5.7997,-5.7997,-5.7997,-5.7997,-5.7997,-5.7997,-5.7997,-5.7997,-5.7593,-5.6822,-5.6859,-5.6455,-5.5706,-5.6528,-5.6895,-5.807,-5.8217,-5.84,-5.807,-5.7997,0.0,0.0,-5.9391,-5.9795,-5.9294,-5.9588,0.0,0.0,0.0,-6.0126,-6.2034,-6.3759,-6.5228,-6.6329,-6.743,-6.8458,-6.9265,-7.0073,-7.0881,-7.1688,-7.2202,-7.2496,-7.2496,-7.2496,-7.2496,-7.2496,-7.1248,-7.055,-7.055,-6.8972,-6.8128,-6.8128,-6.7834,-6.743,-6.6953,-6.6329,-6.5778,-6.5264,-6.4127,-6.3319,-6.278,-6.278,-6.278,-6.278,-6.278,-6.278,-6.2707,-6.1924,-6.1594,-6.1484,-6.0713,-6.0603,-6.0823,-6.0529,-6.075,-6.097,-5.9979,-5.9771,-5.9758,-5.8767,-5.8584,-5.8804,-5.9111,-5.9942,-6.0566,-6.0089,-6.0162,-6.0419,-6.0419,-6.0419,-6.0493,-6.0786,-6.0603,-6.0603,-6.119,-6.0566,-6.0052,-6.0346,-5.9905,-5.9318,-5.8841,-5.8767,-5.8584,-5.807,-5.7997,-5.7997,-5.7997,-5.7997,-5.7997,-5.7997,-5.7997,-5.7997,-5.7997,-5.7997,-5.7997,-5.7997,-5.7997,-5.7997,-5.7997,-5.7997,-5.785,-5.7556,-5.7556,-5.7373,-5.7079,-5.7409,-5.7556,-5.7997,-5.7997,-5.7997,-5.7997,0.0,0.0,-5.9355,-6.0199,-6.0676,-6.0395,-6.0566,-6.0529,-5.9735,0.0,0.0,0.0,-6.3833,-6.5301,-6.6366,-6.6953,-6.7687,-6.8788,-6.9376,-7.0036,-7.0844,-7.1651,-7.2018,-7.1762,-7.1982,-7.2018,-7.1762,-7.044,-6.9706,-6.9706,-6.8385,-6.7687,-6.7687,-6.743,-6.7026,-6.6476,-6.5999,-6.5448,-6.4897,-6.4053,-6.3356,-6.278,-6.278,-6.278,-6.278,-6.278,-6.278,-6.2743,-6.2181,-6.1998,-6.1924,-6.1374,-6.1006,-6.0823,-6.108,-6.1337,-6.1447,-6.0615,-6.0566,-6.0566,-5.9465,-5.9355,-5.9648,-5.9905,-6.075,-6.152,-6.1227,-6.1153,-6.1153,-6.1153,-6.1153,-6.1153,-6.1153,-6.1153,-6.1153,-6.1153,-6.097,-6.0786,-6.0786,-6.0566,-6.0236,-5.9685,-5.9588,-5.9281,-5.8474,-5.84,-5.829,-5.8033,-5.7997,-5.7997,-5.7997,-5.7997,-5.7997,-5.7997,-5.7997,-5.7997,-5.7997,-5.7997,-5.7997,-5.7997,-5.7997,-5.7997,-5.7997,-5.7997,-5.7997,-5.7997,-5.7997,-5.7997,-5.7997,-5.7997,-5.7997,0.0,0.0,0.0,-6.0015,-6.1006,-6.1814,-6.2658,-6.2144,-6.1374,-6.0566,-6.0419,0.0,-6.1484,-6.2989,-6.464,-6.6256,-6.6476,-6.7063,-6.8678,-6.8898,-6.9229,-7.0,-7.0844,-7.0991,-7.0183,-7.0844,-7.0954,-7.0146,-6.9339,-6.8898,-6.8898,-6.8091,-6.7677,-6.7677,-6.688,-6.6476,-6.6439,-6.4861,-6.409,-6.4053,-6.3209,-6.278,-6.278,-6.278,-6.278,-6.278,-6.278,-6.278,-6.278,-6.278,-6.278,-6.278,-6.278,-6.2291,-6.1741,-6.2511,-6.2291,-6.1741,-6.2548,-6.2254,-6.1594,-6.1594,-6.1043,-6.0566,-6.1374,-6.1594,-6.1777,-6.2585,-6.278,-6.278,-6.278,-6.278,-6.278,-6.278,-6.278,-6.278,-6.278,-6.2144,-6.1594,-6.1594,-6.0933,-6.0419,-6.0419,-6.0382,-6.0126,-5.9294,-5.9184,-5.8854,-5.8107,-5.7997,-5.7997,-5.7997,-5.7997,-5.7997,-5.7997,-5.7997,-5.7997,-5.7997,-5.7997,-5.7997,-5.7997,-5.7997,-5.7997,-5.7997,-5.7997,-5.7997,-5.7997,-5.7997,-5.7997,-5.7997,-5.7997,0.0,-5.7997,0.0,0.0,0.0,-6.0566,0.0,0.0,-6.2144,-6.152,-6.13,-6.1227,0.0,-6.1557,-6.2989,-6.4273,-6.4751,-6.5301,-6.6035,-6.71,-6.7687,-6.8568,-6.9963,-7.0844,-7.1468,-7.1762,-7.1505,-7.1183,-7.0954,-6.9633,-6.8641,-6.8054,-6.7283,-6.6586,-6.6035,-6.5778,-6.5375,-6.4787,-6.431,-6.409,-6.4053,-6.3209,-6.278,-6.278,-6.278,-6.278,-6.278,-6.278,-6.278,-6.278,-6.278,-6.278,-6.278,-6.278,-6.2658,-6.2475,-6.2707,-6.2658,-6.2401,-6.2071,-6.1777,-6.1484,-6.0933,-6.097,-6.13,-6.152,-6.1998,-6.2511,-6.2768,-6.278,-6.278,-6.278,-6.278,-6.278,-6.278,-6.278,-6.278,-6.278,-6.2622,-6.2438,-6.2438,-6.1777,-6.1043,-6.0493,-5.9942,-5.9281,-5.8474,-5.8364,-5.8253,-5.8033,-5.7997,-5.7997,-5.7997,-5.7997,-5.7997,-5.7997,-5.7997,-5.7997,-5.7997,-5.7997,-5.7997,-5.7997,-5.7997,-5.7997,-5.7997,-5.7997,-5.7997,-5.7997,-5.7997,-5.7997,-5.7997,-5.7997,0.0,-5.84,-5.8841,-5.9404,-6.0236,0.0,0.0,0.0,0.0,-6.2071,-6.2071,-6.1557,0.0,-6.1557,-6.2438,-6.3319,-6.4016,-6.453,-6.5228,-6.6366,-6.6916,-6.7871,-6.9486,-7.0367,-7.1027,-7.1505,-7.1101,-7.0697,-7.0367,-6.8825,-6.7724,-6.7247,-6.6439,-6.5778,-6.5301,-6.4971,-6.4567,-6.409,-6.3759,-6.3576,-6.3576,-6.3062,-6.278,-6.278,-6.278,-6.278,-6.278,-6.278,-6.278,-6.278,-6.278,-6.278,-6.278,-6.278,-6.2622,-6.2365,-6.2695,-6.2585,-6.2291,-6.2144,-6.2071,-6.1998,-6.152,-6.1704,-6.2071,-6.2071,-6.2438,-6.278,-6.278,-6.278,-6.278,-6.278,-6.278,-6.278,-6.278,-6.278,-6.278,-6.278,-6.278,-6.278,-6.278,-6.2144,-6.152,-6.1374,-6.0419,-5.9391,-5.8584,-5.8217,-5.7997,-5.7997,-5.7997,-5.7997,-5.7997,-5.7997,-5.7997,-5.7997,-5.7997,-5.7997,-5.7997,-5.7997,-5.7997,-5.7997,-5.7997,-5.7997,-5.7997,-5.7997,-5.7997,-5.7997,-5.7997,-5.7997,-5.8033,-5.8033,0.0,-5.9001,-5.9294,0.0,-6.0456,-6.2365,-6.4127,-6.4751,0.0,-6.2879,-6.2622,-6.152,-6.0823,-6.1484,-6.1594,-6.2144,-6.3759,-6.3906,-6.4457,-6.6072,-6.6329,-6.7026,-6.8641,-6.9596,-7.011,-7.011,-7.011,-6.9743,-6.8935,-6.7357,-6.6476,-6.6402,-6.5632,-6.5154,-6.5081,-6.4347,-6.398,-6.398,-6.3172,-6.278,-6.278,-6.278,-6.278,-6.278,-6.278,-6.278,-6.278,-6.278,-6.278,-6.278,-6.278,-6.278,-6.278,-6.278,-6.2365,-6.1814,-6.2548,-6.2328,-6.1814,-6.2585,-6.278,-6.278,-6.278,-6.278,-6.278,-6.278,-6.278,-6.278,-6.278,-6.278,-6.278,-6.278,-6.278,-6.278,-6.278,-6.278,-6.278,-6.278,-6.278,-6.278,-6.278,-6.2144,-6.1814,-6.2401,-6.1227,-6.0015,-5.9184,-5.8437,-5.7997,-5.7997,-5.7997,-5.7997,-5.7997,-5.7997,-5.7997,-5.7997,-5.7997,-5.7997,-5.7997,-5.7997,-5.7997,-5.7997,-5.7997,-5.7997,-5.7997,-5.7997,-5.7997,-5.7997,-5.7997,-5.7997,-5.818,-5.8474,0.0,0.0,-6.0162,-6.13,-6.2108,-6.2695,-6.2768,-6.1704,-6.2732,-6.3209,-6.13,-6.1667,-6.2144,-6.1667,-6.1594,-6.1961,-6.2952,-6.2548,-6.2732,-6.442,-6.5191,-6.6182,-6.7797,-6.9265,-7.011,-7.011,-7.011,-6.9743,-6.8935,-6.7357,-6.6219,-6.5595,-6.4787,-6.4016,-6.333,-6.3172,-6.3099,-6.3099,-6.289,-6.278,-6.278,-6.278,-6.278,-6.278,-6.278,-6.278,-6.278,-6.278,-6.278,-6.278,-6.278,-6.278,-6.278,-6.278,-6.2695,-6.2585,-6.2768,-6.2695,-6.2585,-6.2743,-6.278,-6.278,-6.278,-6.278,-6.278,-6.278,-6.278,-6.278,-6.278,-6.278,-6.278,-6.278,-6.278,-6.278,-6.278,-6.278,-6.278,-6.278,-6.278,-6.278,-6.278,-6.2144,-6.1227,-6.0138,-5.9661,-5.9171,-5.8364,-5.8107,-5.7997,-5.7997,-5.7997,-5.7997,-5.7997,-5.7997,-5.7997,-5.7997,-5.7997,-5.7997,-5.7997,-5.7997,-5.7997,-5.7997,-5.7997,-5.7997,-5.7997,-5.7997,-5.7997,-5.7997,-5.7997,-5.7997,-5.8217,0.0,0.0,-6.0162,0.0,-6.2181,-6.2218,-6.2218,-6.1777,-6.0162,-6.1484,-6.2401,-6.0713,-6.0786,-6.108,-6.1043,-6.0713,-6.075,-6.1557,-6.163,-6.2071,-6.3319,-6.4237,-6.5521,-6.7504,-6.8458,-6.9265,-7.0036,-6.9743,-6.9339,-6.8935,-6.7026,-6.5742,-6.5301,-6.4127,-6.3282,-6.278,-6.278,-6.2622,-6.2218,-6.2218,-6.2034,-6.1704,-6.245,-6.278,-6.278,-6.278,-6.278,-6.278,-6.278,-6.2585,-6.2254,-6.2658,-6.2585,-6.2291,-6.2658,-6.278,-6.278,-6.278,-6.2548,-6.2291,-6.267,-6.2548,-6.2291,-6.2695,-6.278,-6.278,-6.278,-6.278,-6.278,-6.278,-6.278,-6.278,-6.278,-6.278,-6.278,-6.278,-6.278,-6.278,-6.278,-6.278,-6.278,-6.278,-6.2475,-6.163,-6.0015,-5.9795,-5.9501,-5.8694,-5.8253,-5.7997,-5.7997,-5.7997,-5.7997,-5.7997,-5.7997,-5.8143,-5.8547,-5.8217,-5.8364,-5.9134,-5.8767,-5.84,-5.7997,-5.84,-5.8584,-5.8584,-5.8951,-5.8951,-5.8584,-5.8584,-5.8364,0.0,0.0,-5.9771,-6.141,-6.2218,0.0,-6.1741,-6.1484,-6.097,-5.9478,-6.0382,-6.108,-6.0162,-5.9685,-5.9588,-6.0126,-5.9648,-5.9478,-6.0309,-6.086,-6.1557,-6.2475,-6.3356,-6.4751,-6.7063,-6.754,-6.8238,-6.9596,-6.9082,-6.8641,-6.8495,-6.6329,-6.5081,-6.5081,-6.3613,-6.2732,-6.2585,-6.2585,-6.2181,-6.1374,-6.1374,-6.1043,-6.0456,-6.1777,-6.2475,-6.2622,-6.2768,-6.278,-6.278,-6.278,-6.2401,-6.1851,-6.2548,-6.2401,-6.1887,-6.2548,-6.278,-6.278,-6.278,-6.2365,-6.1924,-6.2585,-6.2365,-6.1924,-6.2622,-6.278,-6.278,-6.278,-6.278,-6.278,-6.278,-6.278,-6.278,-6.278,-6.278,-6.278,-6.278,-6.278,-6.278,-6.278,-6.278,-6.278,-6.278,-6.278,-6.2328,-6.0823,-6.0603,-6.0272,-5.9294,-5.8621,-5.8143,-5.7997,-5.7997,-5.7997,-5.7997,-5.7997,-5.8327,-5.9148,-5.8584,-5.8877,-6.0346,-5.9735,-5.9098,-5.8437,-5.9098,-5.9331,-5.9184,-5.9869,-5.9795,-5.9001,-5.9148,-5.8767,0.0,0.0,0.0,0.0,-6.2218,-6.1741,0.0,0.0,-6.0309,0.0,-5.9942,-6.0089,-5.8584,-5.9391,-6.0052,-5.9441,-5.9258,-5.9478,-6.0309,-5.9905,-6.0089,-6.1594,-6.2475,-6.3686,-6.5448,-6.688,-6.7787,-6.7981,-6.7907,-6.754,-6.6843,-6.5191,-6.4237,-6.4237,-6.3319,-6.2475,-6.1777,-6.1741,-6.1374,-6.0566,-6.0566,-6.0493,-6.0419,-6.0639,-6.1117,-6.1777,-6.2511,-6.278,-6.278,-6.278,-6.2768,-6.2658,-6.2768,-6.2732,-6.2658,-6.2768,-6.278,-6.278,-6.278,-6.2732,-6.2658,-6.2743,-6.2732,-6.2658,-6.2743,-6.278,-6.278,-6.278,-6.278,-6.278,-6.278,-6.278,-6.278,-6.278,-6.278,-6.278,-6.278,-6.278,-6.278,-6.278,-6.278,-6.278,-6.278,-6.278,-6.2511,-6.1594,-6.1447,-6.0896,-5.9368,-5.9111,-5.8767,-5.807,-5.7997,-5.7997,-5.7997,-5.7997,-5.8327,-5.9148,-5.9074,-5.9465,-6.0382,-6.0309,-6.0199,-6.0089,-6.0199,-5.9905,-5.9184,-5.9294,-5.8951,-5.818,-5.8877,-5.8767,-6.0639,0.0,0.0,0.0,0.0,0.0,0.0,0.0,-6.0052,-5.8804,-5.8804,-5.8841,-5.8143,-5.8584,-5.8951,-5.8584,-5.8547,-5.8657,-5.9024,-5.9134,-5.9441,-6.0162,-6.1374,-6.2585,-6.3796,-6.4971,-6.5852,-6.6329,-6.6366,-6.6219,-6.5852,-6.4714,-6.409,-6.409,-6.2805,-6.1961,-6.1594,-6.1153,-6.0529,-5.9722,-5.9281,-5.9061,-5.9061,-5.9538,-6.0419,-6.1594,-6.152,-6.1998,-6.2743,-6.2328,-6.2144,-6.2144,-6.2144,-6.2144,-6.2144,-6.2144,-6.2401,-6.278,-6.278,-6.2511,-6.2144,-6.2144,-6.1814,-6.1557,-6.1998,-6.2144,-6.2218,-6.267,-6.278,-6.278,-6.278,-6.278,-6.278,-6.278,-6.278,-6.278,-6.278,-6.278,-6.278,-6.278,-6.278,-6.278,-6.278,-6.278,-6.2695,-6.2328,-6.1887,-6.1337,-6.0639,-5.9735,-5.9038,-5.8731,-5.8253,-5.7997,-5.7997,-5.7997,-5.8547,-5.9795,-5.9441,-5.9955,-6.1667,-6.13,-6.1263,-6.1741,-6.13,-6.0896,-6.0529,-6.0529,-6.0346,-6.0015,-5.9942,-5.9685,0.0,0.0,0.0,0.0,0.0,0.0,0.0,0.0,-5.9722,0.0,-5.7997,-5.7997,-5.7997,-5.7997,-5.7997,-5.7997,-5.7997,-5.7997,-5.7997,-5.851,-5.8964,-5.9184,-6.0272,-6.1374,-6.2401,-6.3282,-6.4127,-6.4934,-6.5007,-6.5007,-6.5007,-6.4016,-6.3466,-6.3466,-6.2034,-6.119,-6.1006,-6.0382,-5.9771,-5.9184,-5.8584,-5.8217,-5.8033,-5.8621,-5.9685,-6.097,-6.0566,-6.119,-6.2438,-6.163,-6.141,-6.1557,-6.1374,-6.13,-6.13,-6.13,-6.1667,-6.2218,-6.2218,-6.1924,-6.1557,-6.1374,-6.119,-6.108,-6.1484,-6.1741,-6.2034,-6.2658,-6.278,-6.278,-6.278,-6.278,-6.278,-6.278,-6.278,-6.278,-6.278,-6.278,-6.278,-6.278,-6.278,-6.278,-6.278,-6.278,-6.278,-6.278,-6.2291,-6.1814,-6.163,-6.0566,-5.9735,-5.9515,-5.8804,-5.829,-5.829,-5.8107,-5.8694,-6.0309,-5.9832,-6.0505,-6.2707,-6.2218,-6.2181,-6.278,-6.2218,-6.1814,-6.1594,-6.1594,-6.1484,-6.13,-6.0896,-6.0603,0.0,0.0,0.0,0.0,0.0,0.0,0.0,0.0,0.0,-5.818,-5.7997,-5.7997,-5.7997,-5.7997,-5.7997,-5.7997,-5.7997,-5.7997,-5.7997,-5.8033,-5.8364,-5.9111,-5.9258,-5.9942,-6.152,-6.2401,-6.3246,-6.409,-6.4163,-6.4163,-6.4163,-6.2622,-6.1741,-6.1741,-6.0896,-6.0126,-5.9331,-5.9258,-5.9221,-5.9184,-5.9148,-5.8767,-5.7997,-5.8033,-5.851,-5.9368,-6.0089,-6.0896,-6.1594,-6.0786,-6.0896,-6.152,-6.075,-6.0456,-6.0456,-6.0456,-6.0493,-6.0529,-6.0529,-6.1006,-6.1484,-6.0713,-6.1484,-6.2548,-6.1814,-6.2144,-6.2743,-6.278,-6.278,-6.278,-6.278,-6.278,-6.278,-6.278,-6.278,-6.278,-6.278,-6.278,-6.278,-6.278,-6.278,-6.278,-6.278,-6.278,-6.278,-6.278,-6.2743,-6.2475,-6.1704,-6.152,-6.119,-6.0419,-5.9625,-5.9148,-5.9148,-5.8437,-5.8694,-6.0309,-6.0382,-6.108,-6.2732,-6.2768,-6.2768,-6.278,-6.2768,-6.2365,-6.1594,-6.1594,-6.119,-6.0493,-6.119,-6.1117,0.0,0.0,0.0,0.0,0.0,0.0,0.0,0.0,-5.8964,-5.818,-5.7997,-5.7997,-5.7997,-5.7997,-5.7997,-5.7997,-5.7997,-5.7997,-5.7997,-5.7997,-5.8107,-5.84,-5.8914,-5.9404,-6.0015,-6.0786,-6.141,-6.1704,-6.2181,-6.2475,-6.2475,-6.1924,-6.1594,-6.1594,-6.0309,-5.9478,-5.9184,-5.8694,-5.8694,-5.9184,-5.8694,-5.829,-5.7997,-5.7997,-5.8143,-5.8437,-5.8731,-5.9612,-6.0786,-5.9979,-6.0126,-6.075,-5.9942,-5.9942,-6.0346,-5.9808,-5.9979,-6.0419,-6.0419,-6.0933,-6.1484,-6.0676,-6.1153,-6.1998,-6.1704,-6.1777,-6.2144,-6.2658,-6.278,-6.278,-6.278,-6.278,-6.278,-6.278,-6.278,-6.278,-6.278,-6.278,-6.278,-6.278,-6.278,-6.278,-6.278,-6.278,-6.278,-6.278,-6.278,-6.267,-6.2401,-6.1924,-6.1484,-6.119,-6.0456,-5.9979,-5.9979,-5.9722,-6.0015,-6.108,-6.1153,-6.1667,-6.2743,-6.278,-6.278,-6.278,-6.278,-6.2658,-6.2365,-6.1851,-6.1704,-6.1924,-6.1704,-6.1704,-6.1594,0.0,0.0,0.0,0.0,0.0,0.0,0.0,-5.9368,-5.8584,-5.84,-5.84,-5.84,-5.818,-5.7997,-5.7997,-5.7997,-5.7997,-5.7997,-5.7997,-5.7997,-5.7997,-5.8474,-5.8804,-5.8804,-5.9538,-6.0015,-6.0015,-6.1006,0.0,-6.1594,-6.1337,-6.0933,-6.0419,-5.9355,-5.8927,-5.9184,-5.8694,-5.8694,-5.9184,-5.8657,-5.8253,-5.7997,-5.7997,-5.7997,-5.7997,-5.7997,-5.8767,-5.9942,-5.9134,-5.9281,-5.9942,-5.9134,-5.9134,-5.9538,-5.8988,-5.9134,-5.9648,-5.9905,-6.0529,-6.1043,-6.0272,-6.0896,-6.1887,-6.1374,-6.1557,-6.2108,-6.2658,-6.278,-6.278,-6.278,-6.278,-6.278,-6.278,-6.278,-6.278,-6.278,-6.278,-6.278,-6.278,-6.278,-6.278,-6.278,-6.278,-6.278,-6.278,-6.278,-6.278,-6.278,-6.2328,-6.1998,-6.1998,-6.1263,-6.0786,-6.0786,-6.0566,-6.075,-6.1557,-6.1594,-6.1961,-6.2743,-6.278,-6.2952,-6.3246,-6.3246,-6.3246,-6.3246,-6.2401,-6.2291,-6.278,-6.2548,-6.2879,0.0,0.0,0.0,0.0,0.0,0.0,0.0,0.0,-6.0126,-5.9368,-5.9184,-5.9184,-5.9221,-5.8584,-5.8033,-5.8033,-5.8033,-5.7997,-5.7997,-5.7997,-5.7997,-5.7997,-5.7997,-5.7997,-5.7997,-5.8731,-5.9148,-5.9148,-6.0676,-6.1557,-6.152,-6.0786,-5.9648,-5.8033,-5.7997,-5.84,-5.9184,-5.9184,-5.9184,-5.9184,-5.9184,-5.8767,-5.7997,-5.7997,-5.7997,-5.7997,-5.7997,-5.8437,-5.9074,-5.8327,-5.8474,-5.9074,-5.829,-5.7997,-5.7997,-5.7997,-5.7997,-5.8107,-5.8914,-5.9735,-6.0272,-5.9515,-6.0872,-6.2511,-6.0933,-6.1557,-6.278,-6.278,-6.278,-6.278,-6.278,-6.278,-6.278,-6.278,-6.278,-6.278,-6.278,-6.278,-6.278,-6.278,-6.278,-6.278,-6.278,-6.278,-6.278,-6.278,-6.278,-6.278,-6.278,-6.278,-6.278,-6.278,-6.2108,-6.163,-6.163,-6.0933,-6.0786,-6.1594,-6.163,-6.1998,-6.2743,-6.2817,-6.3209,-6.4053,-6.409,-6.4127,-6.409,-6.3282,-6.2853,-6.2853,-6.3723,-6.453,-6.1594,0.0,0.0,0.0,0.0,0.0,0.0,0.0,0.0,-5.9111,-5.9184,-5.9368,-5.9979,-5.9428,-5.8877,-5.8877,-5.84,-5.7997,-5.7997,-5.7997,-5.7997,-5.7997,-5.7997,-5.7997,-5.7997,-5.8217,-5.8327,0.0,-5.9832,-6.0493,-5.9905,-5.9625,-5.9061,-5.8033,-5.7997,-5.84,-5.9184,-5.8621,-5.8621,-5.9184,-5.8621,-5.8217,-5.7997,-5.7997,-5.7997,-5.7997,-5.7997,-5.8143,-5.8327,-5.8107,-5.8143,-5.8327,-5.8107,-5.7997,-5.7997,-5.7997,-5.7997,-5.8107,-5.8914,-5.9735,-6.0456,-6.0823,-6.1777,-6.2707,-6.2291,-6.245,-6.278,-6.278,-6.278,-6.278,-6.278,-6.278,-6.278,-6.278,-6.278,-6.278,-6.278,-6.278,-6.278,-6.278,-6.278,-6.278,-6.278,-6.278,-6.278,-6.278,-6.278,-6.278,-6.278,-6.278,-6.278,-6.278,-6.2622,-6.2475,-6.2475,-6.2254,-6.2254,-6.2475,-6.2475,-6.2585,-6.278,-6.3429,-6.3576,-6.3172,-6.4347,-6.4677,-6.409,-6.4457,-6.431,-6.3759,-6.4567,-6.5081,-6.2108,-6.152,0.0,0.0,0.0,0.0,-5.9098,-5.9245,-5.9612,0.0,-5.9942,-5.9832,-6.0309,-5.9758,-5.9184,-5.9184,-5.9098,-5.8767,-5.8107,-5.7997,-5.7997,-5.7997,-5.7997,-5.7997,-5.7997,-5.7997,-5.7997,-5.7997,-5.9171,-5.9685,-5.9221,-5.9184,-5.8817,-5.8033,-5.7997,-5.8217,-5.8694,-5.8217,-5.8253,-5.8694,-5.8217,-5.7997,-5.7997,-5.7997,-5.7997,-5.7997,-5.7997,-5.7997,-5.7997,-5.7997,-5.7997,-5.7997,-5.7997,-5.7997,-5.8033,-5.84,-5.829,-5.8217,-5.9685,-6.0309,-6.0529,-6.1337,-6.2144,-6.2768,-6.2401,-6.2548,-6.278,-6.278,-6.278,-6.278,-6.278,-6.278,-6.278,-6.278,-6.278,-6.278,-6.278,-6.278,-6.278,-6.278,-6.278,-6.278,-6.278,-6.278,-6.278,-6.278,-6.278,-6.278,-6.278,-6.278,-6.278,-6.278,-6.278,-6.278,-6.278,-6.278,-6.278,-6.278,-6.278,-6.278,-6.278,-6.3282,-6.3649,-6.3833,-6.4457,-6.4714,-6.4604,-6.5081,-6.5228,-6.5118,-6.5595,-6.5815,-6.278,-6.2218,-6.163,-6.1704,-6.1117,0.0,-6.0529,-6.1006,-6.1484,-6.1484,-6.0896,-6.0419,-6.0419,-5.9758,-5.9184,-5.9184,-5.9795,-5.9795,-5.8474,-5.8253,-5.8253,-5.8253,-5.818,-5.8143,-5.8143,-5.8033,-5.7997,-5.7997,-5.8767,-5.9221,-5.9331,-5.9331,-5.8988,-5.8143,-5.8143,-5.8107,-5.7997,-5.7997,-5.7997,-5.7997,-5.7997,-5.7997,-5.7997,-5.7997,-5.7997,-5.7997,-5.7997,-5.7997,-5.7997,-5.7997,-5.7997,-5.7997,-5.7997,-5.7997,-5.8107,-5.8891,-5.8694,-5.8327,-6.075,-6.108,-6.0566,-6.1447,-6.2218,-6.2695,-6.1961,-6.2218,-6.278,-6.278,-6.278,-6.278,-6.278,-6.278,-6.278,-6.278,-6.278,-6.278,-6.278,-6.278,-6.278,-6.278,-6.278,-6.278,-6.278,-6.278,-6.278,-6.278,-6.278,-6.278,-6.278,-6.278,-6.278,-6.278,-6.278,-6.278,-6.278,-6.278,-6.278,-6.278,-6.278,-6.2842,-6.2952,-6.3,-6.3796,-6.5264,-6.4604,-6.4677,-6.5595,-6.5411,-6.5705,-6.6512,-6.6402,-6.6402,-6.2622,-6.2218,-6.1741,-6.2401,-6.1961,0.0,-6.1374,-6.1006,-6.0639,0.0,-6.0529,-6.0419,-6.0419,-5.9758,-5.9184,-5.9184,-5.9331,-5.9575,-5.9869,-5.9942,-5.9942,-5.9942,-5.9355,-5.8964,-5.8964,-5.84,-5.7997,-5.7997,-5.8767,-5.9478,-6.0126,-6.0162,-5.9795,-5.8964,-5.8964,-5.8657,-5.7997,-5.7997,-5.7997,-5.7997,-5.7997,-5.7997,-5.7997,-5.7997,-5.7997,-5.7997,-5.7997,-5.7997,-5.7997,-5.7997,-5.7997,-5.7997,-5.7997,-5.7997,-5.8107,-5.8891,-5.8694,-5.8327,-6.075,-6.108,-6.0639,-6.2108,-6.267,-6.2743,-6.2622,-6.2695,-6.278,-6.278,-6.278,-6.278,-6.278,-6.278,-6.278,-6.278,-6.278,-6.278,-6.278,-6.278,-6.278,-6.278,-6.278,-6.278,-6.278,-6.278,-6.278,-6.278,-6.278,-6.278,-6.278,-6.278,-6.278,-6.278,-6.278,-6.278,-6.278,-6.278,-6.278,-6.278,-6.278,-6.3135,-6.3796,-6.4457,-6.4971,-6.5301,-6.5154,-6.5778,-6.721,-6.5925,-6.5705,-6.6476,-6.5852,-6.5888,-6.2805,-6.2511,-6.2291,-6.267,-6.2511,0.0,0.0,-6.1887,-6.1594,-6.1594,-6.097,-6.0419,0.0,0.0,-5.9184,-5.9184,-5.9869,-6.0419,-6.0419,-6.0419,-6.0419,-6.0419,-5.9685,-5.9184,-5.9184,-5.8474,-5.7997,-5.7997,-5.8767,-5.9368,-5.9795,-6.0199,-6.0236,-5.9832,-5.9404,-5.9001,-5.8621,-5.8217,-5.7997,-5.7997,-5.7997,-5.7997,-5.7997,-5.7997,-5.7997,-5.7997,-5.7997,-5.7997,-5.7997,-5.7997,-5.7997,-5.7997,-5.7997,-5.7997,-5.8107,-5.8891,-5.8694,-5.829,-6.0309,-6.0456,-6.0015,-6.1227,-6.1887,-6.2218,-6.2218,-6.2475,-6.278,-6.278,-6.278,-6.278,-6.278,-6.278,-6.278,-6.278,-6.278,-6.278,-6.278,-6.278,-6.278,-6.278,-6.278,-6.278,-6.278,-6.278,-6.278,-6.278,-6.278,-6.278,-6.278,-6.278,-6.278,-6.278,-6.278,-6.278,-6.278,-6.278,-6.278,-6.278,-6.278,-6.3209,-6.4053,-6.4494,-6.4714,-6.4714,-6.5888,-6.6072,-6.5264,-6.5301,-6.5705,-6.6476,-6.5668,-6.5301,-6.3062,-6.289,-6.3099,-6.322,-6.3172,-6.3099,0.0,0.0,0.0,0.0,0.0,0.0,0.0,0.0,0.0,0.0,0.0,0.0,0.0,-6.0309,0.0,-6.0419,-5.9685,-5.9184,-5.9184,-5.8474,-5.7997,-5.7997,-5.8914,-5.9404,-5.9404,-6.0346,-6.0786,-6.0639,-5.9869,-5.9368,-5.9184,-5.84,-5.7997,-5.7997,-5.7997,-5.7997,-5.7997,-5.7997,-5.7997,-5.7997,-5.7997,-5.7997,-5.7997,-5.7997,-5.7997,-5.7997,-5.7997,-5.7997,-5.8107,-5.8891,-5.8694,-5.8217,-5.9832,-5.9869,-5.9331,-6.0162,-6.0933,-6.163,-6.1777,-6.2291,-6.278,-6.278,-6.278,-6.278,-6.278,-6.278,-6.278,-6.278,-6.278,-6.278,-6.278,-6.278,-6.278,-6.278,-6.278,-6.278,-6.278,-6.278,-6.278,-6.278,-6.278,-6.278,-6.278,-6.278,-6.278,-6.278,-6.278,-6.278,-6.278,-6.278,-6.278,-6.278,-6.2989,-6.3429,-6.431,-6.464,-6.4714,-6.4567,-6.6476,-6.6072,-6.3282,-6.4494,-6.5485,-6.6256,-6.5264,-6.464,0.0,0.0,-6.4127,-6.4861,-6.4494,-6.4127,-6.4861,0.0,-6.2622,-6.1887,0.0,0.0,0.0,0.0,0.0,0.0,0.0,0.0,-5.9331,-5.9942,-6.0419,-6.0419,-5.9685,-5.9184,-5.9184,-5.8474,-5.7997,-5.7997,-5.9428,-6.0272,-6.0272,-6.1704,-6.2218,-6.1484,-6.0676,-5.9942,-5.9184,-5.84,-5.7997,-5.7997,-5.7997,-5.7997,-5.7997,-5.7997,-5.7997,-5.7997,-5.7997,-5.7997,-5.7997,-5.7997,-5.7997,-5.7997,-5.7997,-5.7997,-5.8107,-5.8891,-5.8694,-5.8217,-5.9832,-5.9869,-5.9331,-6.0162,-6.0933,-6.1741,-6.2438,-6.2732,-6.278,-6.278,-6.278,-6.278,-6.278,-6.278,-6.278,-6.278,-6.278,-6.278,-6.278,-6.278,-6.278,-6.278,-6.278,-6.278,-6.278,-6.278,-6.278,-6.278,-6.278,-6.278,-6.278,-6.278,-6.278,-6.278,-6.278,-6.278,-6.278,-6.278,-6.278,-6.278,-6.3539,-6.431,-6.5154,-6.6512,-6.6953,-6.6219,-6.6512,-6.6109,-6.5007,-6.4494,-6.464,-6.5411,-6.3807,-6.3833,0.0,0.0,0.0,0.0,0.0,0.0,-6.5228,-6.4787,-6.4163,0.0,0.0,0.0,0.0,0.0,0.0,0.0,-5.8694,0.0,0.0,0.0,0.0,0.0,0.0,0.0,-5.8547,-5.8217,-5.7997,-5.7997,-5.9061,-5.9905,-6.0382,-6.1484,-6.2144,-6.2291,-6.152,-6.0713,-5.9905,-5.9098,-5.8474,-5.7997,-5.7997,-5.7997,-5.7997,-5.7997,-5.7997,-5.7997,-5.7997,-5.7997,-5.7997,-5.7997,-5.7997,-5.7997,-5.7997,-5.7997,-5.8107,-5.8891,-5.8964,-5.8804,-5.9465,-5.9478,-5.9331,-6.0162,-6.0933,-6.1741,-6.2585,-6.278,-6.278,-6.278,-6.278,-6.278,-6.278,-6.278,-6.278,-6.278,-6.278,-6.278,-6.278,-6.278,-6.278,-6.278,-6.278,-6.278,-6.278,-6.278,-6.278,-6.278,-6.278,-6.278,-6.278,-6.278,-6.278,-6.278,-6.278,-6.278,-6.278,-6.278,-6.3025,-6.3503,-6.4751,-6.5632,-6.5999,-6.71,-6.732,-6.6512,-6.6953,-6.6549,-6.5301,-6.4971,-6.5228,-6.5962,-6.431,-6.42,-6.2573,0.0,0.0,0.0,0.0,0.0,0.0,-6.5301,-6.5301,0.0,0.0,0.0,0.0,0.0,0.0,0.0,0.0,-5.9001,0.0,0.0,0.0,0.0,0.0,0.0,0.0,-5.7997,-5.7997,-5.7997,-5.8951,-5.9795,-6.0382,-6.1374,-6.2218,-6.278,-6.2034,-6.13,-6.075,-5.9698,-5.8891,-5.8327,-5.8107,-5.7997,-5.7997,-5.7997,-5.7997,-5.7997,-5.7997,-5.7997,-5.7997,-5.7997,-5.7997,-5.7997,-5.7997,-5.7997,-5.807,-5.8657,-5.9001,-5.9184,-5.9184,-5.9331,-5.9648,-6.0236,-6.0933,-6.1741,-6.2585,-6.278,-6.278,-6.278,-6.278,-6.278,-6.278,-6.278,-6.278,-6.278,-6.278,-6.278,-6.278,-6.278,-6.278,-6.278,-6.278,-6.278,-6.278,-6.278,-6.278,-6.278,-6.278,-6.278,-6.278,-6.278,-6.278,-6.278,-6.278,-6.278,-6.278,-6.278,-6.3172,-6.4016,-6.5191,-6.5925,-6.6145,-6.6733,-6.6769,-6.6182,-6.6733,-6.6476,-6.5301,-6.5081,-6.5375,-6.6145,-6.4751,-6.464,0.0,0.0,0.0,-6.4082,0.0,0.0,0.0,0.0,-6.5301,0.0,0.0,0.0,0.0,0.0,0.0,-6.0456,0.0,0.0,0.0,0.0,0.0,0.0,0.0,0.0,0.0,-5.7997,-5.7997,-5.7997,-5.9465,-6.0382,-6.0419,-6.1924,-6.2743,-6.278,-6.2034,-6.1594,-6.1557,-6.0015,-5.9184,-5.9148,-5.8364,-5.7997,-5.7997,-5.7997,-5.7997,-5.7997,-5.7997,-5.7997,-5.7997,-5.7997,-5.7997,-5.7997,-5.7997,-5.7997,-5.7997,-5.8033,-5.8547,-5.9184,-5.9184,-5.9698,-6.0382,-6.0382,-6.0933,-6.1741,-6.2585,-6.278,-6.278,-6.278,-6.278,-6.278,-6.278,-6.278,-6.278,-6.278,-6.278,-6.278,-6.278,-6.278,-6.278,-6.278,-6.278,-6.278,-6.278,-6.278,-6.278,-6.278,-6.278,-6.278,-6.278,-6.278,-6.278,-6.278,-6.278,-6.278,-6.278,-6.278,-6.3172,-6.4016,-6.4127,-6.453,-6.5301,-6.5375,-6.5375,-6.5338,-6.5375,-6.5375,-6.5301,-6.453,-6.453,-6.5338,-6.4494,-6.4934,0.0,0.0,-6.2498,-6.31,0.0,0.0,0.0,0.0,0.0,0.0,0.0,0.0,0.0,0.0,0.0,0.0,0.0,0.0,0.0,0.0,0.0,0.0,0.0,0.0,0.0,0.0,0.0,-5.7997,-5.851,-5.9281,-6.0346,-6.141,-6.2511,-6.3613,-6.3392,-6.2989,-6.2401,-6.1337,-6.0272,-5.9184,-5.8927,-5.851,-5.7997,-5.7997,-5.7997,-5.7997,-5.7997,-5.7997,-5.7997,-5.7997,-5.7997,-5.7997,-5.7997,-5.7997,-5.807,-5.8621,-5.8964,-5.9258,-5.9832,-6.0162,-6.0493,-6.1006,-6.1741,-6.2438,-6.2707,-6.278,-6.278,-6.278,-6.278,-6.278,-6.278,-6.278,-6.278,-6.278,-6.278,-6.278,-6.278,-6.278,-6.278,-6.278,-6.278,-6.278,-6.278,-6.278,-6.278,-6.278,-6.278,-6.278,-6.278,-6.278,-6.278,-6.278,-6.278,-6.3025,-6.3613,-6.464,-6.5154,-6.4897,-6.5375,-6.5815,-6.6072,-6.6109,-6.6329,-6.688,-6.688,-6.688,-6.688,-6.5558,-6.5595,-6.6843,-6.5521,-6.5485,-5.9844,-6.0522,0.0,-6.2147,-6.2567,0.0,-6.478,0.0,-6.5208,0.0,0.0,0.0,0.0,0.0,0.0,0.0,0.0,0.0,0.0,-6.0419,0.0,0.0,0.0,0.0,0.0,0.0,-5.7997,-5.7997,-5.8253,-5.8988,-6.0346,-6.1447,-6.2658,-6.4053,-6.4383,-6.4127,-6.3282,-6.2438,-6.1227,-5.9625,-5.9331,-5.8804,-5.7997,-5.7997,-5.7997,-5.7997,-5.7997,-5.7997,-5.7997,-5.7997,-5.7997,-5.7997,-5.7997,-5.7997,-5.807,-5.8584,-5.9134,-5.9698,-6.0236,-6.0786,-6.13,-6.152,-6.2144,-6.278,-6.278,-6.278,-6.278,-6.278,-6.278,-6.278,-6.278,-6.278,-6.278,-6.278,-6.278,-6.2853,-6.3209,-6.3025,-6.289,-6.3209,-6.3025,-6.278,-6.278,-6.278,-6.278,-6.278,-6.278,-6.278,-6.278,-6.278,-6.278,-6.278,-6.278,-6.3025,-6.3576,-6.4861,-6.5411,-6.4897,-6.5632,-6.6072,-6.6072,-6.6072,-6.6586,-6.7677,-6.7136,-6.7283,-6.8128,-6.6219,-6.5999,-6.7247,-6.6219,-6.5999]},{"header":{"parameterUnit":"m.s-1","parameterCategory":1,"la1":30.6,"la2":29.2853,"lo1":-89.7004,"lo2":-87.6739,"dy":0.0162,"dx":0.0183,"nx":112,"ny":82,"refTime":"2023-04-03T06:00:00:Z","depth":0,"parameterNumber":3,"parameterNumberName":"V-component_of_WINDS"},"data":[0.0,0.0,0.0,0.0,0.0,0.0,0.0,0.0,0.0,0.0,0.0,0.0,0.0,0.0,0.0,0.0,0.0,0.0,0.0,0.0,0.0,0.0,0.0,0.0,0.0,0.0,0.0,0.0,0.0,0.0,0.0,0.0,0.0,0.0,0.0,0.0,0.0,0.0,0.0,0.0,0.0,0.0,0.0,0.0,0.0,0.0,0.0,0.0,0.0,0.0,0.0,0.0,0.0,0.0,0.0,0.0,0.0,0.0,0.0,0.0,0.0,0.0,0.0,0.0,0.0,0.0,0.0,0.0,0.0,0.0,0.0,0.0,0.0,0.0,0.0,0.0,0.0,0.0,0.0,0.0,0.0,0.0,0.0,0.0,0.0,0.0,0.0,0.0,0.0,0.0,1.5199,1.4259,1.3671,1.2732,1.1365,1.1001,1.0426,0.9442,0.0,0.0,0.0,0.0,0.0,0.0,0.0,0.0,0.0,0.0,0.0,0.0,0.0,0.0,0.0,0.0,0.0,0.0,0.0,0.0,0.0,0.0,0.0,0.0,0.0,0.0,0.0,0.0,0.0,0.0,0.0,0.0,0.0,0.0,0.0,0.0,0.0,0.0,0.0,0.0,0.0,0.0,0.0,0.0,0.0,0.0,0.0,0.0,0.0,0.0,0.0,0.0,0.0,0.0,0.0,0.0,0.0,0.0,0.0,0.0,0.0,0.0,0.0,0.0,0.0,0.0,0.0,0.0,0.0,0.0,0.0,0.0,0.0,0.0,0.0,0.0,0.0,0.0,0.0,0.0,0.0,0.0,0.0,0.0,0.0,0.0,0.0,0.0,0.0,0.0,0.0,0.0,0.0,0.0,0.0,0.0,0.0,0.0,0.0,0.0,0.0,0.0,0.0,0.0,1.4386,1.5329,1.4143,1.3202,1.2972,1.1358,1.0093,0.9422,0.0,0.0,0.0,0.0,0.0,0.0,0.0,0.0,0.0,0.0,0.0,0.0,0.0,0.0,0.0,0.0,0.0,0.0,0.0,0.0,0.0,0.0,0.0,0.0,0.0,0.0,0.0,0.0,0.0,0.0,0.0,0.0,0.0,0.0,0.0,0.0,0.0,0.0,0.0,0.0,0.0,0.0,0.0,0.0,0.0,0.0,0.0,0.0,0.0,0.0,0.0,0.0,0.0,0.0,0.0,0.0,0.0,0.0,0.0,0.0,0.0,0.0,0.0,0.0,0.0,0.0,0.0,0.0,0.0,0.0,0.0,0.0,0.0,0.0,0.0,0.0,0.0,0.0,0.0,0.0,0.0,0.0,0.0,0.0,0.0,0.0,0.0,0.0,0.0,0.0,0.0,0.0,0.0,0.0,0.0,0.0,0.0,0.0,0.0,0.0,0.0,0.0,0.0,1.6392,1.6389,1.6713,1.6234,1.5549,1.4585,1.2553,1.1125,1.0589,0.9617,0.0,0.0,0.0,0.0,0.0,0.0,0.0,0.0,0.0,0.0,0.0,0.0,0.0,0.0,0.0,0.0,0.0,0.0,0.0,0.0,0.0,0.0,0.0,0.0,0.0,0.0,0.0,0.0,0.0,0.0,0.0,0.0,0.0,0.0,0.0,0.0,0.0,0.0,0.0,0.0,0.0,0.0,0.0,0.0,0.0,0.0,0.0,0.0,0.0,0.0,0.0,0.0,0.0,0.0,0.0,0.0,0.0,0.0,0.0,0.0,0.0,0.0,0.0,0.0,0.0,0.0,0.0,0.0,0.0,0.0,0.0,0.0,0.0,0.0,0.0,0.0,0.0,0.0,0.0,0.0,0.0,0.0,0.0,0.0,0.0,0.0,0.0,0.0,0.0,0.0,0.0,0.0,0.0,0.0,0.0,0.0,0.0,0.0,0.0,0.0,0.0,0.0,1.8504,1.8485,1.8252,1.8037,1.7468,1.6139,1.3929,1.2281,1.1526,0.9969,0.0,0.0,0.0,0.0,0.0,0.0,0.0,0.0,0.0,0.0,0.0,0.0,0.0,0.0,0.0,0.0,0.0,0.0,0.0,0.0,0.0,0.0,0.0,0.0,0.0,0.0,0.0,0.0,0.0,0.0,0.0,0.0,0.0,0.0,0.0,0.0,0.0,0.0,0.0,0.0,0.0,0.0,0.0,0.0,0.0,0.0,0.0,0.0,0.0,0.0,0.0,0.0,0.0,0.0,0.0,0.0,0.0,0.0,0.0,0.0,0.0,0.0,0.0,0.0,0.0,0.0,0.0,0.0,0.0,0.0,0.0,0.0,0.0,0.0,0.0,0.0,0.0,0.0,0.0,0.0,0.0,0.0,0.0,0.0,0.0,0.0,0.0,0.0,0.0,0.0,0.0,0.0,0.0,0.0,0.0,0.0,0.0,0.0,0.0,0.0,0.0,0.0,1.8544,1.9181,1.9953,1.857,1.7576,1.7453,1.5207,1.3106,1.163,1.0704,0.0,0.0,0.0,0.0,0.0,0.0,0.0,0.0,0.0,0.0,0.0,0.0,0.0,0.0,0.0,0.0,0.0,0.0,0.0,0.0,0.0,0.0,0.0,0.0,0.0,0.0,0.0,0.0,0.0,0.0,0.0,0.0,0.0,0.0,0.0,0.0,0.0,0.0,0.0,0.0,0.0,0.0,0.0,0.0,0.0,0.0,0.0,0.0,0.0,0.0,0.0,0.0,0.0,0.0,0.0,0.0,0.0,0.0,0.0,0.0,0.0,0.0,0.0,0.0,0.0,0.0,0.0,0.0,0.0,0.0,0.0,0.0,0.0,0.0,0.0,0.0,0.0,0.0,0.0,0.0,0.0,0.0,0.0,0.0,0.0,0.0,0.0,0.0,0.0,0.0,0.0,0.0,0.0,0.0,0.0,0.0,0.0,0.0,0.0,0.0,0.0,0.0,1.8277,1.8985,0.0,1.9348,1.8911,1.8733,1.6551,1.4768,1.3858,0.0,0.0,0.0,0.0,0.0,0.0,0.0,0.0,0.0,0.0,0.0,0.0,0.0,0.0,0.0,0.0,0.0,0.0,0.0,0.0,0.0,0.0,0.0,0.0,0.0,0.0,0.0,0.0,0.0,0.0,0.0,0.0,0.0,0.0,0.0,0.0,0.0,0.0,0.0,0.0,0.0,0.0,0.0,0.0,0.0,0.0,0.0,0.0,0.0,0.0,0.0,0.0,0.0,0.0,0.0,0.0,0.0,0.0,0.0,0.0,0.0,0.0,0.0,0.0,0.0,0.0,0.0,0.0,0.0,0.0,0.0,0.0,0.0,0.0,0.0,0.0,0.0,0.0,0.0,0.0,0.0,0.0,0.0,0.0,0.0,0.0,0.0,0.0,0.0,0.0,0.0,0.0,0.0,0.0,0.0,0.0,0.0,0.0,0.0,0.0,0.0,0.0,1.7475,1.8036,1.8651,0.0,1.9519,1.9399,1.9118,1.7359,1.6009,1.5227,0.0,0.0,0.0,0.0,0.0,0.0,0.0,0.0,0.0,0.0,0.0,0.0,0.0,0.0,0.0,0.0,0.0,0.0,0.0,0.0,0.0,0.0,0.0,0.0,0.0,0.0,0.0,0.0,0.0,0.0,0.0,0.0,0.0,0.0,0.0,0.0,0.0,0.0,0.0,0.0,0.0,0.0,0.0,0.0,0.0,0.0,0.0,0.0,0.0,0.0,0.0,0.0,0.0,0.0,0.0,0.0,0.0,0.0,0.0,0.0,0.0,0.0,0.0,0.0,0.0,0.0,0.0,0.0,0.0,0.0,0.0,0.0,0.0,0.0,0.0,0.0,0.0,0.0,0.0,0.0,0.0,0.0,0.0,0.0,0.0,0.0,0.0,0.0,0.0,0.0,0.0,0.0,0.0,0.0,0.0,0.0,0.0,0.0,0.0,0.0,0.0,0.0,1.7462,1.7849,1.8209,1.8851,1.8918,1.8798,1.8504,1.7715,1.6626,0.0,0.0,0.0,0.0,0.0,0.0,0.0,0.0,0.0,0.0,0.0,0.0,0.0,0.0,0.0,0.0,0.0,0.0,0.0,0.0,0.0,0.0,0.0,0.0,0.0,0.0,0.0,0.0,0.0,0.0,0.0,0.0,0.0,0.0,0.0,0.0,0.0,0.0,0.0,0.0,0.0,0.0,0.0,0.0,0.0,0.0,0.0,0.0,0.0,0.0,0.0,0.0,0.0,0.0,0.0,0.0,0.0,0.0,0.0,0.0,0.0,0.0,0.0,0.0,0.0,0.0,0.0,0.0,0.0,0.0,0.0,0.0,0.0,0.0,0.0,0.0,0.0,0.0,0.0,0.0,0.0,0.0,0.0,0.0,0.0,0.0,0.0,0.0,0.0,0.0,0.0,0.0,0.0,0.0,0.0,0.0,0.0,0.0,0.0,0.0,0.0,0.0,0.0,1.7246,1.7528,1.7956,1.8557,1.8624,1.841,1.7889,1.7474,1.6866,1.6056,0.0,0.0,0.0,0.0,0.0,0.0,0.0,0.0,0.0,0.0,0.0,0.0,0.0,0.0,0.0,0.0,0.0,0.0,0.0,0.0,0.0,0.0,0.0,0.0,0.0,0.0,0.0,0.0,0.0,0.0,0.0,0.0,0.0,0.0,0.0,0.0,0.0,0.0,0.0,0.0,0.0,0.0,0.0,0.0,0.0,0.0,0.0,0.0,0.0,0.0,0.0,0.0,0.0,0.0,0.0,0.0,0.0,0.0,0.0,0.0,0.0,0.0,0.0,0.0,0.0,0.0,0.0,0.0,0.0,0.0,0.0,0.0,0.0,0.0,0.0,0.0,0.0,0.0,0.0,0.0,0.0,0.0,0.0,0.0,0.0,0.0,0.0,0.0,0.0,0.0,0.0,0.0,0.0,0.0,0.0,0.0,0.0,0.0,0.0,0.0,0.0,0.0,1.7112,1.7353,1.7635,1.825,1.8317,1.8063,1.7514,1.7192,1.6714,1.6126,0.0,0.0,0.0,0.0,0.0,0.0,0.0,0.0,0.0,0.0,0.0,0.0,0.0,0.0,0.0,0.0,0.0,0.0,0.0,0.0,0.0,0.0,0.0,0.0,0.0,0.0,0.0,0.0,0.0,0.0,0.0,0.0,0.0,0.0,0.0,0.0,0.0,0.0,0.0,0.0,0.0,0.0,0.0,0.0,0.0,0.0,0.0,0.0,0.0,0.0,0.0,0.0,0.0,0.0,0.0,0.0,0.0,0.0,0.0,0.0,0.0,0.0,0.0,0.0,0.0,0.0,0.0,0.0,0.0,0.0,0.0,0.0,0.0,0.0,0.0,0.0,0.0,0.0,0.0,0.0,0.0,0.0,0.0,0.0,0.0,0.0,0.0,0.0,0.0,0.0,0.0,0.0,0.0,0.0,0.0,0.0,0.0,0.0,0.0,0.0,0.0,0.0,1.7045,1.7166,1.7341,1.7889,1.7929,1.7729,1.7206,1.6834,1.642,1.5824,0.0,0.0,0.0,0.0,0.0,0.0,0.0,0.0,0.0,0.0,0.0,0.0,0.0,0.0,0.0,0.0,0.0,0.0,0.0,0.0,0.0,0.0,0.0,0.0,0.0,0.0,0.0,0.0,0.0,0.0,0.0,0.0,0.0,0.0,0.0,0.0,0.0,0.0,0.0,0.0,0.0,0.0,0.0,0.0,0.0,0.0,0.0,0.0,0.0,0.0,0.0,0.0,0.0,0.0,0.0,0.0,0.0,0.0,0.0,0.0,1.9439,1.9292,0.0,0.0,0.0,0.0,0.0,0.0,0.0,0.0,0.0,0.0,0.0,0.0,0.0,0.0,0.0,0.0,0.0,0.0,0.0,0.0,0.0,0.0,0.0,0.0,0.0,0.0,0.0,0.0,0.0,0.0,0.0,0.0,0.0,0.0,0.0,0.0,0.0,0.0,0.0,0.0,1.6714,1.6807,1.7021,1.7622,1.7475,1.7246,1.6834,1.654,1.6206,1.5798,1.5784,0.0,0.0,0.0,0.0,0.0,0.0,0.0,0.0,0.0,0.0,0.0,0.0,0.0,0.0,0.0,0.0,0.0,0.0,0.0,0.0,0.0,0.0,0.0,0.0,0.0,0.0,0.0,0.0,0.0,0.0,0.0,0.0,0.0,0.0,0.0,0.0,0.0,0.0,0.0,0.0,0.0,0.0,0.0,0.0,0.0,0.0,0.0,0.0,0.0,0.0,0.0,0.0,0.0,0.0,0.0,0.0,0.0,0.0,0.0,1.9573,1.9412,0.0,0.0,0.0,0.0,0.0,0.0,0.0,0.0,0.0,0.0,0.0,0.0,0.0,0.0,0.0,0.0,0.0,0.0,0.0,0.0,0.0,0.0,0.0,0.0,0.0,0.0,0.0,0.0,0.0,0.0,0.0,0.0,0.0,0.0,0.0,0.0,0.0,0.0,0.0,0.0,1.6633,1.658,1.6727,1.7367,1.7166,1.682,1.6526,1.6366,1.6086,1.5645,1.5752,0.0,0.0,0.0,0.0,0.0,0.0,0.0,0.0,0.0,0.0,0.0,0.0,0.0,0.0,0.0,0.0,0.0,0.0,0.0,0.0,0.0,0.0,0.0,0.0,0.0,0.0,0.0,0.0,0.0,0.0,0.0,0.0,0.0,0.0,0.0,0.0,0.0,0.0,0.0,0.0,0.0,0.0,0.0,0.0,0.0,0.0,0.0,0.0,0.0,0.0,0.0,0.0,0.0,1.9853,1.9973,2.016,2.0153,2.0107,1.988,1.988,1.9679,1.9444,1.9679,0.0,0.0,0.0,0.0,0.0,0.0,0.0,0.0,0.0,0.0,0.0,0.0,0.0,0.0,0.0,0.0,0.0,0.0,0.0,0.0,0.0,0.0,1.7408,1.7796,1.7515,1.7125,1.6767,0.0,0.0,0.0,0.0,0.0,0.0,0.0,0.0,0.0,0.0,0.0,1.6633,1.65,1.6603,1.7139,1.6887,1.658,1.6299,1.6268,1.5992,1.5498,1.5698,1.5725,0.0,0.0,0.0,0.0,0.0,0.0,0.0,0.0,0.0,0.0,0.0,0.0,0.0,0.0,0.0,0.0,0.0,0.0,0.0,0.0,0.0,0.0,0.0,0.0,0.0,0.0,0.0,0.0,0.0,0.0,0.0,0.0,2.0681,2.0681,0.0,0.0,0.0,0.0,0.0,0.0,0.0,0.0,0.0,0.0,0.0,0.0,0.0,1.9867,2.012,2.012,2.0013,1.98,2.0054,2.0067,1.9867,2.012,2.0153,2.0174,2.0174,0.0,1.9444,1.9679,0.0,0.0,0.0,0.0,0.0,0.0,0.0,0.0,0.0,0.0,0.0,0.0,0.0,0.0,0.0,0.0,0.0,0.0,0.0,0.0,0.0,0.0,1.7822,1.742,1.7259,1.7125,1.6767,1.67,1.6633,1.638,1.6086,1.5885,0.0,0.0,0.0,0.0,0.0,0.0,1.6633,1.6673,1.678,1.7166,1.6887,1.658,1.6299,1.6032,1.5811,1.5731,1.5758,1.5758,1.5731,1.5765,0.0,0.0,0.0,0.0,0.0,0.0,0.0,0.0,0.0,0.0,0.0,0.0,0.0,0.0,0.0,0.0,0.0,0.0,0.0,0.0,0.0,0.0,0.0,0.0,0.0,0.0,0.0,0.0,0.0,2.0735,2.0855,2.0695,2.0935,2.1109,0.0,0.0,0.0,0.0,0.0,0.0,0.0,0.0,0.0,2.004,2.004,2.0107,2.0167,2.0167,2.0254,2.0294,2.0428,2.0508,2.0535,2.0668,2.0722,2.0722,2.0722,2.0494,2.008,1.988,1.9626,1.943,0.0,0.0,0.0,0.0,1.9225,1.9305,1.8838,1.8677,1.8664,1.8531,0.0,0.0,0.0,0.0,0.0,0.0,0.0,1.7756,1.7622,1.7689,1.7716,1.7462,1.7447,1.7367,1.7072,1.682,1.6673,1.654,1.6406,1.6273,1.6112,1.5939,0.0,0.0,0.0,1.6046,1.6633,1.6567,1.658,1.6874,1.6633,1.6339,1.6046,1.5899,1.5784,1.5784,1.5784,1.5784,1.5784,1.5784,1.5784,0.0,0.0,0.0,0.0,0.0,0.0,0.0,0.0,0.0,0.0,0.0,0.0,0.0,0.0,0.0,0.0,0.0,0.0,0.0,0.0,0.0,0.0,0.0,0.0,0.0,0.0,0.0,0.0,2.0922,2.1002,2.0708,2.1002,2.1162,0.0,0.0,0.0,0.0,0.0,0.0,2.0027,1.9947,2.004,2.0334,2.0347,2.0388,2.0454,2.0454,2.0561,2.0788,2.0788,2.0895,2.1109,2.1109,2.1109,2.1109,2.1029,2.0869,2.0641,2.012,1.9733,1.9466,1.9457,1.943,1.9345,1.9118,1.9185,1.9292,1.8784,1.8597,1.8597,1.8597,1.8237,1.7822,1.7903,0.0,0.0,0.0,0.0,1.7622,1.7769,1.7702,1.7609,1.7689,1.7635,1.7528,1.7367,1.7088,1.686,1.6633,1.654,1.642,1.6192,0.0,0.0,0.0,0.0,1.6152,1.674,1.6567,1.6473,1.6687,1.6446,1.6152,1.5811,1.5784,1.5784,1.5784,1.5784,1.5784,1.5784,1.5784,1.5784,1.5784,0.0,0.0,0.0,0.0,0.0,0.0,0.0,0.0,0.0,0.0,0.0,0.0,0.0,0.0,0.0,0.0,0.0,0.0,0.0,0.0,0.0,0.0,0.0,0.0,0.0,0.0,0.0,0.0,0.0,2.0708,2.1239,0.0,0.0,0.0,0.0,2.0681,2.0641,2.0628,2.0628,2.0361,2.0347,2.0641,2.0655,2.0788,2.1056,2.1069,2.1069,2.1082,2.1082,2.1096,2.1109,2.1109,2.1109,2.1096,2.0815,2.0695,2.0655,2.0334,2.004,1.9746,1.9479,1.943,1.943,1.9403,1.9417,1.9319,1.9011,1.8905,1.8905,1.8905,1.8691,1.8343,1.7769,1.7595,0.0,0.0,1.7809,1.7716,1.829,1.8009,1.7662,1.7902,1.7796,1.7582,1.7569,1.7555,1.7288,1.646,1.6059,1.5824,1.5811,0.0,1.5925,1.6206,1.6246,1.6509,1.7099,1.6874,1.6687,1.67,1.6446,1.6152,1.5811,1.5784,1.5784,1.5784,1.5784,1.5784,1.5784,1.5784,1.5784,1.5784,1.5784,0.0,0.0,0.0,0.0,0.0,0.0,0.0,0.0,0.0,0.0,0.0,0.0,0.0,0.0,0.0,0.0,0.0,0.0,0.0,0.0,0.0,0.0,0.0,0.0,0.0,0.0,0.0,0.0,2.1229,2.159,0.0,2.1537,2.1443,2.1349,2.132,2.1056,2.1042,2.1293,2.0962,2.1015,2.1496,2.1149,2.1096,2.139,2.1203,2.1109,2.1109,2.1109,2.1109,2.1109,2.1109,2.1109,2.1096,2.1002,2.0949,2.0935,2.0641,2.0227,1.9786,1.9679,1.9533,1.9345,1.9158,1.9199,1.9319,1.9025,1.8918,1.8865,1.8422,1.8235,1.817,1.7889,1.8009,1.8183,1.8303,1.825,1.8223,1.8437,1.8183,1.7849,1.7969,1.7809,1.7582,1.7582,1.7435,1.7259,1.6951,1.6804,1.662,1.642,1.6393,1.6433,1.654,1.6553,1.67,1.7152,1.6887,1.67,1.67,1.6446,1.6152,1.5811,1.5784,1.5784,1.5784,1.5784,1.5784,1.5784,1.5784,1.5784,1.5784,1.5784,1.5784,0.0,0.0,0.0,0.0,0.0,0.0,0.0,0.0,0.0,0.0,0.0,0.0,0.0,0.0,0.0,0.0,0.0,0.0,0.0,0.0,0.0,0.0,0.0,0.0,0.0,0.0,2.1617,2.1817,2.2191,2.2365,2.2151,2.2044,2.2016,2.1857,2.1657,2.1643,2.183,2.1563,2.159,2.1977,2.1603,2.1496,2.1762,2.1403,2.1256,2.1256,2.1162,2.1109,2.1109,2.1109,2.1109,2.1109,2.1109,2.1109,2.1096,2.0895,2.0535,2.008,1.988,1.9679,1.9479,1.9185,1.9199,1.939,1.9145,1.9078,1.8985,1.8448,1.8288,1.8275,1.8169,1.833,1.8517,1.8611,1.8571,1.8544,1.8731,1.8424,1.8022,1.8115,1.7876,1.7582,1.7582,1.7487,1.734,1.734,1.7192,1.6941,1.674,1.67,1.674,1.6834,1.686,1.6967,1.7313,1.7034,1.682,1.6714,1.6446,1.6152,1.5811,1.5784,1.5784,1.5784,1.5784,1.5784,1.5784,1.5784,1.5784,1.5784,1.5784,1.5784,1.5784,0.0,0.0,0.0,0.0,0.0,0.0,0.0,0.0,0.0,0.0,0.0,0.0,0.0,0.0,0.0,0.0,0.0,0.0,0.0,0.0,0.0,0.0,0.0,2.1096,2.1884,2.2432,2.2445,2.2979,2.3113,2.2512,2.2726,2.2766,2.2485,2.2458,2.2458,2.2445,2.2164,2.2017,2.2017,2.1991,2.1991,2.2004,2.1775,2.1628,2.1614,2.1256,2.1122,2.1109,2.1109,2.1109,2.1109,2.1109,2.1109,2.1109,2.1109,2.0949,2.0628,2.0054,1.9813,1.9773,1.9479,1.943,1.943,1.943,1.9417,1.9305,1.9011,1.8918,1.8865,1.8584,1.8517,1.8584,1.8865,1.8731,1.8651,1.9225,1.8718,1.8075,1.8424,1.8023,1.7582,1.7582,1.7582,1.7582,1.7582,1.7128,1.6727,1.6727,1.6727,1.6834,1.7166,1.7219,0.0,1.7542,1.738,1.7085,1.6754,1.646,1.6166,1.5824,1.5798,1.5798,1.5784,1.5784,1.5784,1.5784,1.5784,1.5784,1.5784,1.5784,1.5784,1.5784,0.0,0.0,0.0,0.0,0.0,0.0,0.0,0.0,0.0,0.0,0.0,0.0,0.0,0.0,0.0,0.0,0.0,0.0,0.0,0.0,0.0,0.0,2.148,2.171,2.2325,2.2819,2.3046,2.342,2.3581,2.342,2.3474,2.3487,2.3407,2.3394,2.33,2.3086,2.2792,2.2619,2.2619,2.2205,2.2084,2.2298,2.2004,2.1764,2.1614,2.1534,2.1323,2.1109,2.1109,2.1109,2.1109,2.1109,2.1109,2.1109,2.1109,2.1069,2.0949,2.0575,2.0174,1.9786,1.9706,1.9546,1.943,1.943,1.9225,1.9025,1.8945,1.8918,1.8905,1.8824,1.8958,1.9145,1.9225,1.9185,1.9158,1.939,1.8865,1.8397,1.8477,1.8023,1.7582,1.7582,1.7582,1.7582,1.7582,1.7448,1.7341,1.7341,1.7341,1.7368,1.7501,1.7514,0.0,1.7569,1.738,1.7166,1.7085,1.6767,1.6473,1.6179,1.6152,1.6059,1.5798,1.5784,1.5784,1.5784,1.5784,1.5784,1.5784,1.5784,1.5784,0.0,0.0,0.0,0.0,0.0,0.0,0.0,0.0,0.0,0.0,0.0,0.0,0.0,0.0,0.0,0.0,0.0,0.0,0.0,0.0,0.0,0.0,2.2017,2.2619,2.3033,2.3287,2.3487,2.3674,2.4062,2.4315,2.4315,2.4315,2.4315,2.4315,2.4209,2.3955,2.3527,2.322,2.2993,2.2928,2.2525,2.2432,2.2605,2.2311,2.2084,2.1911,2.179,2.1577,2.1296,2.1296,2.1229,2.1109,2.1109,2.1109,2.1109,2.1109,2.1109,2.1082,0.0,0.0,0.0,0.0,1.9613,1.943,1.943,1.9252,1.9105,1.9105,1.9105,1.9105,1.9105,1.9225,1.943,1.943,1.943,1.943,1.943,1.8931,1.849,1.849,1.8023,1.7582,1.7582,1.7582,1.7582,1.7582,1.7582,0.0,1.7582,1.7582,1.7582,1.7582,1.7582,1.7582,1.7582,1.7435,1.7286,1.7045,1.6807,1.654,1.6126,1.6086,0.0,0.0,0.0,1.5784,1.5784,1.5784,0.0,0.0,0.0,1.5784,1.5784,1.5784,0.0,0.0,1.5784,1.5784,0.0,0.0,0.0,0.0,0.0,0.0,0.0,0.0,0.0,0.0,0.0,0.0,0.0,0.0,0.0,0.0,2.33,2.4075,2.4649,2.4543,2.4396,2.4356,2.481,2.513,2.513,2.513,2.5117,2.5077,2.4836,2.4422,2.3808,0.0,0.0,0.0,0.0,2.2928,2.2928,2.2605,2.2458,2.2418,2.2164,2.1884,2.1668,2.1668,2.1443,2.1162,2.1162,2.1136,2.1109,2.1109,2.1109,2.1082,2.0788,2.0655,2.0561,2.0,1.9613,1.943,1.943,0.0,0.0,1.943,1.943,1.943,1.943,1.943,1.943,1.943,1.943,1.943,1.943,1.8958,1.8544,1.8544,1.8076,1.7635,1.7635,1.7609,1.7582,1.7582,1.7582,1.7582,1.7582,1.7582,1.7582,1.7582,1.7582,1.7569,1.7542,1.7528,1.7315,1.6767,0.0,0.0,1.5878,1.5885,1.5824,1.5784,1.5784,1.5784,1.5784,1.5784,1.5784,1.5784,1.5784,1.5784,1.5784,1.5784,1.5784,1.5784,1.5784,1.5784,0.0,0.0,0.0,0.0,0.0,0.0,0.0,0.0,0.0,0.0,0.0,0.0,0.0,0.0,0.0,2.3354,2.4048,2.4676,2.5264,2.5504,2.5531,2.5291,2.5358,2.5424,2.5424,2.5424,2.5331,2.5104,2.5024,2.4636,2.3808,2.3714,2.3434,2.2954,2.2928,2.2928,2.2928,2.2806,2.2659,2.2418,2.2365,0.0,2.1897,2.1897,2.1737,2.1534,2.1534,2.1336,2.1109,2.1109,2.1109,2.1082,2.0788,2.0535,2.0281,1.992,1.9613,1.943,1.943,1.943,1.943,1.943,1.943,1.943,1.943,1.943,0.0,1.943,1.943,1.943,1.943,1.9105,1.8838,1.8838,1.8328,1.7902,1.7902,1.7756,1.7582,1.7582,1.7582,1.7582,1.7582,1.7582,1.7582,1.7582,1.7582,1.7502,1.7313,1.7286,1.7152,1.674,1.67,1.6567,1.6219,1.6192,1.6086,1.5798,1.5784,1.5784,1.5784,1.5784,1.5784,1.5784,1.5784,1.5784,1.5784,1.5784,1.5784,1.5784,1.5784,1.5784,0.0,0.0,0.0,0.0,0.0,0.0,0.0,0.0,0.0,0.0,0.0,2.1416,0.0,0.0,2.3487,2.4676,2.5224,2.5665,2.6106,2.6293,2.6172,2.5585,2.5651,2.5732,2.5732,2.5732,2.5611,2.5317,2.5291,2.4917,2.4035,2.3981,2.3714,2.3113,2.31,2.302,2.2928,2.2928,2.2792,2.2645,2.2645,2.2485,2.2205,2.2044,2.183,2.1614,2.139,2.1243,2.1109,2.1109,2.1109,2.1096,2.0949,2.0708,2.0441,2.0294,1.996,1.9586,1.9586,1.9492,1.943,1.943,1.943,1.943,1.943,1.943,1.943,1.943,1.943,1.943,1.943,1.9145,1.8918,1.8918,1.8422,1.7995,1.7995,1.7809,1.7582,1.7582,1.7582,1.7582,1.7582,1.7582,1.7582,1.7582,1.7582,1.7528,1.7434,1.7286,1.7085,1.674,1.658,1.6366,1.6072,1.6046,1.5992,1.5798,1.5784,1.5784,1.5784,1.5784,1.5784,1.5784,1.5784,1.5784,1.5784,1.5784,1.5784,1.5784,1.5784,1.5784,0.0,0.0,0.0,0.0,0.0,0.0,0.0,0.0,2.0869,2.0922,2.1443,2.2124,2.2899,2.3621,2.4529,2.5838,2.6333,2.664,2.6881,2.6907,2.664,2.5932,2.5959,2.6066,2.6119,2.6079,2.5892,2.5545,2.5518,2.513,2.4249,2.4209,2.3928,2.334,2.3327,2.318,2.2928,2.2926,2.2953,2.2953,2.2953,2.2832,2.2592,2.2285,2.1964,2.1681,2.1269,2.1109,2.1109,2.1109,2.1109,2.1109,2.1109,2.0962,2.0748,2.0695,2.0307,1.98,1.98,1.9613,1.943,1.943,1.943,1.943,1.943,1.943,1.943,1.943,1.943,1.943,1.943,1.9185,1.9011,1.9011,1.8597,1.8142,1.8089,1.7889,1.7649,1.7595,1.7582,1.7582,1.7582,1.7582,1.7582,1.7582,1.7582,1.7555,1.7502,1.734,1.7058,1.666,1.642,1.6152,1.5811,1.5784,1.5784,1.5784,1.5838,1.5912,1.5912,1.5965,1.5965,1.5912,1.5965,1.5939,1.5784,1.5885,1.5838,1.5784,1.5784,1.5784,2.1256,2.0949,2.0815,2.1015,2.0668,2.0481,0.0,0.0,2.1588,2.179,2.2525,2.3233,2.3607,2.4569,2.5545,2.6226,2.68,2.7175,2.7215,2.7215,2.7188,2.7081,2.664,2.644,2.6694,2.6493,2.6106,2.5558,2.5518,2.513,2.4249,2.4209,2.3928,2.334,2.3327,2.318,2.2928,2.314,2.3273,2.3273,2.3273,2.326,2.322,2.2913,2.2458,2.1911,2.1349,2.1109,2.1109,2.1109,2.1109,2.1109,2.1109,2.1096,2.1029,2.0775,2.0307,1.98,1.98,1.9613,1.943,1.943,1.943,1.943,1.943,1.943,1.943,1.943,1.943,1.943,1.943,1.9345,1.9319,1.9319,1.9065,1.8758,1.8504,1.821,1.7862,1.7635,1.7582,1.7582,1.7582,1.7582,1.7582,1.7582,1.7582,1.7488,1.7286,1.7219,1.6991,1.6429,1.6335,1.6152,1.5811,1.5784,1.5784,1.5784,1.6072,1.6219,1.6219,1.6473,1.6486,1.6233,1.6473,1.6353,1.5784,1.6099,1.6086,1.5784,1.5784,1.5784,2.143,2.1149,2.0922,0.0,2.0802,2.0842,2.1216,2.1563,2.1991,2.2632,2.3474,2.4289,2.493,2.5718,2.6466,0.0,2.7362,2.7522,2.7522,2.7375,2.7201,2.7028,2.664,2.6507,2.6787,2.656,2.6213,2.5798,2.5611,2.5277,2.4743,2.4396,2.4008,2.3594,2.342,2.326,2.314,2.326,2.3327,2.3327,2.3327,2.3233,2.3046,2.2739,2.2285,2.171,2.1296,2.1109,2.1109,2.1109,2.1109,2.1109,2.1109,2.1109,2.1096,2.0975,2.0668,2.0307,2.0307,2.012,1.984,1.9679,1.9626,1.9586,1.947,1.943,1.943,1.943,1.943,1.943,1.943,1.943,1.943,1.943,1.9145,1.8838,1.8557,1.8263,1.7902,1.7649,1.7582,1.7582,1.7582,1.7582,1.7582,1.7582,1.7582,1.7542,1.7474,1.73,1.7045,1.6567,1.6526,1.6473,1.6353,1.6339,1.6339,1.6339,1.646,1.6526,1.6526,1.6647,1.6647,1.6526,1.6647,1.65,1.6086,1.638,1.6366,1.6086,1.6259,1.6339,2.143,0.0,0.0,2.0949,2.1136,2.139,2.155,2.2111,2.2806,2.3541,2.4449,2.5317,2.5959,2.6547,2.7108,2.7615,2.7696,2.7696,2.7696,2.7455,2.7161,2.6854,2.6426,2.6266,2.656,2.6466,2.6266,2.605,2.5758,2.5478,2.5104,2.4676,2.4275,2.3901,2.3688,2.3487,2.3327,2.3407,2.3407,2.3327,2.3327,2.3207,2.2979,2.2512,2.2071,2.1722,2.1269,2.1109,2.1109,2.1109,2.1109,2.1109,2.1109,2.1109,2.1109,2.1109,2.0922,2.0681,2.0681,2.0481,2.0187,1.9893,1.98,1.9746,1.9452,1.943,1.943,1.943,1.943,1.943,1.943,1.943,1.943,1.943,1.9145,1.8865,1.8651,1.8317,1.7929,1.7756,1.7635,1.7582,1.7582,1.7582,1.7582,1.7582,1.7582,1.7582,1.7582,1.738,1.7125,1.6847,1.6754,1.67,1.67,1.67,1.67,1.67,1.678,1.6834,1.6834,1.6901,1.6914,1.6834,1.6901,1.6767,1.6393,1.6687,1.6673,1.6393,1.6607,1.67,0.0,0.0,2.1176,2.1521,2.1737,2.2111,2.2686,2.35,2.4222,2.4529,2.5518,2.6346,2.6373,2.6854,2.7348,2.7655,2.7696,2.7696,2.7696,2.7455,2.7161,2.6854,2.6066,2.5651,0.0,2.6226,2.6266,2.605,2.6023,2.5769,2.5104,2.5064,2.4783,2.4209,2.4182,2.3901,2.334,2.3607,2.3607,2.3327,2.3327,2.3327,2.3287,2.2405,2.1991,2.1937,2.1363,2.1109,2.1109,2.1109,2.1109,2.1109,2.1109,2.1109,2.1109,2.1109,2.0922,2.0681,2.0681,2.0481,2.0187,1.9893,1.98,1.9746,1.9452,1.943,1.943,1.943,1.943,1.943,1.943,1.943,1.943,1.943,1.9145,1.8918,1.8918,1.8395,1.7995,1.7982,1.7796,1.7582,1.7582,1.7582,1.7582,1.7582,1.7582,1.7582,1.7582,1.738,1.7192,1.7192,1.6874,1.67,1.67,1.67,1.67,1.67,1.7032,1.7192,1.7192,1.7408,1.7474,1.7192,1.746,1.7275,1.67,1.7045,1.7032,1.6687,1.67,1.67,0.0,0.0,2.2044,2.2352,2.2645,2.3033,2.3621,2.4128,2.469,2.5371,2.5518,2.5571,2.5772,2.6132,2.6506,2.6533,2.7188,2.7629,2.7442,2.7321,2.6934,2.6066,2.5865,0.0,0.0,0.0,0.0,2.5651,2.5478,2.5291,2.509,2.4716,2.4409,2.4209,2.4022,2.3915,2.3915,2.3821,2.3714,2.3621,2.3207,2.2913,2.2712,2.2205,2.1884,2.1735,2.1283,2.1109,2.1109,2.1109,2.1109,2.1109,2.1109,2.1109,2.1109,2.1109,2.1042,2.0962,2.0962,2.0895,2.0762,2.0468,2.0388,2.0321,2.0027,1.9813,1.9653,1.9653,1.9519,1.943,1.943,1.943,1.943,1.943,1.9292,1.9158,1.8971,1.8771,1.8515,1.8384,1.8263,1.8183,1.8183,1.8183,1.8116,1.7916,1.7716,1.7582,1.7582,1.7502,1.7487,1.7487,1.7341,1.7288,1.7288,1.7288,1.7288,1.7288,1.7382,1.7487,1.7487,1.7528,1.7542,1.7487,1.7528,1.7395,1.7058,1.734,1.734,1.7058,1.7194,1.7288,0.0,2.2432,2.2792,2.2979,2.342,2.3901,2.4275,2.4743,2.5211,2.5571,2.5424,2.5224,2.5197,2.5277,2.5371,2.5464,2.6026,2.6493,2.6627,2.6453,2.6119,2.5585,2.5491,2.5264,0.0,0.0,0.0,2.5478,2.5344,2.5184,2.509,2.4716,2.4476,2.4369,2.4182,2.4075,2.4048,2.3861,2.3661,2.3434,2.2939,2.2605,2.2405,2.2004,2.1724,2.1601,2.1243,2.1109,2.1109,2.1109,2.1109,2.1109,2.1109,2.1109,2.1109,2.1109,2.1109,2.1109,2.1109,2.1109,2.1069,2.0775,2.0681,2.0615,2.0321,2.0027,1.98,1.98,1.9586,1.943,1.943,1.943,1.943,1.943,1.9292,1.9185,1.9105,1.8918,1.8744,1.8664,1.8557,1.849,1.849,1.849,1.8397,1.8035,1.7876,1.7702,1.7595,1.7582,1.7582,1.7582,1.7582,1.7582,1.7582,1.7582,1.7582,1.7582,1.7582,1.7582,1.7582,1.7582,1.7582,1.7582,1.7582,1.7541,1.7353,1.7541,1.7488,1.7367,1.7502,1.7582,2.2365,2.2966,2.342,2.3434,2.4062,2.4676,2.4676,2.5317,2.5822,2.517,2.5224,2.5197,0.0,0.0,2.4235,2.4516,2.4409,2.4596,2.5438,2.509,2.4943,0.0,0.0,0.0,0.0,0.0,0.0,2.5451,0.0,2.5358,2.509,2.5077,2.4957,2.4676,2.4649,2.4369,2.3794,2.3768,2.3447,2.2928,2.2579,2.2432,2.2405,2.183,2.1628,2.1601,2.1243,2.1109,2.1109,2.1109,2.1109,2.1109,2.1109,2.1109,2.1109,2.1109,2.1109,2.1109,2.1109,2.1109,2.1069,2.0788,2.0695,2.0641,2.0361,2.008,1.984,1.9826,1.9613,1.9444,1.943,1.943,1.943,1.943,1.9158,1.9025,1.9305,1.8931,1.8624,1.8891,1.8731,1.8531,1.8531,1.8517,1.841,1.8075,1.8022,1.7902,1.7662,1.7595,1.7595,1.7609,1.7595,1.7582,1.7582,1.7582,1.7582,1.7582,1.7595,1.7609,1.7609,1.7622,1.7635,1.7635,1.7609,1.7609,1.7609,1.7595,1.7582,1.7582,1.7582,1.7582,2.3848,2.4342,2.469,2.4903,2.5117,2.5291,2.5291,2.5291,2.5197,2.4823,2.4102,2.3354,0.0,0.0,0.0,2.3607,2.4703,0.0,2.6106,2.6226,0.0,2.5571,0.0,2.5451,2.501,2.4903,0.0,0.0,2.5104,2.4917,2.5077,2.5077,2.505,2.497,2.4756,2.4462,2.4102,2.3661,2.3247,2.2928,2.2779,2.2632,2.2405,2.2044,2.1764,2.1601,2.1243,2.1109,2.1109,2.1109,2.1109,2.1109,2.1109,2.1109,2.1109,2.1109,2.1109,2.1109,2.1109,2.1109,2.1096,2.1029,2.1002,2.0989,2.0909,2.0681,2.0401,2.0187,1.9907,1.9639,1.9426,1.943,1.943,1.943,1.9305,1.9279,1.9359,1.931,1.9172,1.9239,1.9199,1.9145,1.9145,1.8958,1.8784,1.8661,1.8517,1.8343,1.8263,1.7862,1.7662,1.7876,1.7716,1.7582,1.7582,1.7582,1.7582,1.7582,1.7796,1.7916,1.7903,1.813,1.8263,1.8263,1.8036,1.7876,1.7876,1.7702,1.7582,1.7582,1.7582,1.7582,2.497,2.5438,2.5665,2.5692,2.5705,2.5611,2.5211,2.4997,2.469,2.3995,2.322,0.0,2.1737,0.0,0.0,0.0,0.0,0.0,2.5545,2.5758,2.5825,0.0,2.5852,0.0,2.5317,2.5277,2.5331,0.0,2.509,2.4903,2.5077,2.5077,2.5024,2.489,2.473,2.4436,2.4022,2.342,2.3033,2.2928,2.2726,2.2512,2.2218,2.1924,2.163,2.1349,2.1189,2.1109,2.1109,2.1109,2.1109,2.1109,2.1109,2.1109,2.1109,2.1109,2.1109,2.1109,2.1109,2.1109,2.1109,2.1109,2.1109,2.1109,2.1109,2.0909,2.0641,2.0468,2.012,1.976,1.9599,1.9466,1.943,1.943,1.943,1.943,1.943,1.943,1.943,1.943,1.943,1.9332,1.9199,1.9145,1.9078,1.8945,1.8784,1.8731,1.8865,1.8357,1.7996,1.8023,1.7889,1.7729,1.7595,1.7582,1.7582,1.7582,1.7742,1.7903,1.8023,1.8196,1.8357,1.849,1.833,1.8183,1.7995,1.7996,1.7916,1.7796,1.7916,1.7916,2.5905,2.6319,2.644,2.6199,2.6079,2.5785,2.4903,2.4569,2.4142,2.2979,0.0,2.2004,2.1203,2.1537,2.1897,2.1869,0.0,2.3728,2.473,2.4836,2.5104,2.5919,2.6012,2.5919,2.5651,2.5598,2.5585,2.5625,2.5358,2.5184,2.5144,2.5104,2.4943,2.4649,2.4596,2.4315,2.3768,2.3207,2.2968,2.2928,2.2605,2.2325,2.2031,2.1815,2.1443,2.1162,2.1122,2.1109,2.1109,2.1109,2.1109,2.1109,2.1109,2.1109,2.1109,2.1109,2.1109,2.1109,2.1109,2.1109,2.1109,2.1109,2.1109,2.1109,2.1109,2.0935,2.0722,2.0681,2.0307,1.9907,1.9867,1.9639,1.9426,1.9426,1.9457,1.943,1.943,1.943,1.943,1.943,1.943,1.9292,1.9025,1.9199,1.9279,1.9025,1.8985,1.9078,1.9332,1.8851,1.841,1.8129,1.8075,1.7996,1.7729,1.7702,1.7702,1.7702,1.7742,1.7876,1.8102,1.8142,1.8343,1.8597,1.8571,1.8424,1.8115,1.8384,1.8357,1.8062,1.837,1.8357,2.6867,2.7081,2.7108,2.7054,2.668,2.6079,2.5197,2.4249,0.0,0.0,2.171,2.1216,2.0828,2.1229,2.1937,2.2873,0.0,0.0,0.0,0.0,2.5879,0.0,0.0,0.0,2.6239,2.6026,0.0,0.0,2.5972,2.5692,2.5451,2.5211,2.4943,2.4649,2.4396,2.4115,2.3768,2.342,2.3113,2.2928,2.2806,2.2632,2.2338,2.2044,2.175,2.1521,2.1216,0.0,2.1109,2.1109,2.1109,2.1109,2.1109,2.1109,2.1109,2.1109,2.1109,2.1109,2.1109,2.1109,2.1109,2.1109,2.1109,2.1109,2.1109,2.1069,2.0989,2.0748,2.0601,2.0468,2.0214,1.9947,1.972,1.972,1.9546,1.943,1.943,1.943,1.943,1.943,1.943,1.9359,1.9305,1.9332,1.9403,1.9292,1.9292,1.9305,1.9417,1.8851,1.8557,1.8758,1.8557,1.8397,1.8343,1.833,1.833,1.833,1.8557,1.8718,1.8715,1.9011,1.9158,1.9212,1.8971,1.8824,1.8715,1.8584,1.8464,1.841,1.8464,1.8464,2.7602,2.7805,2.7765,2.7535,2.6827,2.5892,2.4863,0.0,0.0,0.0,2.1309,2.1015,2.0735,0.0,0.0,0.0,0.0,0.0,0.0,0.0,0.0,0.0,0.0,0.0,0.0,2.6266,2.6239,2.6373,2.6119,2.5825,2.5531,2.509,2.4783,2.4636,2.4356,2.4062,2.3768,2.3474,2.3166,2.2928,2.2928,2.2632,2.2191,2.2044,2.1737,2.1309,2.1176,2.1109,2.1109,2.1109,2.1109,2.1109,2.1109,2.1109,2.1109,2.1109,2.1109,2.1109,2.1109,2.1109,2.1109,2.1109,2.1109,2.1109,2.1109,2.1109,2.1082,2.0935,2.0788,2.0641,2.0494,2.0241,2.0027,2.0027,1.98,1.9586,1.9586,1.9479,1.943,1.943,1.943,1.943,1.943,1.943,1.943,1.943,1.943,1.943,1.943,1.9118,1.8945,1.8918,1.8798,1.8651,1.8504,1.849,1.849,1.849,1.8624,1.8771,1.8918,1.9065,1.9212,1.9417,1.9225,1.9078,1.8918,1.8945,1.8865,1.8718,1.8878,1.8865,2.8167,2.8221,2.8167,2.7856,2.6867,2.5665,2.4556,2.3273,0.0,0.0,2.1056,2.0962,2.0802,0.0,2.179,0.0,0.0,0.0,0.0,0.0,0.0,0.0,0.0,0.0,0.0,2.6386,0.0,2.6386,2.6119,2.5798,2.5438,2.4983,2.4703,2.4562,2.4422,2.4128,2.3768,2.3541,2.3233,2.2928,2.2928,2.2592,2.2084,2.2084,2.1764,2.1203,2.1203,2.1162,2.1109,2.1109,2.1109,2.1109,2.1109,2.1109,2.1109,2.1109,2.1109,2.1109,2.1109,2.1109,2.1109,2.1109,2.1109,2.1109,2.1109,2.1109,2.1109,2.1109,2.0949,2.0775,2.0775,2.0548,2.0307,2.0254,2.0054,1.9893,1.9893,1.972,1.9546,1.9546,1.9546,1.9533,1.9466,1.9466,1.9497,1.943,1.943,1.943,1.943,1.943,1.9279,1.9038,1.9025,1.8931,1.8704,1.8677,1.8677,1.8677,1.8677,1.8784,1.9011,1.9025,1.9132,1.9359,1.943,1.9252,1.9025,1.9252,1.9252,1.9025,1.9265,1.9239,2.8221,2.8221,2.8221,2.8194,2.7095,2.5718,2.481,0.0,0.0,2.1243,2.0895,2.0788,2.1029,2.1136,2.1443,0.0,0.0,2.2672,0.0,0.0,0.0,0.0,0.0,0.0,0.0,2.6386,2.6386,2.6386,2.6119,2.5718,2.5144,2.5064,2.4917,2.4649,2.4609,2.4329,2.3768,2.3741,2.3434,2.2928,2.2928,2.2699,2.2378,2.2378,2.2058,2.1574,2.1574,2.1363,0.0,2.1109,2.1109,2.1109,2.1109,2.1109,2.1109,2.1109,2.1109,2.1109,2.1109,2.1109,2.1109,2.1109,2.1109,2.1109,2.1109,2.1109,2.1109,2.1109,2.1096,2.1069,2.1069,2.0855,2.0575,2.0294,2.0153,2.0127,2.0127,2.0113,2.0147,2.0147,2.0147,2.0067,1.9813,1.976,1.9666,1.947,1.943,1.943,1.943,1.943,1.9417,1.939,1.9332,1.9319,1.935,1.935,1.935,1.935,1.935,1.935,1.9332,1.9332,1.939,1.943,1.943,1.9359,1.9332,1.9359,1.9359,1.9332,1.9417,1.9359,2.8033,2.8221,2.8221,2.8221,2.6854,2.5291,2.4756,0.0,2.1603,2.1189,2.1015,2.0975,2.1082,2.0962,2.1015,2.155,0.0,0.0,0.0,0.0,0.0,0.0,0.0,0.0,0.0,0.0,2.6386,2.6386,2.6279,2.6039,2.5625,2.5277,2.5024,2.4903,2.473,2.4436,2.4035,2.3861,2.3554,2.314,2.2953,2.2712,2.2418,2.2418,2.2098,2.1614,2.1614,2.139,0.0,2.1109,2.1109,2.1109,2.1109,2.1109,2.1109,2.1109,2.1109,2.1109,2.1109,2.1109,2.1109,2.1109,2.1109,2.1109,2.1109,2.1109,2.1109,2.1109,2.1109,2.1109,2.1109,2.1029,2.0909,2.0788,2.0628,2.0494,2.0494,2.0361,2.0167,2.0167,2.0167,2.0201,2.008,2.0054,2.0013,1.9907,1.9733,1.9626,1.9626,1.9479,1.943,1.943,1.943,1.943,1.943,1.943,1.943,1.943,1.943,1.943,1.943,1.943,1.943,1.943,1.943,1.943,1.943,1.943,1.943,1.943,1.943,1.943,2.7495,2.8033,2.8221,2.8221,2.6667,2.5104,0.0,0.0,2.1577,2.1189,2.1109,2.1109,2.1109,2.0949,2.0869,0.0,0.0,2.0909,2.2124,0.0,0.0,0.0,0.0,2.5037,0.0,2.6239,2.6386,2.6386,2.6386,2.6306,2.6092,2.5611,2.5264,2.509,2.4796,2.4489,2.4209,2.3995,2.3701,2.3327,2.31,2.2846,2.2552,2.2552,2.2285,2.1804,2.1804,2.1643,0.0,2.1269,2.1243,2.1229,2.1149,2.1109,2.1109,2.1109,2.1109,2.1109,2.1109,2.1109,2.1109,2.1109,2.1109,2.1109,2.1109,2.1109,2.1109,2.1109,2.1109,2.1109,2.1109,2.1109,2.1109,2.1109,2.0949,2.0802,2.0802,2.0641,2.0494,2.0494,2.0494,2.0468,2.0374,2.0361,2.0334,2.018,2.0054,1.9893,1.9813,1.9626,1.9466,1.943,1.943,1.943,1.943,1.943,1.943,1.943,1.943,1.943,1.943,1.943,1.943,1.943,1.943,1.943,1.943,1.943,1.943,1.943,1.943,1.943,2.6747,2.7468,2.8221,2.8221,2.6814,2.5358,0.0,0.0,2.1817,2.1229,2.1109,2.1109,2.1109,2.1109,2.1109,2.1109,2.1109,0.0,2.1911,0.0,0.0,0.0,0.0,2.4128,2.501,2.5879,2.6386,2.6386,2.6386,0.0,2.6386,2.6106,2.5678,2.5104,2.4796,2.4489,2.4209,2.4195,2.3901,2.3327,2.3327,2.3153,2.2859,2.2859,2.2699,2.2405,2.2405,2.2245,0.0,2.167,2.1614,2.1588,2.1229,2.1109,2.1109,2.1109,2.1109,2.1109,2.1109,2.1109,2.1109,2.1109,2.1109,2.1109,2.1109,2.1109,2.1109,2.1109,2.1109,2.1109,2.1109,2.1109,2.1109,2.1109,2.1109,2.1109,2.1109,2.1096,2.1096,2.1096,2.1096,2.1002,2.0722,2.0668,2.0575,2.0281,2.0227,2.012,1.984,1.98,1.9679,1.9457,1.943,1.943,1.943,1.943,1.943,1.943,1.943,1.943,1.943,1.943,1.943,1.943,1.943,1.943,1.943,1.943,1.943,1.943,1.943,1.943,2.5144,2.5678,2.5999,2.5798,2.4716,2.3647,2.346,0.0,2.1336,2.1149,2.1109,2.1109,2.1109,2.0949,2.0882,2.1082,2.0949,0.0,0.0,0.0,0.0,0.0,2.477,2.5665,0.0,0.0,2.6386,2.6386,2.6386,2.6386,2.6386,2.6119,2.5879,2.5692,2.5197,2.489,2.481,2.4409,2.4102,2.3928,2.3527,2.3273,2.318,2.2953,2.2699,2.2418,2.2418,2.2258,2.1964,2.1735,2.1614,2.1588,2.1229,2.1109,2.1109,2.1109,2.1109,2.1109,2.1109,2.1109,2.1109,2.1109,2.1109,2.1109,2.1109,2.1109,2.1109,2.1109,2.1109,2.1109,2.1109,2.1109,2.1109,2.1109,2.1109,2.1109,2.1109,2.1109,2.1109,2.1109,2.1109,2.1082,2.0989,2.0975,2.0935,2.0842,2.0668,2.0508,2.0414,2.0227,2.0054,1.9973,1.996,1.98,1.9457,1.943,1.943,1.943,1.943,1.943,1.943,1.943,1.943,1.943,1.943,1.943,1.943,1.943,1.943,1.943,1.943,1.943,0.0,2.4609,2.489,2.4823,2.3915,0.0,0.0,0.0,2.1243,2.1136,2.1109,2.1109,2.1109,2.0962,2.0895,2.1082,2.0962,0.0,0.0,0.0,0.0,2.3474,0.0,0.0,0.0,2.64,2.6627,2.6413,2.6493,2.6507,2.64,2.6213,2.6119,2.6119,2.5451,2.5077,2.5077,2.4609,2.4315,2.4195,2.3728,2.3434,2.3313,2.3006,2.2766,2.2579,2.2579,2.2418,0.0,2.1951,2.175,2.1601,2.1349,2.1203,2.1109,2.1109,2.1109,2.1109,2.1109,2.1109,2.1109,2.1109,2.1109,2.1109,2.1109,2.1109,2.1109,2.1109,2.1109,2.1109,2.1109,2.1109,2.1109,2.1109,2.1109,2.1109,2.1109,2.1109,2.1109,2.1109,2.1109,2.1109,2.1109,2.1109,2.1109,2.1109,2.0949,2.0802,2.0695,2.0508,2.0361,2.018,2.0167,2.008,1.972,1.9599,1.9479,1.943,1.943,1.943,1.943,1.943,1.943,1.943,1.943,1.943,1.943,1.943,1.943,1.943,1.943,1.943,0.0,0.0,0.0,0.0,0.0,0.0,0.0,0.0,0.0,2.1162,2.1109,2.1109,2.1109,2.1109,2.1096,2.1082,2.1096,0.0,0.0,2.1844,0.0,0.0,2.4703,0.0,2.517,2.6386,2.6987,2.6453,2.6653,2.668,2.64,2.6386,2.6386,2.6386,2.5558,2.5117,2.5117,2.4796,2.4502,2.4222,2.3915,2.3621,2.334,2.3006,2.2928,0.0,2.2928,2.2712,2.2445,2.2405,2.2071,2.1641,2.1601,2.1349,2.1109,2.1109,2.1109,2.1109,2.1109,2.1109,2.1109,2.1109,2.1109,2.1109,2.1109,2.1109,2.1109,2.1109,2.1109,2.1109,2.1109,2.1109,2.1109,2.1109,2.1109,2.1109,2.1109,2.1109,2.1109,2.1109,2.1109,2.1109,2.1109,2.1109,2.1109,2.1109,2.1109,2.1015,2.0735,2.0708,2.0601,2.0321,2.0233,2.0294,2.0267,2.0,1.972,1.9452,1.9484,1.9484,1.9484,1.947,1.9457,1.9457,1.9457,1.9457,1.9457,1.9457,1.9444,1.943,1.943,1.943,2.1924,0.0,2.2245,2.2084,2.183,2.1617,0.0,0.0,0.0,0.0,0.0,0.0,0.0,0.0,2.1042,2.0815,0.0,0.0,2.0909,0.0,0.0,2.4556,2.5571,2.6066,2.5772,2.6266,2.6627,2.6707,2.6573,2.6466,2.6386,2.6386,2.6386,2.6386,2.5758,2.5411,2.5411,2.489,2.4609,2.4529,2.4022,2.3728,2.3647,2.3113,2.2928,2.2928,2.2928,2.2887,2.2726,2.2271,2.2004,2.1844,2.139,2.1176,2.1109,2.1109,2.1109,2.1109,2.1109,2.1109,2.1109,2.1109,2.1109,2.1109,2.1109,2.1109,2.1109,2.1109,2.1109,2.1109,2.1109,2.1109,2.1109,2.1109,2.1109,2.1109,2.1109,2.1109,2.1109,2.1109,2.1109,2.1109,2.1109,2.1109,2.1109,2.1109,2.1109,2.1082,2.1015,2.1002,2.0989,2.0909,2.0909,2.0815,2.0588,2.0307,2.0107,2.004,2.0027,2.0027,2.0027,1.9813,1.9693,1.9693,1.9693,1.9693,1.9693,1.9693,1.9586,1.943,1.943,1.943,2.1309,2.1349,2.1336,2.1323,2.1203,2.1109,2.1109,0.0,0.0,0.0,0.0,0.0,0.0,0.0,0.0,0.0,2.0815,0.0,0.0,0.0,2.3728,2.4756,2.5531,2.6079,0.0,2.6613,2.68,2.6827,2.668,2.6533,2.64,2.6386,2.6386,2.6386,2.5959,2.5651,2.5518,2.493,2.4636,2.4549,2.4048,2.3768,2.3754,2.3209,2.2928,2.2928,2.2928,2.2779,2.2645,2.2458,2.2151,2.1764,2.159,2.143,2.1309,2.1309,2.1309,2.1309,2.1309,2.1229,2.1109,2.1109,2.1109,2.1109,2.1109,2.1109,2.1109,2.1109,2.1109,2.1109,2.1109,2.1109,2.1109,2.1109,2.1109,2.1109,2.1109,2.1109,2.1109,2.1109,2.1109,2.1109,2.1109,2.1109,2.1109,2.1109,2.1109,2.1109,2.1109,2.1109,2.1109,2.1109,2.1109,2.1042,2.0895,2.0722,2.0521,2.0193,2.0167,2.0167,2.0167,2.008,2.0,2.0,2.0,1.9933,1.98,1.9933,1.9853,1.9573,1.9706,1.976,2.1122,2.1149,2.1229,2.1494,2.1296,2.1109,2.1109,0.0,0.0,0.0,0.0,0.0,0.0,2.0708,0.0,0.0,0.0,0.0,2.2124,2.2766,2.3527,2.4583,2.5264,0.0,2.6627,2.6961,2.7041,2.6841,2.6787,2.6653,2.64,2.6386,2.6386,2.6386,2.6066,2.5772,2.5518,2.497,2.4676,2.4549,2.4048,2.3768,2.3754,2.3209,2.2928,2.2928,2.2928,0.0,2.2498,2.2712,2.2418,2.1762,2.1857,2.1764,2.1614,2.1614,2.1588,2.1547,2.1547,2.1323,2.1109,2.1109,2.1109,2.1109,2.1109,2.1109,2.1109,2.1109,2.1109,2.1109,2.1109,2.1109,2.1109,2.1109,2.1109,2.1122,2.1162,2.1149,2.1136,2.1229,2.1176,2.1122,2.1162,2.1136,2.1109,2.1109,2.1109,2.1109,2.1109,2.1109,2.1109,2.1109,2.1109,2.1109,2.1109,2.1109,2.0895,2.0401,2.0374,2.0347,2.0307,2.0294,2.0294,2.0294,2.0294,2.016,1.9867,2.0107,2.0054,1.9746,2.0027,2.0174,2.1176,2.1296,2.1494,2.1229,2.1149,2.1109,2.1109,0.0,0.0,0.0,0.0,0.0,0.0,2.0882,2.0882,0.0,0.0,2.1976,0.0,0.0,2.4529,2.4957,0.0,2.6213,2.6106,2.636,2.66,2.6814,2.66,2.644,2.6386,2.6386,2.6386,2.6386,2.5865,2.5558,2.5518,2.5184,2.489,2.4549,2.4048,2.3768,2.3754,2.3209,2.2928,2.2928,0.0,2.2832,2.2779,2.2565,2.2405,2.2245,2.179,2.1655,2.1614,2.1614,2.139,2.1176,2.1176,2.1149,2.1109,2.1109,2.1109,2.1109,2.1109,2.1109,2.1109,2.1109,2.1109,2.1109,2.1109,2.1109,2.1109,2.1109,2.1109,2.1176,2.143,2.1283,2.1256,2.175,2.1443,2.1189,2.1443,2.1269,2.1109,2.1109,2.1109,2.1109,2.1109,2.1109,2.1109,2.1109,2.1109,2.1109,2.1109,2.1109,2.1069,2.0975,2.0975,2.0869,2.0615,2.0615,2.0615,2.0615,2.0615,2.0468,2.0174,2.0153,1.996,1.9497,1.9733,1.9867,2.1149,2.1203,2.1283,2.1149,2.1229,2.1309,0.0,0.0,0.0,0.0,0.0,0.0,0.0,0.0,2.0949,2.1149,0.0,2.2311,2.3153,2.3514,2.3968,0.0,0.0,2.5705,2.636,2.64,2.6507,2.68,2.6547,2.6386,2.6386,2.6239,2.6159,2.6159,2.5732,2.5438,2.5277,2.5144,2.493,2.4636,2.4209,2.3928,2.3754,2.3313,2.302,2.2928,0.0,2.2928,2.2914,2.2712,2.2565,2.2392,2.2124,2.1924,2.1764,2.1681,2.1534,2.1323,2.1162,2.1216,2.1323,2.1162,2.1216,2.1323,2.1162,2.1109,2.1109,2.1109,2.1109,2.1109,2.1109,2.1109,2.1109,2.1109,2.1109,2.1149,2.1283,2.1203,2.1189,2.1456,2.1296,2.1149,2.1296,2.1203,2.1109,2.1109,2.1109,2.1109,2.1109,2.1109,2.1109,2.1109,2.1109,2.1109,2.1109,2.1109,2.1109,2.1109,2.1109,2.1042,2.0909,2.0909,2.0909,2.0909,2.0909,2.0762,2.0468,2.0628,2.0494,2.008,2.0374,2.0508,2.1122,2.1162,2.1203,2.1122,0.0,0.0,0.0,0.0,0.0,0.0,0.0,0.0,0.0,2.0775,0.0,2.1951,2.2392,2.2752,2.3126,2.337,2.3741,2.473,2.4903,2.5411,2.66,2.652,2.648,2.6707,2.652,2.6386,2.6386,2.6119,2.6037,2.6037,2.5598,2.5304,2.5077,2.501,2.4863,2.4636,2.4275,2.3981,2.3754,2.3394,2.3086,2.2928,2.2928,2.2928,2.2928,2.2928,2.2726,2.2512,2.2445,2.2285,2.2044,2.1764,2.1762,2.171,2.1416,2.147,2.1681,2.139,2.1416,2.1574,2.1283,2.1162,2.1122,2.1189,2.1216,2.1216,2.1216,2.1269,2.1309,2.1309,2.1309,2.1336,2.1403,2.1363,2.1349,2.1496,2.1349,2.1229,2.1309,2.1203,2.1109,2.1109,2.1109,2.1109,2.1109,2.1109,2.1109,2.1109,2.1109,2.1109,2.1109,2.1109,2.1109,2.1109,2.1109,2.1109,2.1109,2.1109,2.1109,2.1109,2.1109,2.0962,2.0681,2.0895,2.0855,2.0575,2.0869,2.1002,2.1189,2.1309,2.1521,2.1176,2.1122,0.0,2.1109,2.1323,0.0,2.1588,0.0,0.0,0.0,2.1082,2.1363,2.2245,2.2886,2.346,2.4022,0.0,2.505,2.5411,2.5692,2.6012,2.6386,2.64,2.64,2.6413,2.64,2.6386,2.6386,2.6119,2.6037,2.6037,2.5411,2.5104,2.5077,2.481,2.4589,2.4549,2.4075,2.3794,2.3754,2.3236,2.2954,2.2928,2.2928,2.2928,2.2928,2.2928,2.2914,2.2806,2.2525,2.2405,2.2352,2.2058,2.2124,2.2311,2.2031,2.1937,2.1951,2.1924,2.175,2.1614,2.1588,2.1323,2.1162,2.1507,2.1588,2.1588,2.1588,2.1724,2.1924,2.1924,2.1924,2.1991,2.2271,2.2111,2.2084,2.2632,2.215,2.1668,2.1871,2.147,2.1109,2.1109,2.1109,2.1109,2.1109,2.1109,2.1109,2.1109,2.1109,2.1109,2.1109,2.1109,2.1109,2.1109,2.1109,2.1109,2.1109,2.1109,2.1109,2.1109,2.1109,2.0962,2.0681,2.0695,2.0548,2.0207,2.0575,2.0708,2.1136,2.1189,2.1256,2.1136,2.1109,0.0,0.0,2.1617,2.1764,2.1655,2.1762,0.0,0.0,0.0,2.1884,2.2579,2.3207,2.3741,2.4142,2.4543,2.4917,2.5211,2.5504,2.5798,2.6092,2.6279,2.6386,2.6386,2.6386,2.6386,2.6386,2.5932,2.5678,2.5678,2.5104,2.4796,2.4796,2.469,2.4543,2.4369,2.4142,2.3941,2.3754,2.334,2.3046,2.2928,2.2928,2.2928,2.2928,2.2928,2.2928,2.2901,2.2539,2.2418,2.2378,2.2098,2.2058,2.2138,2.2031,2.2111,2.2191,2.183,2.1829,2.175,2.139,2.1323,2.1403,2.1588,2.1817,2.2044,2.1871,2.1897,2.1991,2.1991,2.1991,2.2017,2.2124,2.2058,2.2058,2.2271,2.2044,2.1857,2.1964,2.1804,2.159,2.1416,2.139,2.1323,2.1136,2.1109,2.1109,2.1109,2.1109,2.1109,2.1109,2.1109,2.1109,2.1109,2.1109,2.1109,2.1109,2.1109,2.1109,2.1109,2.1109,2.1056,2.0949,2.0949,2.0882,2.0775,2.0895,2.0949,2.1109,2.1109,2.1109,2.1109,0.0,0.0,2.1603,2.1911,2.2084,2.2057,2.2044,2.2031,2.1815,0.0,0.0,0.0,2.3233,2.3768,2.4155,2.4369,2.4636,2.5037,2.5251,2.5491,2.5785,2.6079,2.6213,2.6119,2.6199,2.6213,2.6119,2.5638,2.5371,2.5371,2.489,2.4636,2.4636,2.4543,2.4396,2.4195,2.4022,2.3821,2.3621,2.3313,2.306,2.2928,2.2928,2.2928,2.2928,2.2928,2.2928,2.2914,2.2632,2.2565,2.2539,2.2338,2.2205,2.2138,2.2231,2.2325,2.2365,2.2137,2.2044,2.2044,2.1643,2.1603,2.171,2.1804,2.2111,2.2392,2.2285,2.2258,2.2258,2.2258,2.2258,2.2258,2.2258,2.2258,2.2258,2.2258,2.2191,2.2124,2.2124,2.2044,2.1924,2.1724,2.1762,2.1577,2.1283,2.1256,2.1216,2.1122,2.1109,2.1109,2.1109,2.1109,2.1109,2.1109,2.1109,2.1109,2.1109,2.1109,2.1109,2.1109,2.1109,2.1109,2.1109,2.1109,2.1109,2.1109,2.1109,2.1109,2.1109,2.1109,2.1109,0.0,0.0,0.0,2.1844,2.2205,2.2498,2.2806,2.2619,2.2338,2.2044,2.1991,0.0,2.2378,2.2926,2.3527,2.4115,2.4195,2.4409,2.4997,2.5077,2.5197,2.5478,2.5785,2.5838,2.5545,2.5785,2.5825,2.5531,2.5237,2.5077,2.5077,2.4783,2.4549,2.4549,2.4342,2.4195,2.4182,2.3607,2.3327,2.3313,2.3006,2.2928,2.2928,2.2928,2.2928,2.2928,2.2928,2.2928,2.2928,2.2928,2.2928,2.2928,2.2928,2.2672,2.2472,2.2752,2.2672,2.2472,2.2766,2.2659,2.2418,2.2418,2.2218,2.2044,2.2338,2.2418,2.2485,2.2779,2.2928,2.2928,2.2928,2.2928,2.2928,2.2928,2.2928,2.2928,2.2928,2.2619,2.2418,2.2418,2.2178,2.1991,2.1991,2.1977,2.1884,2.1655,2.1614,2.1494,2.1149,2.1109,2.1109,2.1109,2.1109,2.1109,2.1109,2.1109,2.1109,2.1109,2.1109,2.1109,2.1109,2.1109,2.1109,2.1109,2.1109,2.1109,2.1109,2.1109,2.1109,2.1109,2.1109,0.0,2.1109,0.0,0.0,0.0,2.2044,0.0,0.0,2.2619,2.2392,2.2311,2.2285,0.0,2.2405,2.2926,2.3394,2.3567,2.3768,2.4035,2.4422,2.4636,2.4957,2.5464,2.5785,2.6012,2.6119,2.6026,2.5996,2.5825,2.5344,2.4983,2.477,2.4489,2.4235,2.4035,2.3941,2.3794,2.3581,2.3407,2.3327,2.3313,2.3006,2.2928,2.2928,2.2928,2.2928,2.2928,2.2928,2.2928,2.2928,2.2928,2.2928,2.2928,2.2928,2.2806,2.2739,2.2901,2.2806,2.2712,2.2592,2.2485,2.2378,2.2178,2.2191,2.2311,2.2392,2.2565,2.2752,2.2846,2.2928,2.2928,2.2928,2.2928,2.2928,2.2928,2.2928,2.2928,2.2928,2.2792,2.2726,2.2726,2.2485,2.2218,2.2017,2.1817,2.1577,2.1283,2.1243,2.1203,2.1122,2.1109,2.1109,2.1109,2.1109,2.1109,2.1109,2.1109,2.1109,2.1109,2.1109,2.1109,2.1109,2.1109,2.1109,2.1109,2.1109,2.1109,2.1109,2.1109,2.1109,2.1109,2.1109,0.0,2.1256,2.1416,2.1695,2.1924,0.0,0.0,0.0,0.0,2.2592,2.2592,2.2405,0.0,2.2405,2.2726,2.3046,2.33,2.3487,2.3741,2.4155,2.4356,2.4703,2.5291,2.5611,2.5852,2.6026,2.5879,2.5732,2.5611,2.505,2.4649,2.4476,2.4182,2.3941,2.3768,2.3647,2.35,2.3327,2.3207,2.314,2.314,2.2953,2.2928,2.2928,2.2928,2.2928,2.2928,2.2928,2.2928,2.2928,2.2928,2.2928,2.2928,2.2928,2.2792,2.2699,2.2819,2.2779,2.2672,2.2619,2.2592,2.2565,2.2392,2.2458,2.2592,2.2592,2.2726,2.2928,2.2928,2.2928,2.2928,2.2928,2.2928,2.2928,2.2928,2.2928,2.2928,2.2928,2.2928,2.2928,2.2928,2.2619,2.2392,2.2338,2.1991,2.1617,2.1323,2.1189,2.1109,2.1109,2.1109,2.1109,2.1109,2.1109,2.1109,2.1109,2.1109,2.1109,2.1109,2.1109,2.1109,2.1109,2.1109,2.1109,2.1109,2.1109,2.1109,2.1109,2.1109,2.1109,2.1122,2.1122,0.0,2.1547,2.1655,0.0,2.2004,2.2699,2.334,2.3567,0.0,2.2886,2.2792,2.2392,2.2138,2.2378,2.2418,2.2619,2.3207,2.326,2.346,2.4048,2.4142,2.4396,2.4983,2.5331,2.5518,2.5518,2.5518,2.5384,2.509,2.4516,2.4195,2.4168,2.3888,2.3714,2.3688,2.342,2.3287,2.3287,2.2993,2.2928,2.2928,2.2928,2.2928,2.2928,2.2928,2.2928,2.2928,2.2928,2.2928,2.2928,2.2928,2.2928,2.2928,2.2928,2.2699,2.2498,2.2766,2.2686,2.2498,2.2779,2.2928,2.2928,2.2928,2.2928,2.2928,2.2928,2.2928,2.2928,2.2928,2.2928,2.2928,2.2928,2.2928,2.2928,2.2928,2.2928,2.2928,2.2928,2.2928,2.2928,2.2928,2.2619,2.2498,2.2712,2.2285,2.1844,2.1614,2.1269,2.1109,2.1109,2.1109,2.1109,2.1109,2.1109,2.1109,2.1109,2.1109,2.1109,2.1109,2.1109,2.1109,2.1109,2.1109,2.1109,2.1109,2.1109,2.1109,2.1109,2.1109,2.1109,2.1176,2.1283,0.0,0.0,2.1897,2.2311,2.2605,2.2819,2.2846,2.2458,2.2832,2.3006,2.2311,2.2445,2.2619,2.2445,2.2418,2.2552,2.2913,2.2766,2.2832,2.3447,2.3728,2.4088,2.4676,2.5211,2.5518,2.5518,2.5518,2.5384,2.509,2.4516,2.4102,2.3875,2.3581,2.33,2.3129,2.2993,2.2966,2.2966,2.2968,2.2928,2.2928,2.2928,2.2928,2.2928,2.2928,2.2928,2.2928,2.2928,2.2928,2.2928,2.2928,2.2928,2.2928,2.2928,2.2819,2.2779,2.2846,2.2819,2.2779,2.2914,2.2928,2.2928,2.2928,2.2928,2.2928,2.2928,2.2928,2.2928,2.2928,2.2928,2.2928,2.2928,2.2928,2.2928,2.2928,2.2928,2.2928,2.2928,2.2928,2.2928,2.2928,2.2619,2.2285,2.1963,2.1789,2.1537,2.1243,2.1149,2.1109,2.1109,2.1109,2.1109,2.1109,2.1109,2.1109,2.1109,2.1109,2.1109,2.1109,2.1109,2.1109,2.1109,2.1109,2.1109,2.1109,2.1109,2.1109,2.1109,2.1109,2.1109,2.1189,0.0,0.0,2.1897,0.0,2.2632,2.2645,2.2645,2.2485,2.1897,2.2378,2.2712,2.2098,2.2124,2.2231,2.2218,2.2098,2.2111,2.2405,2.2432,2.2592,2.3046,2.338,2.3848,2.4569,2.4917,2.5211,2.5491,2.5384,2.5237,2.509,2.4396,2.3928,2.3768,2.334,2.3033,2.2928,2.2928,2.2792,2.2645,2.2645,2.2579,2.2458,2.2807,2.2928,2.2928,2.2928,2.2928,2.2928,2.2928,2.2779,2.2659,2.2806,2.2779,2.2672,2.2806,2.2928,2.2928,2.2928,2.2766,2.2672,2.2887,2.2766,2.2672,2.2819,2.2928,2.2928,2.2928,2.2928,2.2928,2.2928,2.2928,2.2928,2.2928,2.2928,2.2928,2.2928,2.2928,2.2928,2.2928,2.2928,2.2928,2.2928,2.2739,2.2432,2.1844,2.1764,2.1657,2.1363,2.1203,2.1109,2.1109,2.1109,2.1109,2.1109,2.1109,2.1162,2.1309,2.1189,2.1243,2.1523,2.139,2.1256,2.1109,2.1256,2.1323,2.1323,2.1456,2.1456,2.1323,2.1323,2.1243,0.0,0.0,2.1829,2.2352,2.2645,0.0,2.2472,2.2378,2.2191,2.1722,2.1977,2.2231,2.1897,2.1724,2.1762,2.1884,2.171,2.1722,2.1951,2.2151,2.2405,2.2739,2.306,2.3567,2.4409,2.4583,2.4836,2.5331,2.5144,2.4983,2.493,2.4142,2.3688,2.3688,2.3153,2.2832,2.2779,2.2779,2.2632,2.2338,2.2338,2.2218,2.2004,2.2485,2.2739,2.2792,2.2846,2.2928,2.2928,2.2928,2.2712,2.2512,2.2766,2.2712,2.2525,2.2766,2.2928,2.2928,2.2928,2.2699,2.2539,2.2779,2.2699,2.2539,2.2792,2.2928,2.2928,2.2928,2.2928,2.2928,2.2928,2.2928,2.2928,2.2928,2.2928,2.2928,2.2928,2.2928,2.2928,2.2928,2.2928,2.2928,2.2928,2.2928,2.2686,2.2138,2.2058,2.1937,2.1655,2.1336,2.1162,2.1109,2.1109,2.1109,2.1109,2.1109,2.1229,2.1601,2.1323,2.143,2.1964,2.1815,2.151,2.1269,2.151,2.1668,2.1614,2.179,2.1764,2.1547,2.1601,2.139,0.0,0.0,0.0,0.0,2.2645,2.2472,0.0,0.0,2.1951,0.0,2.1817,2.1871,2.1323,2.1617,2.1857,2.1708,2.1641,2.1722,2.1951,2.1804,2.1871,2.2418,2.2739,2.318,2.3821,2.4342,2.4589,2.4743,2.4716,2.4583,2.4329,2.3728,2.338,2.338,2.3046,2.2739,2.2485,2.2472,2.2338,2.2044,2.2044,2.2017,2.1991,2.2071,2.2245,2.2485,2.2752,2.2928,2.2928,2.2928,2.2846,2.2806,2.2846,2.2832,2.2806,2.2846,2.2928,2.2928,2.2928,2.2832,2.2806,2.2914,2.2832,2.2806,2.2914,2.2928,2.2928,2.2928,2.2928,2.2928,2.2928,2.2928,2.2928,2.2928,2.2928,2.2928,2.2928,2.2928,2.2928,2.2928,2.2928,2.2928,2.2928,2.2928,2.2752,2.2418,2.2365,2.2164,2.1681,2.1588,2.139,2.1136,2.1109,2.1109,2.1109,2.1109,2.1229,2.1601,2.1574,2.1643,2.1977,2.1951,2.1911,2.1871,2.1911,2.1804,2.1614,2.1655,2.1456,2.1176,2.143,2.139,2.2071,0.0,0.0,0.0,0.0,0.0,0.0,0.0,2.1857,2.1403,2.1403,2.1416,2.1162,2.1323,2.1456,2.1323,2.1309,2.1349,2.1483,2.1523,2.1708,2.1897,2.2338,2.2779,2.322,2.3647,2.3968,2.4142,2.4155,2.4102,2.3968,2.3554,2.3327,2.3327,2.2859,2.2552,2.2418,2.2258,2.2031,2.1737,2.1577,2.1496,2.1496,2.167,2.1991,2.2418,2.2392,2.2565,2.2914,2.2686,2.2619,2.2619,2.2619,2.2619,2.2619,2.2619,2.2712,2.2928,2.2928,2.2752,2.2619,2.2619,2.2498,2.2405,2.2565,2.2619,2.2645,2.2887,2.2928,2.2928,2.2928,2.2928,2.2928,2.2928,2.2928,2.2928,2.2928,2.2928,2.2928,2.2928,2.2928,2.2928,2.2928,2.2928,2.2819,2.2686,2.2525,2.2325,2.2071,2.1815,2.1561,2.1376,2.1203,2.1109,2.1109,2.1109,2.1309,2.1764,2.1708,2.1896,2.2445,2.2311,2.2298,2.2472,2.2311,2.2164,2.2031,2.2031,2.1964,2.1844,2.1817,2.1724,0.0,0.0,0.0,0.0,0.0,0.0,0.0,0.0,2.1737,0.0,2.1109,2.1109,2.1109,2.1109,2.1109,2.1109,2.1109,2.1109,2.1109,2.1296,2.1534,2.1614,2.1937,2.2338,2.2712,2.3033,2.334,2.3634,2.3661,2.3661,2.3661,2.33,2.31,2.31,2.2579,2.2271,2.2205,2.1977,2.1829,2.1614,2.1323,2.1189,2.1122,2.1336,2.1724,2.2191,2.2044,2.2271,2.2726,2.2432,2.2352,2.2405,2.2338,2.2311,2.2311,2.2311,2.2445,2.2645,2.2645,2.2539,2.2405,2.2338,2.2271,2.2231,2.2378,2.2472,2.2579,2.2806,2.2928,2.2928,2.2928,2.2928,2.2928,2.2928,2.2928,2.2928,2.2928,2.2928,2.2928,2.2928,2.2928,2.2928,2.2928,2.2928,2.2928,2.2928,2.2672,2.2498,2.2432,2.2044,2.1815,2.1735,2.1403,2.1216,2.1216,2.1149,2.1363,2.1951,2.1777,2.2097,2.2901,2.2645,2.2632,2.2928,2.2645,2.2498,2.2418,2.2418,2.2378,2.2311,2.2164,2.2058,0.0,0.0,0.0,0.0,0.0,0.0,0.0,0.0,0.0,2.1176,2.1109,2.1109,2.1109,2.1109,2.1109,2.1109,2.1109,2.1109,2.1109,2.1122,2.1243,2.1588,2.1641,2.1817,2.2392,2.2712,2.302,2.3327,2.3354,2.3354,2.3354,2.2792,2.2472,2.2472,2.2164,2.1884,2.1668,2.1641,2.1628,2.1614,2.1601,2.139,2.1109,2.1122,2.1296,2.1681,2.1871,2.2164,2.2418,2.2124,2.2164,2.2392,2.2111,2.2004,2.2004,2.2004,2.2017,2.2031,2.2031,2.2205,2.2378,2.2098,2.2378,2.2766,2.2498,2.2619,2.2914,2.2928,2.2928,2.2928,2.2928,2.2928,2.2928,2.2928,2.2928,2.2928,2.2928,2.2928,2.2928,2.2928,2.2928,2.2928,2.2928,2.2928,2.2928,2.2928,2.2914,2.2739,2.2458,2.2392,2.2271,2.1991,2.1775,2.1601,2.1601,2.1269,2.1363,2.1951,2.1977,2.2231,2.2832,2.2846,2.2846,2.2928,2.2846,2.2699,2.2418,2.2418,2.2271,2.2017,2.2271,2.2245,0.0,0.0,0.0,0.0,0.0,0.0,0.0,0.0,2.1534,2.1176,2.1109,2.1109,2.1109,2.1109,2.1109,2.1109,2.1109,2.1109,2.1109,2.1109,2.1149,2.1256,2.1443,2.1695,2.1844,2.2124,2.2352,2.2458,2.2632,2.2739,2.2739,2.2539,2.2418,2.2418,2.1951,2.1722,2.1614,2.1363,2.1363,2.1614,2.1363,2.1216,2.1109,2.1109,2.1162,2.1269,2.1376,2.1697,2.2124,2.183,2.1884,2.2111,2.1817,2.1817,2.1964,2.1842,2.183,2.1991,2.1991,2.2178,2.2378,2.2084,2.2258,2.2565,2.2458,2.2485,2.2619,2.2806,2.2928,2.2928,2.2928,2.2928,2.2928,2.2928,2.2928,2.2928,2.2928,2.2928,2.2928,2.2928,2.2928,2.2928,2.2928,2.2928,2.2928,2.2928,2.2928,2.2887,2.2712,2.2539,2.2378,2.2271,2.2004,2.183,2.183,2.1737,2.1844,2.2231,2.2258,2.2445,2.2914,2.2928,2.2928,2.2928,2.2928,2.2806,2.2699,2.2512,2.2458,2.2539,2.2458,2.2458,2.2418,0.0,0.0,0.0,0.0,0.0,0.0,0.0,2.1681,2.1323,2.1256,2.1256,2.1256,2.1176,2.1109,2.1109,2.1109,2.1109,2.1109,2.1109,2.1109,2.1109,2.1283,2.1403,2.1403,2.167,2.1844,2.1844,2.2205,0.0,2.2418,2.2325,2.2178,2.1991,2.1603,2.1521,2.1614,2.1363,2.1363,2.1614,2.1349,2.1203,2.1109,2.1109,2.1109,2.1109,2.1109,2.139,2.1817,2.1523,2.1577,2.1817,2.1523,2.1523,2.167,2.147,2.1523,2.171,2.1804,2.2031,2.2218,2.1937,2.2164,2.2525,2.2338,2.2405,2.2605,2.2806,2.2928,2.2928,2.2928,2.2928,2.2928,2.2928,2.2928,2.2928,2.2928,2.2928,2.2928,2.2928,2.2928,2.2928,2.2928,2.2928,2.2928,2.2928,2.2928,2.2928,2.2928,2.2686,2.2565,2.2565,2.2298,2.2124,2.2124,2.2044,2.2111,2.2405,2.2418,2.2552,2.2914,2.2928,2.2913,2.302,2.302,2.302,2.302,2.2712,2.2672,2.2928,2.2766,2.2886,0.0,0.0,0.0,0.0,0.0,0.0,0.0,0.0,2.1884,2.1681,2.1614,2.1614,2.1628,2.1323,2.1122,2.1122,2.1122,2.1109,2.1109,2.1109,2.1109,2.1109,2.1109,2.1109,2.1109,2.1376,2.1601,2.1601,2.2084,2.2405,2.2392,2.2124,2.171,2.1122,2.1109,2.1256,2.1614,2.1614,2.1614,2.1614,2.1614,2.139,2.1109,2.1109,2.1109,2.1109,2.1109,2.1269,2.1574,2.1229,2.1283,2.1574,2.1216,2.1109,2.1109,2.1109,2.1109,2.1149,2.1443,2.1815,2.1937,2.1735,2.2231,2.2752,2.2178,2.2405,2.2928,2.2928,2.2928,2.2928,2.2928,2.2928,2.2928,2.2928,2.2928,2.2928,2.2928,2.2928,2.2928,2.2928,2.2928,2.2928,2.2928,2.2928,2.2928,2.2928,2.2928,2.2928,2.2928,2.2928,2.2928,2.2928,2.2605,2.2432,2.2432,2.2178,2.2124,2.2418,2.2432,2.2565,2.2914,2.2941,2.3006,2.3313,2.3327,2.334,2.3327,2.3033,2.2954,2.2954,2.3193,2.3487,2.2418,0.0,0.0,0.0,0.0,0.0,0.0,0.0,0.0,2.1588,2.1614,2.1681,2.183,2.163,2.143,2.143,2.1256,2.1109,2.1109,2.1109,2.1109,2.1109,2.1109,2.1109,2.1109,2.1189,2.1229,0.0,2.1777,2.2017,2.1804,2.1775,2.1496,2.1122,2.1109,2.1256,2.1614,2.1336,2.1336,2.1614,2.1336,2.1189,2.1109,2.1109,2.1109,2.1109,2.1109,2.1162,2.1229,2.1149,2.1162,2.1229,2.1149,2.1109,2.1109,2.1109,2.1109,2.1149,2.1443,2.1815,2.2004,2.2138,2.2485,2.2901,2.2672,2.2807,2.2928,2.2928,2.2928,2.2928,2.2928,2.2928,2.2928,2.2928,2.2928,2.2928,2.2928,2.2928,2.2928,2.2928,2.2928,2.2928,2.2928,2.2928,2.2928,2.2928,2.2928,2.2928,2.2928,2.2928,2.2928,2.2928,2.2792,2.2739,2.2739,2.2659,2.2659,2.2739,2.2739,2.2779,2.2928,2.3086,2.314,2.2993,2.342,2.3541,2.3327,2.346,2.3407,2.3207,2.35,2.3688,2.2605,2.2392,0.0,0.0,0.0,0.0,2.151,2.1563,2.1697,0.0,2.1817,2.1777,2.1951,2.175,2.1614,2.1614,2.151,2.139,2.1149,2.1109,2.1109,2.1109,2.1109,2.1109,2.1109,2.1109,2.1109,2.1109,2.1537,2.1724,2.1628,2.1614,2.148,2.1122,2.1109,2.1189,2.1363,2.1189,2.1203,2.1363,2.1189,2.1109,2.1109,2.1109,2.1109,2.1109,2.1109,2.1109,2.1109,2.1109,2.1109,2.1109,2.1109,2.1109,2.1122,2.1256,2.1216,2.1189,2.1724,2.1951,2.2031,2.2325,2.2619,2.2846,2.2712,2.2766,2.2928,2.2928,2.2928,2.2928,2.2928,2.2928,2.2928,2.2928,2.2928,2.2928,2.2928,2.2928,2.2928,2.2928,2.2928,2.2928,2.2928,2.2928,2.2928,2.2928,2.2928,2.2928,2.2928,2.2928,2.2928,2.2928,2.2928,2.2928,2.2928,2.2928,2.2928,2.2928,2.2928,2.2928,2.2928,2.3033,2.3166,2.3233,2.346,2.3554,2.3514,2.3688,2.3741,2.3701,2.3875,2.3955,2.2928,2.2645,2.2432,2.2458,2.2245,0.0,2.2031,2.2205,2.2378,2.2378,2.2164,2.1991,2.1991,2.175,2.1614,2.1614,2.1764,2.1764,2.1283,2.1203,2.1203,2.1203,2.1176,2.1162,2.1162,2.1122,2.1109,2.1109,2.139,2.1628,2.1668,2.1668,2.147,2.1162,2.1162,2.1149,2.1109,2.1109,2.1109,2.1109,2.1109,2.1109,2.1109,2.1109,2.1109,2.1109,2.1109,2.1109,2.1109,2.1109,2.1109,2.1109,2.1109,2.1109,2.1149,2.1507,2.1363,2.1229,2.2111,2.2231,2.2044,2.2365,2.2645,2.2819,2.2552,2.2645,2.2928,2.2928,2.2928,2.2928,2.2928,2.2928,2.2928,2.2928,2.2928,2.2928,2.2928,2.2928,2.2928,2.2928,2.2928,2.2928,2.2928,2.2928,2.2928,2.2928,2.2928,2.2928,2.2928,2.2928,2.2928,2.2928,2.2928,2.2928,2.2928,2.2928,2.2928,2.2928,2.2928,2.2873,2.2913,2.3008,2.322,2.3754,2.3514,2.3541,2.3875,2.3808,2.3915,2.4209,2.4168,2.4168,2.2792,2.2645,2.2472,2.2712,2.2552,0.0,2.2338,2.2205,2.2071,0.0,2.2031,2.1991,2.1991,2.175,2.1614,2.1614,2.1668,2.1683,2.179,2.1817,2.1817,2.1817,2.1603,2.1534,2.1534,2.1256,2.1109,2.1109,2.139,2.1722,2.1884,2.1897,2.1764,2.1534,2.1534,2.1349,2.1109,2.1109,2.1109,2.1109,2.1109,2.1109,2.1109,2.1109,2.1109,2.1109,2.1109,2.1109,2.1109,2.1109,2.1109,2.1109,2.1109,2.1109,2.1149,2.1507,2.1363,2.1229,2.2111,2.2231,2.2071,2.2605,2.2887,2.2914,2.2792,2.2819,2.2928,2.2928,2.2928,2.2928,2.2928,2.2928,2.2928,2.2928,2.2928,2.2928,2.2928,2.2928,2.2928,2.2928,2.2928,2.2928,2.2928,2.2928,2.2928,2.2928,2.2928,2.2928,2.2928,2.2928,2.2928,2.2928,2.2928,2.2928,2.2928,2.2928,2.2928,2.2928,2.2928,2.2979,2.322,2.346,2.3647,2.3768,2.3714,2.3941,2.4462,2.3995,2.3915,2.4195,2.3968,2.3981,2.2859,2.2752,2.2672,2.2887,2.2752,0.0,0.0,2.2525,2.2418,2.2418,2.2191,2.1991,0.0,0.0,2.1614,2.1614,2.179,2.1991,2.1991,2.1991,2.1991,2.1991,2.1724,2.1614,2.1614,2.1283,2.1109,2.1109,2.139,2.1681,2.1764,2.1911,2.1924,2.1777,2.1695,2.1547,2.1336,2.1189,2.1109,2.1109,2.1109,2.1109,2.1109,2.1109,2.1109,2.1109,2.1109,2.1109,2.1109,2.1109,2.1109,2.1109,2.1109,2.1109,2.1149,2.1507,2.1363,2.1216,2.1951,2.2004,2.1844,2.2285,2.2525,2.2645,2.2645,2.2739,2.2928,2.2928,2.2928,2.2928,2.2928,2.2928,2.2928,2.2928,2.2928,2.2928,2.2928,2.2928,2.2928,2.2928,2.2928,2.2928,2.2928,2.2928,2.2928,2.2928,2.2928,2.2928,2.2928,2.2928,2.2928,2.2928,2.2928,2.2928,2.2928,2.2928,2.2928,2.2928,2.2928,2.3006,2.3313,2.3474,2.3554,2.3554,2.3981,2.4048,2.3754,2.3768,2.3915,2.4195,2.3901,2.3768,2.2953,2.2968,2.2966,2.3088,2.2993,2.2966,0.0,0.0,0.0,0.0,0.0,0.0,0.0,0.0,0.0,0.0,0.0,0.0,0.0,2.1951,0.0,2.1991,2.1724,2.1614,2.1614,2.1283,2.1109,2.1109,2.1443,2.1695,2.1695,2.1964,2.2124,2.2071,2.179,2.1681,2.1614,2.1256,2.1109,2.1109,2.1109,2.1109,2.1109,2.1109,2.1109,2.1109,2.1109,2.1109,2.1109,2.1109,2.1109,2.1109,2.1109,2.1109,2.1149,2.1507,2.1363,2.1189,2.1777,2.179,2.1668,2.1897,2.2178,2.2432,2.2485,2.2672,2.2928,2.2928,2.2928,2.2928,2.2928,2.2928,2.2928,2.2928,2.2928,2.2928,2.2928,2.2928,2.2928,2.2928,2.2928,2.2928,2.2928,2.2928,2.2928,2.2928,2.2928,2.2928,2.2928,2.2928,2.2928,2.2928,2.2928,2.2928,2.2928,2.2928,2.2928,2.2928,2.2926,2.3086,2.3407,2.3527,2.3554,2.35,2.4195,2.4048,2.3033,2.3474,2.3834,2.4115,2.3754,2.3527,0.0,0.0,2.334,2.3607,2.3474,2.334,2.3607,0.0,2.2792,2.2525,0.0,0.0,0.0,0.0,0.0,0.0,0.0,0.0,2.1668,2.1817,2.1991,2.1991,2.1724,2.1614,2.1614,2.1283,2.1109,2.1109,2.163,2.1937,2.1937,2.2458,2.2645,2.2378,2.2084,2.1817,2.1614,2.1256,2.1109,2.1109,2.1109,2.1109,2.1109,2.1109,2.1109,2.1109,2.1109,2.1109,2.1109,2.1109,2.1109,2.1109,2.1109,2.1109,2.1149,2.1507,2.1363,2.1189,2.1777,2.179,2.1668,2.1897,2.2178,2.2472,2.2726,2.2832,2.2928,2.2928,2.2928,2.2928,2.2928,2.2928,2.2928,2.2928,2.2928,2.2928,2.2928,2.2928,2.2928,2.2928,2.2928,2.2928,2.2928,2.2928,2.2928,2.2928,2.2928,2.2928,2.2928,2.2928,2.2928,2.2928,2.2928,2.2928,2.2928,2.2928,2.2928,2.2928,2.3126,2.3407,2.3714,2.4209,2.4369,2.4102,2.4209,2.4062,2.3661,2.3474,2.3527,2.3808,2.3303,2.3233,0.0,0.0,0.0,0.0,0.0,0.0,2.3741,2.3581,2.3354,0.0,0.0,0.0,0.0,0.0,0.0,0.0,2.1363,0.0,0.0,0.0,0.0,0.0,0.0,0.0,2.1309,2.1189,2.1109,2.1109,2.1496,2.1804,2.1977,2.2378,2.2619,2.2672,2.2392,2.2098,2.1804,2.151,2.1283,2.1109,2.1109,2.1109,2.1109,2.1109,2.1109,2.1109,2.1109,2.1109,2.1109,2.1109,2.1109,2.1109,2.1109,2.1109,2.1149,2.1507,2.1534,2.1403,2.1643,2.1722,2.1668,2.1897,2.2178,2.2472,2.2779,2.2928,2.2928,2.2928,2.2928,2.2928,2.2928,2.2928,2.2928,2.2928,2.2928,2.2928,2.2928,2.2928,2.2928,2.2928,2.2928,2.2928,2.2928,2.2928,2.2928,2.2928,2.2928,2.2928,2.2928,2.2928,2.2928,2.2928,2.2928,2.2928,2.2928,2.2928,2.2939,2.3113,2.3567,2.3888,2.4022,2.4422,2.4502,2.4209,2.4369,2.4222,2.3768,2.3647,2.3741,2.4008,2.3407,2.3367,2.4255,0.0,0.0,0.0,0.0,0.0,0.0,2.3768,2.3768,0.0,0.0,0.0,0.0,0.0,0.0,0.0,0.0,2.1547,0.0,0.0,0.0,0.0,0.0,0.0,0.0,2.1109,2.1109,2.1109,2.1456,2.1764,2.1977,2.2338,2.2645,2.2928,2.2579,2.2311,2.2111,2.1802,2.1507,2.1229,2.1149,2.1109,2.1109,2.1109,2.1109,2.1109,2.1109,2.1109,2.1109,2.1109,2.1109,2.1109,2.1109,2.1109,2.1136,2.1349,2.1547,2.1614,2.1614,2.1668,2.171,2.1924,2.2178,2.2472,2.2779,2.2928,2.2928,2.2928,2.2928,2.2928,2.2928,2.2928,2.2928,2.2928,2.2928,2.2928,2.2928,2.2928,2.2928,2.2928,2.2928,2.2928,2.2928,2.2928,2.2928,2.2928,2.2928,2.2928,2.2928,2.2928,2.2928,2.2928,2.2928,2.2928,2.2928,2.2928,2.2993,2.33,2.3728,2.3995,2.4075,2.4289,2.4302,2.4088,2.4289,2.4195,2.3768,2.3688,2.3794,2.4075,2.3567,2.3527,0.0,0.0,0.0,2.38,0.0,0.0,0.0,0.0,2.3768,0.0,0.0,0.0,0.0,0.0,0.0,2.2004,0.0,0.0,0.0,0.0,0.0,0.0,0.0,0.0,0.0,2.1109,2.1109,2.1109,2.1643,2.1977,2.1991,2.2539,2.2914,2.2928,2.2579,2.2418,2.2405,2.1844,2.1614,2.1601,2.1243,2.1109,2.1109,2.1109,2.1109,2.1109,2.1109,2.1109,2.1109,2.1109,2.1109,2.1109,2.1109,2.1109,2.1109,2.1122,2.1309,2.1614,2.1614,2.1802,2.1977,2.1977,2.2178,2.2472,2.2779,2.2928,2.2928,2.2928,2.2928,2.2928,2.2928,2.2928,2.2928,2.2928,2.2928,2.2928,2.2928,2.2928,2.2928,2.2928,2.2928,2.2928,2.2928,2.2928,2.2928,2.2928,2.2928,2.2928,2.2928,2.2928,2.2928,2.2928,2.2928,2.2928,2.2928,2.2928,2.2993,2.33,2.334,2.3487,2.3768,2.3794,2.3794,2.3781,2.3794,2.3794,2.3768,2.3487,2.3487,2.3781,2.3474,2.3634,0.0,0.0,2.75,2.5574,0.0,0.0,0.0,0.0,0.0,0.0,0.0,0.0,0.0,0.0,0.0,0.0,0.0,0.0,0.0,0.0,0.0,0.0,0.0,0.0,0.0,0.0,0.0,2.1109,2.1296,2.1577,2.1964,2.2352,2.2752,2.3153,2.3073,2.2926,2.2712,2.2325,2.1937,2.1614,2.1521,2.1296,2.1109,2.1109,2.1109,2.1109,2.1109,2.1109,2.1109,2.1109,2.1109,2.1109,2.1109,2.1109,2.1136,2.1336,2.1534,2.1641,2.1777,2.1897,2.2017,2.2205,2.2472,2.2726,2.2901,2.2928,2.2928,2.2928,2.2928,2.2928,2.2928,2.2928,2.2928,2.2928,2.2928,2.2928,2.2928,2.2928,2.2928,2.2928,2.2928,2.2928,2.2928,2.2928,2.2928,2.2928,2.2928,2.2928,2.2928,2.2928,2.2928,2.2928,2.2928,2.2939,2.3153,2.3527,2.3714,2.3621,2.3794,2.3955,2.4048,2.4062,2.4142,2.4342,2.4342,2.4342,2.4342,2.3861,2.3875,2.4329,2.3848,2.3834,2.9674,2.9355,0.0,2.7426,2.802,0.0,2.642,0.0,2.7428,0.0,0.0,0.0,0.0,0.0,0.0,0.0,0.0,0.0,0.0,2.1991,0.0,0.0,0.0,0.0,0.0,0.0,2.1109,2.1109,2.1203,2.147,2.1964,2.2365,2.2806,2.3313,2.3434,2.334,2.3033,2.2726,2.2285,2.1775,2.1668,2.1403,2.1109,2.1109,2.1109,2.1109,2.1109,2.1109,2.1109,2.1109,2.1109,2.1109,2.1109,2.1109,2.1136,2.1323,2.1523,2.1802,2.1924,2.2124,2.2311,2.2392,2.2619,2.2928,2.2928,2.2928,2.2928,2.2928,2.2928,2.2928,2.2928,2.2928,2.2928,2.2928,2.2928,2.2954,2.3006,2.2939,2.2968,2.3006,2.2939,2.2928,2.2928,2.2928,2.2928,2.2928,2.2928,2.2928,2.2928,2.2928,2.2928,2.2928,2.2928,2.2939,2.314,2.3607,2.3808,2.3621,2.3888,2.4048,2.4048,2.4048,2.4235,2.4549,2.4436,2.4489,2.4796,2.4102,2.4022,2.4476,2.4102,2.4022]}]]